     2.11           OBSERVATION DATA    G (GPS)             RINEX VERSION / TYPE
teqc 2010Oct21 OPUS Account 20111027 18:48:07UTC            PGM / RUN BY / DATE
S 1525                                                      MARKER NAME
3027                                                        MARKER NUMBER
CSMIDDLETON NGS                                             OBSERVER / AGENCY
0220390627 TRIMBLE R7 2.32                                  REC # / TYPE / VERS
60124849 TRM41249.00 NONE                                   ANT # / TYPE
  -760500.6543 -5554447.3037  3031386.6587                  APPROX POSITION XYZ
        2.0010        0.0000        0.0000                  ANTENNA: DELTA H/E/N
     1     1                                                WAVELENGTH FACT L1/2
     5    L1    L2    C1    P1    P2                        # / TYPES OF OBSERV
    15                                                      LEAP SECONDS
  2011     8    18     0     0   30.0000000     GPS         TIME OF FIRST OBS
                                                            END OF HEADER
 11  8 18  0  0 30.0000000  0  8G17G10G09G28G02G04G12G05
 -41013102.79757 -31923690.77355  22622499.6254                   22622498.8014
 -28825215.86358 -22435508.02056  21051158.0314                   21051156.4614
 -20145097.91057 -15662324.41855  22854052.1954                   22854051.7584
 -40132720.07056 -31249482.69553  24229263.7344                   24229266.5004
 -34076976.78558 -26518162.39856  20677061.3364                   20677057.3134
 -40035307.94558 -31158917.27756  20896694.7344                   20896693.1174
 -18637736.34457 -14489757.12555  22162134.2504                   22162132.1134
 -12062527.03157  -9384373.67655  22993073.9694                   22993073.5434
 11  8 18  0  1  0.0000000  0  8G17G10G09G28G02G04G12G05
 -41006446.02347 -31918503.72345  22623766.6094                   22623765.1414
 -28897773.82848 -22492046.66046  21037350.5394                   21037349.0474
 -20119634.20347 -15642482.59444  22858897.3284                   22858897.2894
 -40069177.73846 -31199969.37543  24241355.8364                   24241358.1604
 -34133229.21148 -26561995.45346  20666356.9224                   20666352.4804
 -40007860.29748 -31137529.51246  20901917.7424                   20901916.6764
 -18756032.95347 -14581936.25045  22139623.0554                   22139621.0124
 -12202973.82847  -9493812.64845  22966348.1414                   22966347.0044
 11  8 18  0  1 30.0000000  0  8G17G10G09G28G02G04G12G05
 -40999647.14847 -31913205.92645  22625060.6484                   22625058.7584
 -28969740.33648 -22548124.41846  21023655.7344                   21023654.1724
 -20093794.65647 -15622347.91044  22863814.6564                   22863814.3914
 -40005419.57046 -31150287.89843  24253489.5004                   24253491.7154
 -34189116.98048 -26605544.35246  20655721.8364                   20655717.6454
 -39980130.67648 -31115922.02746  20907194.4694                   20907192.9884
 -18874020.71547 -14673874.71545  22117170.7344                   22117168.6024
 -12343262.14547  -9603128.11745  22939651.9774                   22939651.4304
 11  8 18  0  2  0.0000000  0  7G17G10G09G02G04G12G05
 -40992702.35547 -31907794.43745  22626381.8524                   22626380.9804
 -29041110.03148 -22603737.14146  21010074.4844                   21010072.3714
 -20067579.17647 -15601920.33244  22868803.2734                   22868803.2074
 -34244637.39548 -26648806.99646  20645156.5864                   20645152.4804
 -39952117.87948 -31094093.89146  20912525.0474                   20912523.6644
 -18991693.66047 -14765567.86746  22094778.1174                   22094776.2194
 -12483385.71947  -9712315.19945  22912987.0474                   22912986.6334
 11  8 18  0  2 30.0000000  0  7G17G10G09G02G04G12G05
 -40985602.86347 -31902262.39545  22627732.7114                   22627731.8244
 -29111873.44948 -22658877.42246  20996608.8524                   20996607.0474
 -20040983.28547 -15581196.28944  22873864.6414                   22873864.2274
 -34299783.62548 -26691778.06646  20634662.5864                   20634658.2704
 -39923816.65648 -31072041.01246  20917910.6094                   20917909.0744
 -19109041.26648 -14857007.50446  22072447.4614                   22072445.2624
 -12623333.97347  -9821365.68745  22886355.5784                   22886355.7504
 11  8 18  0  3  0.0000000  0  7G17G10G09G02G04G12G05
 -40978347.89547 -31896609.22745  22629113.7504                   22629111.9304
 -29182028.53148 -22713543.69546  20983258.5474                   20983257.2624
 -20014009.70347 -15560177.95744  22878997.5004                   22878996.9574
 -34354556.07848 -26734457.88346  20624239.4774                   20624235.2114
 -39895229.10948 -31049765.03946  20923350.5944                   20923348.8984
 -19226060.75848 -14948191.46546  22050179.7034                   22050177.3714
 -12763103.64147  -9930277.02345  22859758.5554                   22859757.8284
 11  8 18  0  3 30.0000000  0  7G17G10G09G02G04G12G05
 -40970928.51647 -31890827.92245  22630525.3204                   22630523.9924
 -29251565.31648 -22767728.17246  20970026.0164                   20970024.9104
 -19986653.77047 -15538861.71544  22884203.3054                   22884202.9534
 -34408947.17648 -26776840.53946  20613889.3834                   20613884.9024
 -39866349.34048 -31027261.33646  20928846.2584                   20928844.7664
 -19342741.38748 -15039111.37946  22027975.8444                   22027974.0704
 -12902683.19547 -10039040.19545  22833197.3594                   22833196.7664
 11  8 18  0  4  0.0000000  0  7G17G10G09G02G04G12G05
 -40963350.89147 -31884923.32045  22631967.4064                   22631966.1844
 -29320488.45748 -22821434.49646  20956910.5554                   20956909.2154
 -19958925.13347 -15517255.03944  22889479.2194                   22889479.4804
 -34462964.48848 -26818931.94146  20603610.1804                   20603606.3204
 -39837186.07048 -31004536.74246  20934395.9144                   20934394.4734
 -19459087.07847 -15129770.31646  22005835.9924                   22005833.8524
 -13042076.38747 -10147658.15245  22806671.1334                   22806671.1294
 11  8 18  0  4 30.0000000  0  7G17G10G09G02G04G12G05
 -40955611.77347 -31878892.88345  22633440.0784                   22633438.8984
 -29388793.91848 -22874659.50846  20943912.3364                   20943910.6684
 -19930824.57047 -15495358.56245  22894826.4534                   22894827.3594
 -34516606.34848 -26860730.77746  20593402.3444                   20593398.3094
 -39807739.27048 -30981591.19546  20939999.4224                   20939997.9454
 -19575092.75447 -15220164.30146  21983761.0864                   21983758.6374
 -13181277.74647 -10256126.63345  22780182.1254                   22780181.7114
 11  8 18  0  5  0.0000000  0  7G17G10G09G02G04G12G05
 -40947694.05547 -31872723.28545  22634946.6954                   22634945.5124
 -29456463.68748 -22927389.17246  20931035.4774                   20931033.4454
 -19902338.85547 -15473161.97345  22900247.5234                   22900247.9184
 -34569856.89148 -26902224.68746  20583269.0784                   20583264.6334
 -39777994.56648 -30958413.52746  20945659.7814                   20945658.6884
 -19690739.06648 -15310278.27046  21961754.5164                   21961752.4614
 -13320267.62947 -10364430.32045  22753733.1174                   22753732.8164
 11  8 18  0  5 30.0000000  0  7G17G10G09G02G04G12G05
 -40939621.37147 -31866432.89845  22636482.9144                   22636481.9494
 -29523520.51248 -22979641.21946  20918274.9844                   20918273.4534
 -19873495.76247 -15450686.90244  22905736.5394                   22905736.7774
 -34622741.11748 -26943433.16046  20573205.3984                   20573201.1414
 -39747978.89848 -30935024.70746  20951371.0634                   20951370.2074
 -19806048.02748 -15400129.37946  21939811.7114                   21939809.5514
 -13459067.12547 -10472585.65245  22727320.2274                   22727319.9654
 11  8 18  0  6  0.0000000  0  7G17G10G09G02G04G12G05
 -40931382.53547 -31860013.07445  22638051.0784                   22638049.0394
 -29589952.03548 -23031406.01646  20905633.4534                   20905631.4304
 -19844288.07447 -15427927.72344  22911294.6564                   22911295.2704
 -34675249.48048 -26984348.75846  20563213.4844                   20563208.8634
 -39717683.93748 -30911418.25846  20957136.2894                   20957135.3404
 -19921006.51247 -15489707.38345  21917935.5004                   21917933.0164
 -13597663.38347 -10580582.61745  22700946.1724                   22700946.0434
 11  8 18  0  6 30.0000000  0  7G17G10G09G02G04G12G05
 -40922991.82047 -31853474.90645  22639646.9844                   22639645.8364
 -29655771.35948 -23082693.77346  20893108.1414                   20893106.2034
 -19814733.85247 -15404898.53544  22916918.0864                   22916918.6254
 -34727397.50848 -27024983.57846  20553290.2734                   20553285.8444
 -39687126.67248 -30887607.42246  20962951.2894                   20962949.7384
 -20035626.70347 -15579021.78946  21896123.9694                   21896121.9144
 -13736068.05947 -10688430.30945  22674608.5164                   22674608.1254
 11  8 18  0  7  0.0000000  0  7G17G10G09G02G04G12G05
 -40914441.41847 -31846812.27745  22641274.4614                   22641272.1884
 -29720969.83248 -23133497.75446  20880701.6484                   20880699.7344
 -19784828.97747 -15381596.09044  22922608.9384                   22922609.5354
 -34779178.81248 -27065332.62146  20543436.2734                   20543432.1884
 -39656302.09848 -30863588.29346  20968816.9384                   20968815.3094
 -20149898.60247 -15668064.82046  21874378.7584                   21874376.9064
 -13874270.52747 -10796120.43045  22648309.4694                   22648308.9224
 11  8 18  0  7 30.0000000  0  7G17G10G09G02G04G12G05
 -40905731.06647 -31840025.01645  22642932.2894                   22642929.7154
 -29785546.43748 -23183817.15646  20868412.5314                   20868411.3714
 -19754577.43447 -15358023.52344  22928365.7114                   22928366.5124
 -34830594.84848 -27105397.04746  20533652.2114                   20533648.2234
 -39625213.31248 -30839363.28546  20974732.8674                   20974731.5204
 -20263820.39848 -15756835.02746  21852700.4064                   21852698.3874
 -14012268.64547 -10903651.32445  22622049.1174                   22622048.7544
 11  8 18  0  8  0.0000000  0  7G17G10G09G02G04G12G05
 -40896861.76247 -31833113.90645  22644619.9694                   22644617.2854
 -29849501.41448 -23233652.18046  20856242.6804                   20856241.1374
 -19723984.18447 -15334184.68444  22934188.1094                   22934188.0984
 -34881648.40648 -27145179.01646  20523936.9384                   20523932.7814
 -39593864.33648 -30814935.52746  20980698.1094                   20980696.9804
 -20377391.27347 -15845331.80146  21831088.4384                   21831086.1884
 -14150061.28147 -11011022.11345  22595827.7974                   22595827.3714
 11  8 18  0  8 30.0000000  0  8G17G10G09G30G02G04G12G05
 -40887824.52347 -31826071.95745  22646339.9694                   22646337.2274
 -29912824.35948 -23282994.69946  20844192.3444                   20844190.5824
 -19693043.85247 -15310075.37944  22940075.9224                   22940075.9774
   -211097.28156   -130154.04352  24200898.5634                   24200897.3524
 -34932331.28148 -27184672.16046  20514292.4924                   20514288.1524
 -39562248.64848 -30790299.94546  20986714.4384                   20986713.1764
 -20490599.78548 -15933546.21946  21809545.7974                   21809543.5704
 -14287636.39147 -11118223.39145  22569648.8204                   22569647.9304
 11  8 18  0  9  0.0000000  0  8G17G10G09G30G02G04G12G05
 -39303214.71547 -30591311.09445  22947881.2894                   22947878.9534
 -28400107.99248 -22104254.64546  21132052.8914                   21132051.1454
 -18086356.77747 -14058111.46944  23245818.1644                   23245818.6134
   1220992.73846    985760.31643  24473415.7274                   24473415.7544
 -33407238.77348 -25996288.36746  20804507.8284                   20804503.5784
 -37954965.28948 -29537871.36346  21292570.6254                   21292569.4694
 -19028035.26248 -14793885.55146  22087862.1414                   22087860.0984
 -12849582.50447  -9997661.80545  22843300.8984                   22843300.5744
 11  8 18  0  9 30.0000000  0  8G17G10G09G30G02G04G12G05
 -39293877.98847 -30584035.76245  22949657.7274                   22949655.9104
 -28462201.71548 -22152639.34046  21120236.9224                   21120235.2504
 -18054771.23847 -14033499.39144  23251828.5944                   23251828.8244
   1077837.69946    874210.95743  24446173.9224                   24446173.9964
 -33457222.07448 -26035236.37946  20794996.1094                   20794991.8524
 -37922861.57848 -29512855.48446  21298679.7274                   21298678.5204
 -19140549.86748 -14881559.26646  22066451.6644                   22066449.0164
 -12986752.65247 -10104547.52045  22817198.2584                   22817197.7154
 11  8 18  0 10  0.0000000  0  8G17G10G09G30G02G04G12G05
 -39284382.23447 -30576636.52045  22951465.0784                   22951463.1764
 -28523670.60948 -22200537.14846  21108539.8444                   21108538.2894
 -18022860.01647 -14008633.55544  23257901.6334                   23257901.3284
    934876.46946    762812.60943  24418969.4384                   24418969.1994
 -33506848.57848 -26073906.35546  20785552.4694                   20785548.6804
 -37890509.40648 -29487646.01246  21304836.3914                   21304835.5124
 -19252705.73847 -14968953.44146  22045109.0944                   22045106.9384
 -13123707.71947 -10211265.64545  22791136.6094                   22791135.8094
 11  8 18  0 10 30.0000000  0  8G17G10G09G30G02G04G12G05
 -39274727.45747 -30569113.37145  22953301.7734                   22953300.7664
 -28584513.14548 -22247946.88746  21096961.6954                   21096960.2384
 -17990626.34447 -13983516.41844  23264035.1024                   23264034.8444
    792111.96146    651567.62143  24391802.5234                   24391802.0474
 -33556119.43048 -26112299.20746  20776176.7734                   20776172.2074
 -37857910.64148 -29462244.37546  21311039.2734                   21311038.3324
 -19364500.10247 -15056065.92646  22023835.4614                   22023833.3714
 -13260444.30547 -10317813.53145  22765116.0634                   22765115.8284
 11  8 18  0 11  0.0000000  0  8G17G10G09G30G02G04G12G05
 -39264907.87547 -30561461.78545  22955170.8444                   22955169.4774
 -28644723.66448 -22294864.15246  21085504.2424                   21085502.5704
 -17958069.36347 -13958147.38344  23270230.1884                   23270230.7504
    649551.35546    540481.49643  24364673.6884                   24364673.5664
 -33605030.81248 -26150411.94946  20766869.0164                   20766865.3634
 -37825063.57448 -29436649.25846  21317290.1334                   21317288.7074
 -19475926.01648 -15142891.29746  22002631.7664                   22002629.4304
 -13396955.46947 -10424185.76245  22739138.6954                   22739138.3634
 11  8 18  0 11 30.0000000  0  8G17G10G09G30G02G04G12G05
 -39254932.18047 -30553688.54745  22957068.7894                   22957067.5514
 -28704310.03948 -22341295.07446  21074165.3674                   21074163.9804
 -17925201.73447 -13932536.28144  23276485.1644                   23276485.7194
    507188.15646    429549.16443  24337583.0864                   24337582.5274
 -33653592.97748 -26188252.57046  20757628.1884                   20757624.1804
 -37791979.37948 -29410869.37546  21323585.8134                   21323584.5204
 -19586989.82848 -15229434.52346  21981496.9614                   21981494.8484
 -13533247.41847 -10530387.17645  22713203.2974                   22713202.8914
 11  8 18  0 12  0.0000000  0  8G17G10G09G30G02G04G12G05
 -39244795.23847 -30545789.68745  22958997.6804                   22958996.4884
 -28763266.41448 -22387235.08646  21062945.9144                   21062944.6294
 -17892021.97347 -13906681.94144  23282799.0634                   23282799.2384
    365029.80146    318776.45743  24310529.3914                   24310530.3754
 -33701802.26248 -26225818.22746  20748454.1954                   20748449.8754
 -37758655.64848 -29384902.83646  21329927.1484                   21329925.6524
 -19697684.89147 -15315690.37546  21960432.4694                   21960429.9224
 -13669312.48847 -10636411.81245  22687311.6484                   22687310.2344
 11  8 18  0 12 30.0000000  0  8G17G10G09G30G02G04G12G05
 -39234497.92247 -30537765.85545  22960957.1414                   22960956.2974
 -28821592.35948 -22432683.84846  21051847.0474                   21051845.4804
 -17858534.26647 -13880587.66044  23289171.7274                   23289171.3404
    223077.97746    208164.73443  24283518.8444                   24283518.2464
 -33749660.52048 -26263110.35246  20739347.2344                   20739342.6684
 -37725095.72748 -29358752.25046  21336313.6564                   21336311.9494
 -19808009.41048 -15401657.51246  21939438.5004                   21939436.2704
 -13805148.49247 -10742257.95745  22661461.9064                   22661462.0314
 11  8 18  0 13  0.0000000  0  8G17G10G09G30G02G04G12G05
 -39224027.89847 -30529607.46145  22962950.3284                   22962949.3244
 -28879275.48848 -22477631.71946  21040870.3754                   21040868.2974
 -17824730.98847 -13854247.50044  23295604.0474                   23295604.0204
     81346.82846     97724.98843  24256547.6334                   24256547.7504
 -33797157.52048 -26300120.99646  20730308.6254                   20730304.6604
 -37691290.49248 -29332410.52046  21342746.5704                   21342745.1174
 -19917949.55548 -15487325.10946  21918517.2974                   21918515.0274
 -13940741.25047 -10847914.54745  22635659.5084                   22635659.1174
 11  8 18  0 13 30.0000000  0  8G17G10G09G30G02G04G12G05
 -39213400.64847 -30521326.51645  22964972.6174                   22964971.5784
 -28936331.04748 -22522090.56646  21030012.8834                   21030010.8714
 -17790631.62947 -13827676.63344  23302092.4774                   23302092.7504
    -60177.20346    -12553.40243  24229617.3674                   24229616.1564
 -33844310.27348 -26336863.37946  20721335.8594                   20721331.7734
 -37657258.44948 -29305892.04746  21349222.3594                   21349221.6644
 -20027518.96148 -15572703.82446  21897667.0634                   21897664.5124
 -14076104.26247 -10953392.12545  22609901.1724                   22609900.1454
 11  8 18  0 14  0.0000000  0  8G17G10G09G30G02G04G12G05
 -39202615.68747 -30512922.70345  22967024.7114                   22967023.6804
 -28992757.91848 -22566059.53546  21019275.2274                   21019273.2854
 -17756239.88747 -13800877.92644  23308637.9614                   23308637.5634
   -201491.59446   -122668.41843  24202725.7504                   24202725.3404
 -33891119.90248 -26373338.39546  20712428.1954                   20712424.0824
 -37623002.38348 -29279199.00046  21355741.2664                   21355739.4304
 -20136715.49248 -15657791.98446  21876887.5394                   21876885.1024
 -14211234.60547 -11058688.41045  22584186.7974                   22584185.7034
 11  8 18  0 14 30.0000000  0  8G17G10G09G30G02G04G12G05
 -39191646.85947 -30504375.59845  22969111.7504                   22969110.9344
 -29048528.63348 -22609517.22746  21008662.6094                   21008660.4024
 -17721533.00447 -13773833.66044  23315242.2504                   23315242.2344
   -342567.34046   -232597.50843  24175879.8134                   24175879.4064
 -33937561.46148 -26409526.60546  20703590.4304                   20703586.4454
 -37588498.09448 -29252312.54346  21362307.0784                   21362305.5704
 -20245510.28148 -15742567.08646  21856184.4384                   21856182.0824
 -14346103.21547 -11163780.74245  22558522.0084                   22558520.8054
 11  8 18  0 15  0.0000000  0  8G17G10G09G30G02G04G12G05
 -39180502.60247 -30495691.78945  22971232.5944                   22971232.2854
 -29103651.78548 -22652470.32046  20998172.7034                   20998170.9304
 -17686523.85547 -13746553.85944  23321903.7894                   23321904.7624
   -483411.17646   -342345.87143  24149077.6724                   24149077.9654
 -33983645.35248 -26445436.12546  20694821.2114                   20694817.1994
 -37553757.32848 -29225241.81646  21368918.3134                   21368916.5744
 -20353910.08648 -15827034.41046  21835556.8984                   21835554.6454
 -14480716.31247 -11268673.96945  22532905.4774                   22532904.8554
 11  8 18  0 15 30.0000000  0  9G17G10G09G30G02G04G12G05G25
 -39169185.62547 -30486873.41045  22973385.8914                   22973385.7304
 -29158129.33648 -22694920.34846  20987805.8054                   20987804.2934
 -17651219.14847 -13719043.77044  23328622.6564                   23328622.7774
   -624023.65646   -451913.98443  24122319.6884                   24122320.1994
 -34029375.64848 -26481070.10546  20686119.0634                   20686114.8284
 -37518785.32048 -29197990.90646  21375573.3284                   21375571.5704
 -20461915.94548 -15911194.77746  21815003.5704                   21815001.2934
 -14615074.23847 -11373368.37145  22507338.0164                   22507337.2384
   1368739.87156   1100168.15653  24698092.3284                   24698093.4694
 11  8 18  0 16  0.0000000  0  9G17G10G09G30G02G04G12G05G25
 -39157710.52747 -30477931.82445  22975569.7274                   22975569.0204
 -29211975.82848 -22736878.62946  20977559.4774                   20977558.0394
 -17615637.70747 -13691318.03144  23335393.1564                   23335393.7854
   -764417.41846   -561311.66443  24095603.8914                   24095603.6844
 -34074768.97348 -26516441.52046  20677480.7424                   20677476.7304
 -37483599.98448 -29170573.76646  21382268.5394                   21382266.8984
 -20569540.98448 -15995058.38346  21794523.4384                   21794521.0864
 -14749189.68747 -11477873.83245  22481817.2034                   22481815.8524
   1228281.71946    990720.26643  24671363.9384                   24671364.9614
 11  8 18  0 16 30.0000000  0  9G17G10G09G30G02G04G12G05G25
 -39146079.67647 -30468868.86745  22977783.1254                   22977781.8834
 -29265193.01648 -22778346.55146  20967432.3444                   20967430.6764
 -17579785.74647 -13663381.48444  23342215.6724                   23342216.0004
   -904592.40646   -670538.85243  24068929.8054                   24068929.5634
 -34119829.11748 -26551553.32046  20668906.2424                   20668902.0704
 -37448206.46148 -29142994.40646  21389003.7664                   21389002.0634
 -20676784.95348 -16078625.06646  21774115.3444                   21774113.3164
 -14883062.24247 -11582190.02045  22456341.7894                   22456340.6214
   1087945.31346    881367.23443  24644658.6174                   24644660.1174
 11  8 18  0 17  0.0000000  0  9G17G10G09G30G02G04G12G05G25
 -39134282.17247 -30459676.02345  22980028.1334                   22980027.3554
 -29317769.60948 -22819315.31246  20957427.4694                   20957425.3634
 -17543656.28947 -13635228.73044  23349091.4774                   23349091.0044
  -1044535.66446   -779585.48843  24042299.0944                   24042299.4694
 -34164546.84848 -26586398.28946  20660397.0554                   20660392.6844
 -37412596.66847 -29115246.53145  21395779.5234                   21395778.6414
 -20783635.54347 -16161885.21146  21753782.1414                   21753779.8874
 -15016679.09047 -11686306.94145  22430914.9844                   22430913.9844
    947743.33246    772119.00443  24617979.3834                   24617980.3324
 11  8 18  0 17 30.0000000  0  9G17G10G09G30G02G04G12G05G25
 -39122328.51647 -30450361.52745  22982302.8054                   22982302.4654
 -29369715.56248 -22859792.65246  20947542.0314                   20947540.5234
 -17507263.70747 -13606870.92644  23356016.6484                   23356016.9774
  -1184255.21546   -888457.81643  24015711.9454                   24015711.1094
 -34208933.89148 -26620985.59046  20651950.3594                   20651946.2774
 -37376783.42648 -29087340.10546  21402595.0474                   21402593.8244
 -20890101.12947 -16244845.36346  21733522.7034                   21733520.0204
 -15150048.02747 -11790230.70345  22405535.9224                   22405534.3984
    807667.39146    662968.99643  24591323.4304                   24591325.2154
 11  8 18  0 18  0.0000000  0  9G17G10G09G30G02G04G12G05G25
 -39110203.62947 -30440913.59845  22984610.6724                   22984609.2584
 -29421015.93448 -22899766.94546  20937780.4534                   20937778.3674
 -17470597.68047 -13578300.05544  23362993.6724                   23362994.0314
  -1323734.53146   -997142.93043  23989169.5554                   23989169.3054
 -34252977.46948 -26655305.24246  20643568.9224                   20643564.6484
 -37340755.15248 -29059266.12946  21409451.0164                   21409449.5314
 -20996164.77748 -16327492.31246  21713339.6414                   21713336.7814
 -15283152.04747 -11893948.03545  22380206.8834                   22380206.0824
    667733.87146    553929.96943  24564694.9774                   24564696.7584
 11  8 18  0 18 30.0000000  0  9G17G10G09G30G02G04G12G05G25
 -39097899.73047 -30431326.18445  22986951.8754                   22986950.4774
 -29471662.00848 -22939231.39146  20928142.7734                   20928141.0904
 -17433653.41847 -13549512.37544  23370023.8204                   23370023.9304
  -1462962.64146  -1105632.35243  23962674.9454                   23962674.4734
 -34296670.57048 -26689351.80546  20635254.4924                   20635250.2664
 -37304506.21148 -29031020.20345  21416349.1024                   21416347.3324
 -21101816.80148 -16409818.52346  21693234.5704                   21693232.1134
 -15415980.19947 -11997450.41045  22354930.2664                   22354929.2974
    527953.19546    445010.02343  24538095.5394                   24538097.4104
 11  8 18  0 19  0.0000000  0  9G17G10G09G30G02G04G12G05G25
 -39085427.09047 -30421607.27045  22989325.1414                   22989324.1024
 -29521663.94548 -22978193.91846  20918627.6564                   20918625.6914
 -17396445.35947 -13520519.15244  23377104.6094                   23377104.8364
  -1601947.96946  -1213932.58243  23936227.4534                   23936226.4534
 -34340025.37148 -26723134.77046  20627004.2584                   20626999.9344
 -37268049.62148 -29002612.50046  21423286.6954                   21423284.8404
 -21207065.29748 -16491830.31646  21673206.2114                   21673203.7704
 -15548540.37947 -12100743.97745  22329704.6804                   22329703.7624
    388316.83246    336202.51243  24511523.1884                   24511524.8954
 11  8 18  0 19 30.0000000  0  9G17G10G09G30G02G04G12G05G25
 -39072793.54347 -30411762.97345  22991729.3834                   22991728.0704
 -29571029.63348 -23016660.66046  20909233.6024                   20909232.0164
 -17358985.97347 -13491330.08644  23384232.7974                   23384233.2664
  -1740696.46546  -1322048.23443  23909823.9144                   23909824.1414
 -34383051.87948 -26756661.91046  20618816.5234                   20618812.3134
 -37231396.60548 -28974051.71145  21430261.4454                   21430259.3754
 -21311916.77048 -16573532.72746  21653253.6954                   21653251.1804
 -15680839.07847 -12203833.78945  22304528.9614                   22304528.1604
    248818.35946    227502.50044  24484978.1564                   24484979.8014
 11  8 18  0 20  0.0000000  0  9G17G10G09G30G02G04G12G05G25
 -39059984.19147 -30401781.69545  22994166.9384                   22994165.5554
 -29619744.23448 -23054620.06646  20899963.1884                   20899961.9144
 -17321264.38747 -13461936.70744  23391410.7814                   23391411.5594
  -1879191.15247  -1429966.13743  23883469.7504                   23883468.5474
 -34425736.41048 -26789922.56646  20610694.0784                   20610689.5394
 -37194534.89148 -28945328.31246  21437276.1174                   21437274.4304
 -21416354.47747 -16654912.74646  21633379.9694                   21633377.3444
 -15812858.80147 -12306706.23045  22279406.4774                   22279405.5864
    109474.60946    118923.02344  24458461.6644                   24458463.2814
 11  8 18  0 20 30.0000000  0  9G17G10G09G30G02G04G12G05G25
 -39047014.37547 -30391675.39545  22996635.5704                   22996633.3634
 -29667821.93048 -23092083.18046  20890814.5554                   20890812.6644
 -17283299.29747 -13432353.59844  23398635.8054                   23398636.5124
  -2017444.61346  -1537696.07043  23857160.3984                   23857159.7154
 -34468095.41848 -26822929.56646  20602633.3674                   20602629.0234
 -37157482.12148 -28916456.02345  21444326.3054                   21444325.1684
 -21520391.28147 -16735980.36346  21613582.5474                   21613579.7734
 -15944611.81647 -12409370.84046  22254335.0004                   22254333.7774
    -29727.34446     10454.05944  24431972.4224                   24431974.0004
 11  8 18  0 21  0.0000000  0  9G17G10G09G30G02G04G12G05G25
 -39033873.82047 -30381436.03545  22999135.8204                   22999134.7854
 -29715252.82848 -23129042.28546  20881789.0004                   20881786.9494
 -17245084.71147 -13402576.04744  23405908.1564                   23405908.0004
  -2155444.53946  -1645228.44943  23830900.1804                   23830898.9964
 -34510121.15648 -26855676.88746  20594636.2894                   20594631.8794
 -37120230.97348 -28887429.16045  21451415.3054                   21451414.0354
 -21624015.41848 -16816726.41446  21593863.3674                   21593860.4264
 -16076086.00047 -12511818.18446  22229315.5704                   22229315.1134
   -168775.50846    -97895.07844  24405512.5004                   24405513.8204
 11  8 18  0 21 30.0000000  0  9G17G10G09G30G02G04G12G05G25
 -39020561.35947 -30371062.74244  23001668.3754                   23001667.9024
 -29762035.86748 -23165496.57846  20872886.1954                   20872884.8914
 -17206623.71147 -13372606.49644  23413226.6954                   23413226.7974
  -2293187.55147  -1752560.64543  23804688.6484                   23804687.8324
 -34551813.74648 -26888164.60246  20586702.1174                   20586697.7584
 -37082783.15648 -28858249.07445  21458541.8674                   21458540.1684
 -21727223.90648 -16897148.60246  21574223.3984                   21574220.5554
 -16207277.54347 -12614045.28946  22204351.4384                   22204349.9104
   -307666.98047   -206122.12144  24379081.8204                   24379083.1914
 11  8 18  0 22  0.0000000  0  9G17G10G09G30G02G04G12G05G25
 -39007074.44147 -30360553.50445  23004235.1254                   23004234.6684
 -29808167.76648 -23201443.49646  20864107.5234                   20864106.0124
 -17167917.76247 -13342446.09044  23420592.5864                   23420592.2734
  -2430668.83247  -1859688.93043  23778527.1334                   23778525.9494
 -34593172.03548 -26920391.83246  20578831.6804                   20578827.9924
 -37045138.73048 -28828915.76245  21465705.0554                   21465703.2424
 -21830012.12948 -16977243.30946  21554663.4144                   21554660.5824
 -16338181.82847 -12716048.55946  22179440.6954                   22179440.0124
   -446397.12946   -314223.47744  24352682.5784                   24352684.0634
 11  8 18  0 22 30.0000000  0  9G17G10G09G30G02G04G12G05G25
 -38993412.20347 -30349907.65245  23006835.3524                   23006834.3594
 -29853647.77048 -23236882.43046  20855452.5314                   20855451.3444
 -17128969.81647 -13312097.12944  23428003.9384                   23428004.4884
  -2567885.36347  -1966610.91043  23752415.2974                   23752414.5204
 -34634197.19948 -26952359.47746  20571025.2664                   20571021.1054
 -37007299.73048 -28799430.84845  21472905.7344                   21472904.0204
 -21932377.49248 -17057008.51646  21535183.8284                   21535181.4654
 -16468795.68447 -12817825.52046  22154585.5474                   22154584.9964
   -584963.22747   -422197.02344  24326313.7584                   24326315.9774
 11  8 18  0 23  0.0000000  0  9G17G10G09G30G02G04G12G05G25
 -38979568.23047 -30339120.18045  23009469.5474                   23009468.9184
 -29898469.53948 -23271808.46146  20846923.8204                   20846922.0164
 -17089777.42247 -13281557.67644  23435462.0004                   23435462.4574
  -2704828.52046  -2073319.81243  23726356.0554                   23726355.4844
 -34674884.46948 -26984063.82446  20563282.5084                   20563277.9384
 -36969262.09048 -28769791.16445  21480144.1884                   21480141.9414
 -22034311.75847 -17136437.80946  21515786.2894                   21515784.0944
 -16599110.23447 -12919369.24246  22129787.7194                   22129786.7304
   -723356.98447   -530036.27044  24299978.7344                   24299980.4734
 11  8 18  0 23 30.0000000  0  9G17G10G09G30G02G04G12G05G25
 -38965555.98447 -30328201.60945  23012135.8284                   23012135.6454
 -29942646.60548 -23306232.12546  20838517.0704                   20838515.4534
 -17050358.24646 -13250841.49244  23442963.0634                   23442963.6174
  -2841509.53946  -2179824.50043  23700346.2734                   23700345.8364
 -34715248.96148 -27015516.66446  20555601.4144                   20555597.6484
 -36931042.33648 -28740009.55145  21487417.0634                   21487415.3164
 -22135826.38348 -17215540.10946  21496468.9844                   21496466.3054
 -16729136.66447 -13020688.47346  22105044.3674                   22105043.6844
   -861589.91047   -637750.18744  24273673.8674                   24273675.3874
 11  8 18  0 24  0.0000000  0  9G17G10G09G30G02G04G12G05G25
 -38951369.60547 -30317147.34845  23014835.4304                   23014835.5314
 -29986173.19548 -23340148.92646  20830234.6484                   20830232.5784
 -17010710.07447 -13219946.90644  23450508.5164                   23450508.2114
  -2977920.18046  -2286118.46544  23674388.1414                   23674387.4494
 -34755286.21948 -27046714.51246  20547982.7814                   20547978.3754
 -36892636.84448 -28710083.21146  21494725.1724                   21494724.3594
 -22236913.68748 -17294309.44146  21477232.5864                   21477230.4184
 -16858866.68747 -13121776.72745  22080357.4384                   22080356.5474
   -999654.08246   -745332.60544  24247401.1884                   24247402.8364
 11  8 18  0 24 30.0000000  0  9G17G10G09G30G02G04G12G05G25
 -38937005.50047 -30305954.58245  23017569.4694                   23017568.8954
 -30029045.73048 -23373556.08646  20822076.1254                   20822073.7384
 -16970833.72747 -13188874.49644  23458096.3984                   23458096.6684
  -3114054.74646  -2392197.28143  23648482.5234                   23648481.6884
 -34794994.53148 -27077656.03946  20540426.1644                   20540422.0864
 -36854045.08648 -28680011.72745  21502068.5864                   21502067.7624
 -22337568.73047 -17372741.93446  21458078.5554                   21458076.1884
 -16988294.36747 -13222629.39546  22055728.2274                   22055727.2774
  -1137544.02747   -852779.30544  24221161.2974                   24221162.6024
 11  8 18  0 25  0.0000000  0  9G17G10G09G30G02G04G12G05G25
 -38922458.63347 -30294619.41044  23020336.9144                   23020336.4734
 -30071258.84048 -23406449.38746  20814043.1024                   20814041.1134
 -16930728.03147 -13157623.35944  23465728.7274                   23465728.6214
  -3249905.80547  -2498055.16443  23622630.8204                   23622630.1414
 -34834370.36748 -27108338.50446  20532933.3134                   20532928.9454
 -36815264.46148 -28649793.07445  21509448.7974                   21509447.5784
 -22437784.14848 -17450831.87946  21439008.0944                   21439005.6684
 -17117412.14847 -13323240.58246  22031157.8834                   22031156.4694
  -1275252.65647   -960084.74244  24194955.9534                   24194957.4414
 11  8 18  0 25 30.0000000  0  9G17G10G09G30G02G04G12G05G25
 -38907739.58247 -30283150.09444  23023138.2034                   23023137.3244
 -30112823.08648 -23438837.09046  20806133.9774                   20806131.6804
 -16890407.39547 -13126204.77344  23473400.9454                   23473401.7074
  -3385481.85547  -2603698.76644  23596831.6484                   23596831.3484
 -34873426.17248 -27138771.58646  20525501.2814                   20525496.9264
 -36776308.40248 -28619437.73045  21516862.2274                   21516860.8914
 -22537568.78947 -17528586.14546  21420019.8204                   21420017.0204
 -17246228.05547 -13423616.54746  22006645.0394                   22006643.5314
  -1412788.61747  -1067255.60944  24168784.3054                   24168786.3164
 11  8 18  0 26  0.0000000  0  9G17G10G09G30G02G04G12G05G25
 -38892858.23847 -30271554.27344  23025970.3594                   23025968.9494
 -30153748.66448 -23470727.13346  20798345.5554                   20798343.6294
 -16849885.79746 -13094629.59044  23481112.4144                   23481112.8324
  -3520790.46147  -2709133.94144  23571083.5864                   23571082.8754
 -34912173.27048 -27168964.11346  20518128.0314                   20518123.6254
 -36737189.21948 -28588955.27045  21524305.9844                   21524304.7234
 -22636930.78147 -17606011.07046  21401111.5864                   21401109.5204
 -17374750.36747 -13523763.73445  21982188.2974                   21982186.7194
  -1550159.79747  -1174298.05943  24142643.4844                   24142645.5044
 11  8 18  0 26 30.0000000  0  9G17G10G09G30G02G04G12G05G25
 -38877788.73847 -30259811.85545  23028838.3444                   23028836.4654
 -30194010.22747 -23502099.75046  20790683.9304                   20790682.1804
 -16809141.73847 -13062881.06644  23488865.3444                   23488865.7664
  -3655803.53947  -2814338.86744  23545390.4454                   23545390.6454
 -34950587.66848 -27198897.40646  20510818.0944                   20510813.6884
 -36697884.04748 -28558327.90245  21531785.4844                   21531784.1094
 -22735842.53148 -17683085.15646  21382289.7274                   21382287.2234
 -17502950.77747 -13623660.10246  21957792.3364                   21957790.9184
  -1687338.38746  -1281190.45344  24116538.6564                   24116540.7384
 11  8 18  0 27  0.0000000  0  9G17G10G09G30G02G04G12G05G25
 -38862542.87947 -30247932.00045  23031739.3204                   23031738.0514
 -30233619.66047 -23532964.22746  20783146.4924                   20783144.9884
 -16768190.73447 -13030971.26644  23496658.1334                   23496659.5204
  -3790530.80147  -2919321.04343  23519752.8524                   23519752.4734
 -34988682.98448 -27228582.06247  20503568.6334                   20503564.4224
 -36658407.32448 -28527566.85545  21539298.0084                   21539296.2114
 -22834314.08648 -17759816.23046  21363550.8134                   21363548.3714
 -17630838.84447 -13723313.07846  21933455.9774                   21933454.3984
  -1824334.31246  -1387940.50844  24090469.5394                   24090470.8874
 11  8 18  0 27 30.0000000  0  9G17G10G09G30G02G04G12G05G25
 -38847114.70347 -30235910.08245  23034674.7584                   23034674.2544
 -30272570.72348 -23563315.68046  20775734.8834                   20775732.5514
 -16727030.61346 -12998898.53544  23504491.4454                   23504491.4884
  -3924963.74246  -3024073.89843  23494170.7894                   23494170.3634
 -35026454.82848 -27258014.66046  20496380.7034                   20496376.5164
 -36618755.34448 -28496669.24645  21546843.2814                   21546842.1524
 -22932337.55148 -17836198.14146  21344897.9614                   21344895.2074
 -17758406.19947 -13822716.14146  21909180.3284                   21909179.0124
  -1961139.30546  -1494541.77344  24064436.2894                   24064437.7974
 11  8 18  0 28  0.0000000  0  9G17G10G09G30G02G04G12G05G25
 -38831492.34447 -30223736.85545  23037647.9844                   23037647.7974
 -30310851.93748 -23593145.18446  20768449.5944                   20768448.0864
 -16685653.61747 -12966656.77044  23512364.3444                   23512365.1414
  -4059088.38346  -3128586.48443  23468648.2734                   23468647.2034
 -35063893.10548 -27287187.33646  20489256.7114                   20489252.2734
 -36578919.00048 -28465627.96945  21554424.3834                   21554422.8754
 -23029899.27748 -17912220.25046  21326332.5234                   21326329.9144
 -17885638.30947 -13921857.98446  21884968.8674                   21884967.6884
  -2097739.70347  -1600983.58644  24038442.5944                   24038443.2934
 11  8 18  0 28 30.0000000  0  9G17G10G09G30G02G04G12G05G25
 -38815700.23047 -30211431.35544  23040653.3444                   23040652.3014
 -30348488.04748 -23622472.00046  20761287.7974                   20761285.7894
 -16644088.00847 -12934268.05544  23520274.2734                   23520275.0474
  -4192926.67246  -3232875.95743  23443179.2504                   23443179.0274
 -35101023.61748 -27316120.19146  20482190.6804                   20482186.4104
 -36538925.21948 -28434464.00845  21562034.5554                   21562033.4694
 -23127021.92248 -17987900.20346  21307850.9454                   21307847.8914
 -18012557.02348 -14020755.62146  21860816.7274                   21860815.8054
  -2234157.65647  -1707283.25044  24012483.1484                   24012484.5354
 11  8 18  0 29  0.0000000  0  9G17G10G09G30G02G04G12G05G25
 -38799721.86347 -30198980.74244  23043693.8674                   23043693.1094
 -30385462.93748 -23651283.57846  20754251.8914                   20754250.3404
 -16602321.61747 -12901722.87544  23528222.2034                   23528223.1884
  -4326460.13747  -3336927.93443  23417769.3284                   23417767.5274
 -35137831.81248 -27344801.89846  20475186.1724                   20475182.1254
 -36498760.17648 -28403166.59445  21569678.0554                   21569676.8164
 -23223687.30548 -18063223.86746  21289455.8444                   21289453.4104
 -18139144.18447 -14119394.89846  21836728.2814                   21836726.9304
  -2370374.83247  -1813426.44544  23986561.7034                   23986562.7074
 11  8 18  0 29 30.0000000  0  9G17G10G09G30G02G04G12G05G25
 -38783570.93447 -30186395.66044  23046767.0554                   23046766.4224
 -30421790.23448 -23679590.52746  20747338.5234                   20747336.9264
 -16560371.77347 -12869034.73044  23536205.5944                   23536205.2774
  -4459699.84047  -3440750.98443  23392414.1254                   23392412.7464
 -35174332.84048 -27373244.25046  20468240.6644                   20468236.4344
 -36458440.02048 -28371748.31645  21577350.4384                   21577349.1764
 -23319907.04348 -18138200.25446  21271145.7814                   21271143.1844
 -18265410.78947 -14217784.39146  21812700.6884                   21812699.6564
  -2506402.73447  -1919422.12544  23960676.0474                   23960677.7624
 11  8 18  0 30  0.0000000  0  9G17G10G09G30G02G04G12G05G25
 -37191811.44547 -28946063.61344  23349669.0704                   23349668.3244
 -28882032.84448 -22479779.56246  21040344.9064                   21040343.4534
 -14942807.43747 -11608595.05144  23844017.4534                   23844018.2424
  -3017202.72747  -2316727.18444  23666912.5474                   23666911.1524
 -33635090.69148 -26173834.78146  20761148.6254                   20761144.4024
 -34842532.30948 -27112599.47345  21884847.7734                   21884846.4184
 -21840239.77348 -16985212.72346  21552716.9614                   21552714.4184
 -16815913.93447 -13088306.25446  22088530.5864                   22088529.6374
  -1066798.31247   -797652.37544  24234624.1024                   24234624.6024
 11  8 18  0 30 30.0000000  0  9G17G10G09G30G02G04G12G05G25
 -37175288.10547 -28933188.35544  23352813.5234                   23352812.4884
 -28917039.28948 -22507057.28546  21033683.5004                   21033682.0354
 -14900475.51247 -11575609.21144  23852073.5634                   23852074.6764
  -3149821.18447  -2420066.19144  23641676.0394                   23641674.9614
 -33670955.21548 -26201781.15646  20754323.9144                   20754319.9224
 -34801882.49248 -27080924.32445  21892582.7974                   21892580.9574
 -21935535.81248 -17059469.34846  21534582.7114                   21534580.3054
 -16941505.54747 -13186169.77746  22064631.3524                   22064629.8284
  -1202414.43047   -903327.18044  24208816.8674                   24208818.2854
 11  8 18  0 31  0.0000000  0  9G17G10G09G30G02G04G12G05G25
 -37158580.82847 -28920169.72744  23355992.3524                   23355992.1764
 -28951388.21547 -22533822.66046  21027147.0394                   21027145.4884
 -14857960.82847 -11542480.95344  23860163.5394                   23860164.6294
  -3282127.90647  -2523162.30544  23616498.6564                   23616496.9104
 -33706506.66848 -26229483.58646  20747558.7664                   20747554.4144
 -34761073.83248 -27049125.40645  21900348.4304                   21900346.9224
 -22030370.27348 -17133366.28946  21516536.1254                   21516533.6414
 -17066758.47347 -13283769.39546  22040796.3834                   22040795.2624
  -1337823.89147  -1008840.91444  24183049.0944                   24183050.6724
 11  8 18  0 31 30.0000000  0  9G17G10G09G30G02G04G12G05G25
 -37141683.37547 -28907002.92644  23359207.9064                   23359207.2034
 -28985073.67248 -22560071.04346  21020737.1414                   21020735.2234
 -14815261.07847 -11509208.45344  23868288.9304                   23868289.6334
  -3414114.31247  -2626008.79744  23591382.7114                   23591381.0434
 -33741740.28148 -26256938.35246  20740853.9534                   20740849.6564
 -34720102.82448 -27017199.95745  21908145.0864                   21908143.6844
 -22124734.75848 -17206897.00846  21498579.2664                   21498576.8714
 -17191664.19147 -13381098.45746  22017027.6094                   22017025.6414
  -1473018.33647  -1114187.11344  24157321.7504                   24157323.7344
 11  8 18  0 32  0.0000000  0  9G17G10G09G30G02G04G12G05G25
 -37124600.59847 -28893691.70744  23362458.8594                   23362457.8404
 -29018100.74248 -22585806.41046  21014452.0394                   21014449.8914
 -14772384.83247 -11475798.46144  23876448.3204                   23876448.7464
  -3545782.98047  -2728607.70743  23566326.6484                   23566325.5784
 -33776662.54348 -26284150.50446  20734208.4064                   20734204.0594
 -34678976.75048 -26985153.69145  21915971.0234                   21915969.5044
 -22218632.52048 -17280064.04746  21480710.9844                   21480708.2424
 -17316225.18047 -13478158.90246  21993324.1484                   21993323.1414
  -1608000.57447  -1219368.00444  24131636.1334                   24131637.4104
 11  8 18  0 32 30.0000000  0  9G17G10G09G30G02G04G12G05G25
 -37107331.08647 -28880235.00044  23365745.2344                   23365743.9884
 -29050468.48847 -22611028.00846  21008292.6254                   21008291.0394
 -14729334.62546 -11442252.90644  23884640.0004                   23884640.5904
  -3677130.27047  -2830956.18744  23541331.7344                   23541330.9454
 -33811273.66048 -26311120.19946  20727621.9614                   20727617.7544
 -34637696.52048 -26952987.30545  21923826.5554                   21923825.3594
 -22312060.28948 -17352864.87146  21462932.4844                   21462929.5744
 -17440437.71547 -13574947.83646  21969687.4844                   21969686.2274
  -1742767.08247  -1324380.75844  24105990.5004                   24105992.8634
 11  8 18  0 33  0.0000000  0  9G17G10G09G30G02G04G12G05G25
 -37089884.58647 -28866640.37144  23369065.3444                   23369064.3014
 -29082187.23848 -22635743.89846  21002256.4224                   21002254.7274
 -14686124.24647 -11408582.50844  23892862.7894                   23892863.4104
  -3808163.39547  -2933059.90644  23516397.2344                   23516395.9964
 -33845585.07448 -26337856.37146  20721093.1884                   20721089.0784
 -34596274.35948 -26920710.31645  21931708.8594                   21931707.7194
 -22405025.93048 -17425305.58646  21445241.8914                   21445239.0554
 -17564309.05147 -13671470.91046  21946115.4304                   21946114.1484
  -1877325.52047  -1429231.35944  24080384.2974                   24080386.4964
 11  8 18  0 33 30.0000000  0  9G17G10G09G30G02G04G12G05G25
 -37072258.90647 -28852906.12544  23372419.5704                   23372418.7384
 -29113255.55148 -22659952.96146  20996344.3984                   20996343.1134
 -14642755.74247 -11374788.91444  23901115.4844                   23901116.7974
  -3938878.25447  -3034915.62543  23491522.9844                   23491521.9184
 -33879596.68748 -26364358.92246  20714620.5004                   20714616.3444
 -34554711.03548 -26888323.32845  21939618.2114                   21939616.6094
 -22497525.74247 -17497383.32446  21427639.1094                   21427636.9734
 -17687835.19547 -13767724.98846  21922609.2504                   21922607.5434
  -2011671.84847  -1533916.70744  24054820.1174                   24054821.3444
 11  8 18  0 34  0.0000000  0  9G17G10G09G30G02G04G12G05G25
 -37054436.50047 -28839018.59444  23375810.6094                   23375809.9804
 -29143656.14148 -22683641.72746  20990559.4924                   20990557.4414
 -14599215.14146 -11340861.21944  23909400.7344                   23909401.8554
  -4069254.63746  -3136507.56244  23466713.4924                   23466712.4494
 -33913292.25448 -26390615.19946  20708208.6254                   20708204.5234
 -34512990.91848 -26855814.18045  21947557.4694                   21947556.0984
 -22589540.42248 -17569083.03146  21410129.5784                   21410126.8954
 -17810996.01247 -13863694.41446  21899172.3364                   21899171.0394
  -2145786.01647  -1638421.17244  24029298.0864                   24029300.1334
 11  8 18  0 34 30.0000000  0  9G17G10G09G30G02G04G12G05G25
 -37036420.96547 -28824980.53944  23379239.1564                   23379238.2664
 -29173393.30148 -22706813.52046  20984900.6484                   20984898.9734
 -14555509.82846 -11306805.18043  23917718.0634                   23917718.0984
  -4199294.14546  -3237836.99643  23441967.0784                   23441966.1374
 -33946677.27348 -26416629.50046  20701855.8204                   20701851.1294
 -34471120.34048 -26823187.78545  21955525.0864                   21955523.5594
 -22681072.05948 -17640406.35946  21392711.6334                   21392709.1454
 -17933792.94947 -13959380.28546  21875805.0084                   21875803.2974
  -2279669.89847  -1742746.19144  24003820.8284                   24003822.4694
 11  8 18  0 35  0.0000000  0  9G17G10G09G30G02G04G12G05G25
 -37018227.23847 -28810803.68045  23382701.0784                   23382700.5434
 -29202482.44148 -22729480.37146  20979365.4224                   20979363.3634
 -14511658.53947 -11272635.37944  23926062.8444                   23926063.1374
  -4329009.05546  -3338913.50443  23417283.1804                   23417282.6414
 -33979767.96148 -26442414.44546  20695558.7894                   20695554.6054
 -34429116.44948 -26790457.49245  21963518.3284                   21963516.2664
 -22772133.46948 -17711363.27046  21375383.3364                   21375380.2384
 -18056238.47348 -14054792.32446  21852504.3754                   21852502.4694
  -2413335.93447  -1846901.43744  23978384.8674                   23978386.6604
 11  8 18  0 35 30.0000000  0  9G17G10G09G30G02G04G12G05G25
 -36999836.09847 -28796472.97744  23386200.9454                   23386200.5434
 -29230905.08648 -22751627.87946  20973956.5634                   20973954.6524
 -14467646.48847 -11238340.33243  23934437.9694                   23934438.8054
  -4458378.06246  -3439720.45344  23392664.7274                   23392664.5784
 -34012547.12948 -26467956.64546  20689321.1254                   20689316.9344
 -34386962.59848 -26757610.35545  21971538.9844                   21971538.0664
 -22862704.22348 -17781937.86346  21358148.4534                   21358145.7384
 -18178310.97347 -14149913.69546  21829274.2504                   21829272.9344
  -2546763.07447  -1950870.55544  23952995.0784                   23952996.1484
 11  8 18  0 36  0.0000000  0  9G17G10G09G30G02G04G12G05G25
 -36981247.95747 -28781988.74645  23389738.4924                   23389737.7624
 -29258662.44948 -22773256.98046  20968674.6564                   20968672.6914
 -14423477.93447 -11203923.31244  23942843.0634                   23942843.8164
  -4587399.47746  -3540256.53944  23368112.8914                   23368112.0164
 -34045016.90248 -26493257.75846  20683142.3914                   20683137.7344
 -34344661.92648 -26724648.81645  21979589.4224                   21979588.1454
 -22952783.14548 -17852129.20346  21341006.6804                   21341004.2344
 -18300009.32448 -14244743.52046  21806116.4534                   21806114.7034
  -2679949.78947  -2054652.37544  23927650.1174                   23927651.1644
 11  8 18  0 36 30.0000000  0  9G17G10G09G30G02G04G12G05G25
 -36962458.37547 -28767347.56245  23393314.0234                   23393312.7584
 -29285750.28548 -22794364.36746  20963519.8914                   20963518.1484
 -14379151.80146 -11169383.53543  23951278.2974                   23951278.7234
  -4716065.99646  -3640516.13744  23343628.8134                   23343627.2664
 -34077174.25848 -26518315.44146  20677023.1334                   20677018.7974
 -34302211.76648 -26691570.78545  21987667.3054                   21987666.4184
 -23042363.35947 -17921931.94546  21323960.0474                   21323957.4614
 -18421326.13347 -14339276.02746  21783030.0634                   21783028.6054
  -2812888.91047  -2158241.23844  23902352.9224                   23902353.6174
 11  8 18  0 37  0.0000000  0  9G17G10G09G30G02G04G12G05G25
 -36943483.27747 -28752561.82844  23396924.5474                   23396924.2704
 -29312185.36348 -22814963.11346  20958489.7274                   20958487.5354
 -14334688.25447 -11134736.66444  23959739.4694                   23959740.5314
  -4844391.59847  -3740510.05144  23319209.2424                   23319208.4104
 -34109037.15248 -26543143.65646  20670959.9064                   20670955.5704
 -34259630.64148 -26658390.70745  21995770.2584                   21995769.1884
 -23131459.81647 -17991357.75046  21307005.8674                   21307003.2624
 -18542275.02347 -14433521.85546  21760014.5314                   21760013.2304
  -2945594.61347  -2261648.25044  23877099.8674                   23877100.5944
 11  8 18  0 37 30.0000000  0  9G17G10G09G30G02G04G12G05G25
 -36924314.18047 -28737624.92244  23400572.8834                   23400571.8524
 -29337960.10948 -22835047.32446  20953584.8674                   20953582.8444
 -14290082.41447 -11099978.91844  23968227.9304                   23968228.2034
  -4972365.35947  -3840229.78144  23294856.0704                   23294855.3484
 -34140598.73448 -26567737.08646  20664953.4454                   20664949.6644
 -34216912.61348 -26625103.94145  22003899.1414                   22003898.1914
 -23220062.38747 -18060398.69146  21290145.2664                   21290142.7664
 -18662845.51247 -14527472.81646  21737070.4304                   21737069.1294
  -3078056.19147  -2364865.01644  23851893.1094                   23851894.7234
 11  8 18  0 38  0.0000000  0  9G17G10G09G30G02G04G12G05G25
 -36904948.30147 -28722534.67644  23404257.9534                   23404257.6334
 -29363072.22348 -22854615.18746  20948806.2114                   20948803.9494
 -14245335.52747 -11065111.28544  23976743.2584                   23976743.1724
  -5099982.25047  -3939671.44144  23270572.0554                   23270570.4804
 -34171857.68448 -26592094.69546  20659005.1884                   20659001.0004
 -34174057.02048 -26591709.98845  22012054.5004                   22012053.1024
 -23308166.58647 -18129051.30946  21273379.3054                   21273377.0664
 -18783032.53547 -14621124.99246  21714199.9384                   21714198.2974
  -3210268.68747  -2467887.75844  23826733.9844                   23826734.8094
 11  8 18  0 38 30.0000000  0  9G17G10G09G30G02G04G12G05G25
 -36885391.97347 -28707295.99644  23407979.0634                   23407978.9454
 -29387528.76648 -22873672.23046  20944151.6094                   20944150.0944
 -14200457.54747 -11030141.47744  23985283.2974                   23985283.5354
  -5227246.23847  -4038838.12144  23246354.1954                   23246352.2774
 -34202822.32848 -26616222.95746  20653112.7664                   20653108.7624
 -34131072.60548 -26558215.65645  22020234.2344                   22020233.1844
 -23395777.00048 -18197319.15646  21256707.6094                   21256705.3834
 -18902840.20348 -14714481.55946  21691401.1884                   21691399.5664
  -3342236.21547  -2570719.59444  23801621.4384                   23801622.3674
 11  8 18  0 39  0.0000000  0  9G17G10G09G30G02G04G12G05G25
 -36865636.84447 -28691902.44144  23411738.5164                   23411738.2664
 -29411322.34448 -22892212.66446  20939624.2584                   20939622.1174
 -14155444.39147 -10995066.37144  23993848.6414                   23993849.3444
  -5354146.90247  -4137721.69144  23222205.7894                   23222204.1524
 -34233485.72748 -26640116.50046  20647277.7344                   20647273.5634
 -34087953.59048 -26524616.43045  22028439.3984                   22028437.9304
 -23482883.70748 -18265194.50846  21240131.8984                   21240129.4924
 -19022257.66847 -14807534.07046  21668676.6254                   21668674.4024
  -3473948.51647  -2673352.53144  23776557.3364                   23776558.3954
 11  8 18  0 39 30.0000000  0  9G17G10G09G30G02G04G12G05G25
 -36845697.27047 -28676365.13744  23415532.5314                   23415532.5824
 -29434468.18048 -22910248.35946  20935219.7894                   20935217.7034
 -14110313.89547 -10959899.84444  24002436.9304                   24002438.0864
  -5480695.96947  -4236331.29344  23198124.0704                   23198123.0204
 -34263863.73448 -26663787.66446  20641497.2974                   20641492.6644
 -34044716.49248 -26490925.21145  22036667.0554                   22036665.8984
 -23569499.53148 -18332687.35246  21223649.4844                   21223647.0004
 -19141297.42647 -14900292.26646  21646023.9534                   21646022.3164
  -3605417.53547  -2775795.88344  23751539.6954                   23751540.7384
 11  8 18  0 40  0.0000000  0  9G17G10G09G30G02G04G12G05G25
 -36825553.01247 -28660668.35544  23419366.1254                   23419365.9024
 -29456946.65248 -22927764.05546  20930942.3594                   20930940.3324
 -14065049.51647 -10924628.97744  24011050.5084                   24011051.2774
  -5606870.92247  -4334649.37544  23174113.8524                   23174112.5164
 -34293938.22748 -26687222.31646  20635774.0634                   20635769.8014
 -34001343.19948 -26457127.88345  22044920.8834                   22044919.7624
 -23655602.36748 -18399780.46946  21207264.5944                   21207262.1994
 -19259936.70748 -14992738.39846  21623447.0004                   21623445.9614
  -3736620.69147  -2878032.09044  23726572.3674                   23726573.4964
 11  8 18  0 40 30.0000000  0  9G17G10G09G30G02G04G12G05G25
 -36805206.35947 -28644813.86744  23423238.7584                   23423237.0314
 -29478761.27048 -22944762.43446  20926790.7894                   20926789.1414
 -14019657.83246 -10889258.93444  24019688.0084                   24019689.2194
  -5732672.05947  -4432676.18444  23150174.5164                   23150173.9614
 -34323713.19148 -26710423.56646  20630108.0554                   20630103.6454
 -33957838.62548 -26423228.22345  22053199.6564                   22053198.3364
 -23741193.36748 -18466474.75446  21190977.3444                   21190974.4224
 -19378176.16047 -15084872.98846  21600947.0084                   21600945.6954
  -3867558.60247  -2980061.58644  23701655.3364                   23701657.4734
 11  8 18  0 41  0.0000000  0  9G17G10G09G30G02G04G12G05G25
 -36784665.88747 -28628808.33644  23427146.3594                   23427146.2774
 -29499921.14148 -22961250.63346  20922764.3134                   20922762.5944
 -13974150.73047 -10853798.96544  24028348.0554                   24028348.9224
  -5858105.04347  -4530416.10544  23126305.3754                   23126304.5864
 -34353198.28948 -26733398.95746  20624497.4304                   20624493.0744
 -33914213.05947 -26389234.29745  22061500.8444                   22061500.3484
 -23826278.76648 -18532775.06246  21174786.0474                   21174783.4024
 -19496021.17647 -15176700.21146  21578522.4924                   21578520.6174
  -3998237.04747  -3081888.89844  23676788.3524                   23676788.9454
 11  8 18  0 41 30.0000000  0  9G17G10G09G30G02G04G12G05G25
 -36763937.22347 -28612656.15644  23431091.9454                   23431090.9184
 -29520432.72748 -22977233.67646  20918861.0234                   20918859.1764
 -13928537.64547 -10818256.39844  24037027.6954                   24037028.8834
  -5983173.43447  -4627871.95744  23102505.4224                   23102504.8794
 -34382401.23448 -26756154.46546  20618939.9924                   20618935.5824
 -33870474.61347 -26355152.42645  22069824.1094                   22069823.2154
 -23910863.32848 -18598685.10946  21158690.3284                   21158687.4614
 -19613475.16447 -15268222.75046  21556171.2894                   21556169.9734
  -4128659.64147  -3183516.87544  23651969.6334                   23651970.2814
 11  8 18  0 42  0.0000000  0  9G17G10G09G30G02G04G12G05G25
 -36743026.24247 -28596361.91844  23435070.9844                   23435070.0164
 -29540303.06248 -22992717.05546  20915079.8754                   20915078.4144
 -13882828.51646 -10782638.98444  24045726.3444                   24045727.2234
  -6107880.93047  -4725046.58244  23078774.7034                   23078774.4264
 -34411329.48448 -26778695.94146  20613435.1884                   20613430.6214
 -33826631.66447 -26320989.10245  22078166.9454                   22078165.8634
 -23994951.41848 -18664208.30946  21142688.3054                   21142685.6764
 -19730542.78948 -15359444.21946  21533893.8914                   21533892.8094
  -4258830.24247  -3284948.43444  23627198.3674                   23627200.0314
 11  8 18  0 42 30.0000000  0  9G17G10G09G30G02G04G12G05G25
 -36721907.77347 -28579906.01244  23439089.6174                   23439088.6054
 -29559507.92248 -23007681.87146  20911425.2974                   20911423.4654
 -13837001.59846 -10746929.80944  24054446.1804                   24054447.4414
  -6232199.86347  -4821918.43744  23055117.4924                   23055116.8794
 -34439959.54748 -26801005.05946  20607987.1724                   20607982.6174
 -33782661.17247 -26286726.39845  22086534.7034                   22086533.8134
 -24078516.06248 -18729323.61746  21126786.4844                   21126784.1804
 -19847195.99648 -15450342.76646  21511695.7274                   21511693.9844
  -4388721.33247  -3386162.19144  23602481.4144                   23602483.0594
 11  8 18  0 43  0.0000000  0  9G17G10G09G30G02G04G12G05G25
 -36700581.96147 -28563288.55944  23443147.6884                   23443146.5554
 -29578048.49248 -23022129.06646  20907897.3284                   20907895.4144
 -13791061.03947 -10711132.07044  24063188.7034                   24063189.9144
  -6356128.16846  -4918485.90244  23031534.6884                   23031534.0784
 -34468293.21548 -26823083.21146  20602595.2584                   20602591.0864
 -33738565.40647 -26252366.09445  22094926.4224                   22094925.1214
 -24161555.87148 -18794029.95346  21110984.8134                   21110982.2584
 -19963432.85947 -15540916.89546  21489576.5314                   21489575.1604
  -4518330.84847  -3487156.52044  23577817.6954                   23577819.1454
 11  8 18  0 43 30.0000000  0  9G17G10G09G30G02G04G12G05G25
 -36679052.53947 -28546512.44544  23447244.6484                   23447243.9534
 -29595929.74248 -23036062.50046  20904494.5784                   20904492.9534
 -13745014.37546 -10675251.62543  24071950.9304                   24071952.1524
  -6479667.39547  -5014750.18044  23008026.0164                   23008025.1024
 -34496335.93448 -26844934.66846  20597259.0234                   20597254.6134
 -33694350.49247 -26217912.94945  22103339.7734                   22103338.8594
 -24244072.91448 -18858328.93746  21095282.4844                   21095279.3524
 -20079255.11348 -15631167.94946  21467536.6644                   21467534.7074
  -4647660.47347  -3587932.76244  23553206.6094                   23553207.7854
 11  8 18  0 44  0.0000000  0  9G17G10G09G30G02G04G12G05G25
 -36657306.82047 -28529567.77744  23451384.0634                   23451381.4844
 -29613139.89848 -23049473.00846  20901219.6024                   20901217.4654
 -13698852.78546 -10639281.67243  24080735.7114                   24080737.0744
  -6602802.59447  -5110699.64844  22984594.0634                   22984593.2894
 -34524077.14148 -26866551.18446  20591979.8754                   20591975.2344
 -33650005.95347 -26183358.78545  22111778.7584                   22111777.0314
 -24326053.59848 -18922209.98046  21079682.0784                   21079679.4844
 -20194647.85948 -15721084.31646  21445577.6724                   21445576.2274
  -4776695.44147  -3688479.43744  23528652.0234                   23528653.1414
 11  8 18  0 44 30.0000000  0  9G17G10G09G30G02G04G12G05G25
 -36635376.93747 -28512479.60944  23455556.1254                   23455554.4884
 -29629711.73448 -23062386.12546  20898066.0704                   20898064.1294
 -13652611.71546 -10603249.77743  24089535.2734                   24089536.2974
  -6725563.00447  -5206357.06644  22961233.0004                   22961232.4964
 -34551549.58248 -26887958.25846  20586752.0084                   20586747.8324
 -33605565.57847 -26148729.93745  22120234.7664                   22120234.1524
 -24407527.75448 -18985696.32846  21064177.9224                   21064175.2774
 -20309640.32448 -15810688.78146  21423695.4224                   21423693.5704
  -4905464.96547  -3788819.25844  23504147.8364                   23504149.2274
 11  8 18  0 45  0.0000000  0  9G17G10G09G30G02G04G12G05G25
 -36613255.10247 -28495241.84444  23459765.9694                   23459764.3984
 -29645638.89548 -23074796.88346  20895035.2974                   20895033.3554
 -13606287.18446 -10567152.85243  24098350.6334                   24098352.3364
  -6847938.71947  -5301714.71544  22937946.5234                   22937945.2344
 -34578747.35248 -26909151.32046  20581576.7734                   20581572.2034
 -33561023.95747 -26114022.21145  22128710.9844                   22128709.8244
 -24488486.54748 -19048781.10246  21048771.8054                   21048769.6094
 -20424223.03148 -15899973.95746  21401890.8364                   21401889.0124
  -5033959.33247  -3888944.66044  23479696.7504                   23479697.6174
 11  8 18  0 45 30.0000000  0  9G17G10G09G30G02G04G12G05G25
 -36590927.17247 -28477843.49644  23464014.9694                   23464013.5744
 -29660908.55548 -23086695.31646  20892129.6414                   20892128.0944
 -13559868.98046 -10530982.93443  24107183.2664                   24107184.7384
  -6969913.66047  -5396760.08644  22914735.4534                   22914734.2304
 -34605658.96548 -26930121.39846  20576455.6094                   20576451.3914
 -33516369.51647 -26079226.59045  22137208.2424                   22137207.2344
 -24568914.52048 -19111452.23046  21033467.0004                   21033464.8244
 -20538380.04348 -15988927.42646  21380167.7114                   21380165.5744
  -5162162.50847  -3988843.18744  23455299.6804                   23455300.8754
 11  8 18  0 46  0.0000000  0  9G17G10G09G30G02G04G12G05G25
 -36568399.28946 -28460289.36744  23468301.1484                   23468300.6954
 -29675527.71548 -23098086.85546  20889347.6094                   20889345.3204
 -13513366.64546 -10494747.44544  24116032.8444                   24116034.1994
  -7091491.33247  -5491495.88344  22891599.6254                   22891598.1094
 -34632291.30548 -26950873.86346  20571387.7584                   20571383.0634
 -33471610.14547 -26044349.20745  22145726.4694                   22145725.2854
 -24648816.04348 -19173713.14146  21018262.3284                   21018259.5904
 -20652114.89548 -16077551.93046  21358524.1644                   21358522.9884
  -5290078.12947  -4088517.63744  23430958.8054                   23430959.5004
 11  8 18  0 46 30.0000000  0  9G17G10G09G30G02G04G12G05G25
 -36545669.88747 -28442578.18744  23472626.5554                   23472626.1374
 -29689495.74248 -23108971.02346  20886689.4454                   20886687.7544
 -13466782.41846 -10458448.14843  24124897.6724                   24124899.4184
  -7212667.87947  -5585919.10944  22868540.4534                   22868539.0354
 -34658644.50448 -26971408.81646  20566372.7504                   20566368.1094
 -33426746.47747 -26009390.54345  22154262.8524                   22154262.5704
 -24728188.23048 -19235561.58246  21003157.9844                   21003155.4064
 -20765424.06648 -16165844.74646  21336962.2034                   21336960.5314
  -5417702.35947  -4187965.02044  23406672.7814                   23406673.6054
 11  8 18  0 47  0.0000000  0  9G17G10G09G30G02G04G12G05G25
 -36522735.23047 -28424707.09844  23476991.3364                   23476990.6054
 -29702810.32848 -23119346.01646  20884155.5704                   20884154.2584
 -13420116.43746 -10422085.14844  24133777.9844                   24133779.3634
  -7333437.41047  -5680025.18744  22845558.9844                   22845557.4924
 -34684716.69948 -26991724.79746  20561411.1564                   20561406.9104
 -33381776.73447 -25974349.23445  22162820.6564                   22162819.8324
 -24807025.86348 -19296993.48046  20988155.6954                   20988153.1174
 -20878301.58248 -16253801.19146  21315482.8204                   21315480.4494
  -5545029.34047  -4287180.78144  23382442.6884                   23382443.6214
 11  8 18  0 47 30.0000000  0  9G17G10G09G30G02G04G12G05G25
 -36499591.19547 -28406672.83644  23481395.6254                   23481395.2154
 -29715468.53948 -23129209.54346  20881746.8284                   20881745.3794
 -13373368.18747 -10385658.07443  24142674.1094                   24142675.0234
  -7453793.34447  -5773808.95344  22822655.7974                   22822654.5434
 -34710505.18748 -27011819.71146  20556504.0944                   20556499.5394
 -33336699.15247 -25939223.86345  22171398.6414                   22171397.8054
 -24885323.42248 -19358004.54746  20973256.2194                   20973253.6334
 -20990741.11748 -16341416.37146  21294085.7734                   21294084.3204
  -5672052.59447  -4386159.86744  23358271.7034                   23358272.3014
 11  8 18  0 48  0.0000000  0  9G17G10G09G30G02G04G12G05G25
 -36476248.44547 -28388483.71544  23485837.2424                   23485837.3714
 -29727482.31648 -23138570.91046  20879460.8754                   20879459.1454
 -13326551.69147 -10349177.81643  24151582.9924                   24151583.9264
  -7573743.84847  -5867276.83644  22799829.3754                   22799827.9104
 -34736022.12148 -27031703.02746  20551648.3674                   20551643.7624
 -33291526.01647 -25904024.03545  22179995.1644                   22179994.1724
 -24963089.68748 -19418601.61746  20958457.9534                   20958455.2974
 -21102751.01648 -16428696.76246  21272771.2814                   21272769.1454
  -5798780.33247  -4484908.71144  23334155.7974                   23334156.0824
 11  8 18  0 48 30.0000000  0  9G17G10G09G30G02G04G12G05G25
 -36452703.49647 -28370137.02744  23490318.1724                   23490317.4774
 -29738848.87948 -23147427.96546  20877297.9534                   20877296.4694
 -13279667.50846 -10312644.77043  24160505.3914                   24160505.5394
  -7693283.35947  -5960424.44944  22777082.5554                   22777080.8284
 -34761265.83248 -27051373.44946  20546844.5314                   20546840.4184
 -33246256.29347 -25868748.96945  22188609.9384                   22188608.0514
 -25040320.12948 -19478781.16046  20943761.3524                   20943758.6254
 -21214325.88348 -16515638.17646  21251538.9304                   21251537.4144
  -5925207.01247  -4583422.92644  23310096.7814                   23310098.5474
 11  8 18  0 49  0.0000000  0  9G17G10G09G30G02G04G12G05G25
 -36428962.68047 -28351637.73044  23494835.6484                   23494835.0784
 -29749576.58248 -23155787.20346  20875256.3204                   20875254.8834
 -13232725.35246 -10276066.56643  24169437.6254                   24169439.2544
  -7812416.00847  -6053255.02044  22754411.6804                   22754410.0824
 -34786244.60948 -27070837.42646  20542090.8594                   20542086.6134
 -33200898.24647 -25833405.03945  22197240.9694                   22197239.6094
 -25117019.94548 -19538547.23046  20929165.9384                   20929162.9804
 -21325470.10948 -16602244.02046  21230388.9774                   21230387.2464
  -6051336.76647  -4681705.79744  23286095.7734                   23286095.9454
 11  8 18  0 49 30.0000000  0  9G17G10G09G30G02G04G12G05G25
 -36405014.30947 -28332976.68444  23499392.2664                   23499393.1094
 -29759654.89848 -23163640.42646  20873338.7734                   20873336.6524
 -13185717.01246 -10239436.80543  24178383.3524                   24178384.3244
  -7931127.68047  -6145757.53544  22731821.9144                   22731820.6254
 -34810948.05148 -27090086.85946  20537390.1724                   20537385.8634
 -33155442.07447 -25797984.70745  22205890.2424                   22205889.7274
 -25193175.50448 -19597889.20346  20914674.2194                   20914671.3594
 -21436169.59048 -16688503.31646  21209323.5004                   21209321.6254
  -6177155.52747  -4779746.33644  23262152.9064                   23262153.9964
 11  8 18  0 50  0.0000000  0  9G17G10G09G30G02G04G12G05G25
 -36380855.03947 -28314151.32844  23503990.1254                   23503989.9574
 -29769081.84448 -23170986.08246  20871544.7274                   20871543.0314
 -13138643.19546 -10202755.98443  24187340.9924                   24187342.4614
  -8049412.96147  -6237927.82444  22709312.3754                   22709311.5394
 -34835374.90248 -27109120.77346  20532742.0944                   20532737.3444
 -33109887.02747 -25762487.30145  22214558.8674                   22214558.4574
 -25268783.01648 -19656804.12146  20900286.1564                   20900283.4494
 -21546419.34448 -16774412.17246  21188343.4924                   21188341.9384
  -6302657.90647  -4877540.31244  23238270.3364                   23238271.3524
 11  8 18  0 50 30.0000000  0  9G17G10G09G30G02G04G12G05G25
 -36356486.52347 -28295162.92244  23508627.5634                   23508627.7774
 -29777859.64148 -23177825.91846  20869874.2504                   20869872.4574
 -13091508.48846 -10166027.74243  24196310.6094                   24196311.7664
  -8167270.48047  -6329764.79344  22686885.6954                   22686884.0944
 -34859527.32048 -27127940.84046  20528145.8284                   20528141.6764
 -33064235.78947 -25726914.92645  22223246.6644                   22223245.8204
 -25343841.85948 -19715291.51646  20886003.4614                   20886000.3204
 -21656218.32448 -16859969.77346  21167449.6024                   21167447.8834
  -6427842.73447  -4975086.85944  23214449.0314                   23214449.5984
 11  8 18  0 51  0.0000000  0  9G17G10G09G30G02G04G12G05G25
 -36331909.30147 -28276011.87144  23513304.0164                   23513304.5554
 -29785990.63748 -23184161.74646  20868326.7894                   20868325.1994
 -13044316.96146 -10129255.21143  24205291.2114                   24205292.4304
  -8284698.56247  -6421267.13744  22664538.8594                   22664537.3714
 -34883407.62548 -27146548.87146  20523601.7114                   20523597.1524
 -33018490.99647 -25691269.68045  22231951.7274                   22231951.2624
 -25418351.35248 -19773350.84446  20871824.3914                   20871821.7304
 -21765564.71148 -16945174.70746  21146641.7424                   21146639.9964
  -6552708.12547  -5072384.50844  23190687.4844                   23190687.8524
 11  8 18  0 51 30.0000000  0  9G17G10G09G30G02G04G12G05G25
 -36307121.64847 -28256696.82844  23518021.2034                   23518020.7194
 -29793474.51648 -23189993.32846  20866902.8754                   20866901.0314
 -12997070.93747 -10092440.21143  24214282.0554                   24214283.2424
  -8401693.58247  -6512432.02344  22642275.4614                   22642274.2274
 -34907016.16448 -27164945.14146  20519108.8524                   20519104.3484
 -32972653.24647 -25655551.96545  22240674.8674                   22240674.0044
 -25492308.62948 -19830979.87546  20857750.8054                   20857747.8204
 -21874455.24648 -17030024.43446  21125920.4694                   21125918.5904
  -6677250.55947  -5169430.51245  23166988.5084                   23166989.1024
 11  8 18  0 52  0.0000000  0  9G17G10G09G30G02G04G12G05G25
 -34706703.03547 -27009617.41044  23822570.6094                   23822569.6524
 -28224891.01248 -21967720.45346  21165394.3284                   21165392.4654
 -11374354.00847  -8827985.54743  24523074.7814                   24523075.2464
  -6942827.98447  -5375653.55944  22919888.3594                   22919887.0984
 -33354932.21548 -25955529.07446  20814460.8674                   20814456.4964
 -31351304.76647 -24392163.56245  22549206.5704                   22549206.1684
 -23990288.33248 -18660574.42646  21143575.7194                   21143573.1294
 -20407462.73448 -15886913.34046  21405079.7424                   21405078.0004
  -5226042.20747  -4038618.76244  23443143.7194                   23443143.9774
 11  8 18  0 52 30.0000000  0  9G17G10G09G30G02G04G12G05G25
 -34681487.02347 -26989968.55544  23827369.4224                   23827368.6294
 -28231077.45748 -21972541.04346  21164217.5234                   21164215.3634
 -11327001.96147  -8791087.89543  24532085.1484                   24532086.9494
  -7058942.43747  -5466132.30944  22897793.1174                   22897791.2624
 -33377994.43048 -25973499.62546  20810072.2584                   20810068.0314
 -31305279.53947 -24356299.79345  22557965.0554                   22557964.6024
 -24063129.94148 -18717334.10546  21129714.3054                   21129711.7894
 -20515427.75048 -15971041.88346  21384534.9924                   21384532.8324
  -5349924.23047  -4135150.16445  23419570.0474                   23419570.3634
 11  8 18  0 53  0.0000000  0  9G17G10G09G30G02G04G12G05G25
 -34656070.78547 -26970163.71944  23832206.5164                   23832204.8324
 -28236631.44548 -21976868.82046  21163160.5634                   21163158.6644
 -11279616.32846  -8754164.10943  24541102.0004                   24541103.8714
  -7174627.18447  -5556276.22744  22875778.6024                   22875777.8094
 -33400799.70748 -25991269.97746  20805732.6414                   20805728.4184
 -31259177.50447 -24320376.14845  22566738.5234                   22566737.0904
 -24135425.46148 -18773668.26246  21115956.8674                   21115954.0864
 -20622941.02048 -16054818.41046  21364075.6094                   21364073.8054
  -5473486.59847  -4231432.48845  23396057.0784                   23396057.3874
 11  8 18  0 53 30.0000000  0  9G17G10G09G30G02G04G12G05G25
 -34630449.85547 -26950199.37144  23837081.5784                   23837081.1844
 -28241549.62548 -21980701.15646  21162224.4844                   21162222.4304
 -11232195.67646  -8717213.06643  24550126.3054                   24550127.9534
  -7289875.27747  -5646079.89144  22853847.3914                   22853846.6024
 -33423344.95348 -26008837.69546  20801442.0474                   20801437.9304
 -31212995.83247 -24284390.43445  22575525.9694                   22575524.4384
 -24207169.00848 -18829572.31646  21102304.7584                   21102302.1134
 -20729995.53948 -16138237.48446  21343703.7344                   21343701.8954
  -5596722.26647  -4327460.23045  23372605.8524                   23372606.2974
 11  8 18  0 54  0.0000000  0  9G17G10G09G30G02G04G12G05G25
 -34604627.07047 -26930077.71944  23841995.6644                   23841995.9574
 -28245836.66848 -21984041.70346  21161408.3834                   21161406.3754
 -11184746.68446  -8680239.97343  24559155.8054                   24559157.7774
  -7404687.28147  -5735543.73044  22831999.6414                   22831998.3834
 -33445634.63748 -26026206.28546  20797201.0474                   20797196.3014
 -31166739.24247 -24248346.33245  22584328.9224                   22584327.5744
 -24278362.55948 -18885047.79346  21088757.0084                   21088754.2934
 -20836592.24648 -16221299.80146  21323418.9224                   21323417.6174
  -5719631.83247  -4423233.85944  23349217.0084                   23349217.2464
 11  8 18  0 54 30.0000000  0  9G17G10G09G30G02G04G12G05G25
 -34578599.40247 -26909796.41444  23846948.3364                   23846948.5984
 -28249490.87148 -21986889.12546  21160713.1954                   21160711.2894
 -11137269.50046  -8643244.87143  24568190.3204                   24568192.0234
  -7519057.66847  -5824663.46945  22810236.5554                   22810234.6564
 -33467667.43048 -26043374.70346  20793007.9064                   20793003.9614
 -31120406.42247 -24212242.86344  22593145.3134                   22593144.8014
 -24349001.48048 -18940091.10546  21075314.8204                   21075312.1764
 -20942726.03148 -16304001.41446  21303222.4224                   21303220.2854
  -5842209.90247  -4518749.18744  23325891.1804                   23325891.3984
 11  8 18  0 55  0.0000000  0  9G17G10G09G30G02G04G12G05G25
 -34552370.94946 -26889358.67244  23851939.4384                   23851939.5004
 -28252517.60948 -21989247.60246  21160137.1804                   21160135.3094
 -11089772.07046  -8606233.99643  24577229.0394                   24577230.4414
  -7632988.66847  -5913440.83645  22788555.3204                   22788554.4574
 -33489449.00048 -26060347.35946  20788863.0234                   20788858.6524
 -31074003.53947 -24176084.78944  22601975.7974                   22601974.4734
 -24419088.90248 -18994704.67246  21061977.8364                   21061974.7274
 -21048399.52048 -16386344.35546  21283113.4384                   21283111.5474
  -5964458.41047  -4614007.71545  23302627.8054                   23302627.6484
 11  8 18  0 55 30.0000000  0  9G17G10G09G30G02G04G12G05G25
 -34525925.44946 -26868751.80544  23856972.5784                   23856971.2544
 -28254902.28548 -21991105.77346  21159683.4924                   21159681.7774
 -11042241.41046  -8569197.24643  24586274.2814                   24586275.3554
  -7746461.39847  -6001861.08244  22766961.7814                   22766960.7274
 -33510964.37948 -26077112.59846  20784768.8754                   20784764.6884
 -31027516.10547 -24139860.82844  22610822.1564                   22610820.7854
 -24488607.02348 -19048874.62546  21048748.9534                   21048746.0394
 -21153593.61348 -16468313.74246  21263095.6564                   21263094.0124
  -6086358.57447  -4708994.80544  23279430.4924                   23279431.3244
 11  8 18  0 56  0.0000000  0  9G17G10G09G30G02G04G12G05G25
 -34499281.24246 -26847990.07043  23862042.0004                   23862041.6524
 -28256664.52748 -21992478.94946  21159348.1954                   21159346.2974
 -10994699.02346  -8532151.36343  24595321.1884                   24595322.9064
  -7859491.67247  -6089936.55944  22745453.2194                   22745451.4414
 -33532233.30948 -26093685.79346  20780721.4144                   20780717.1484
 -30980963.86747 -24103586.36744  22619680.2424                   22619679.2814
 -24557572.89148 -19102614.26646  21035625.0394                   21035622.4454
 -21258324.63348 -16549922.27746  21243166.0394                   21243164.3984
  -6207926.16047  -4803722.73044  23256297.1174                   23256298.1214
 11  8 18  0 56 30.0000000  0  9G17G10G09G30G02G04G12G05G25
 -34472415.10246 -26827055.42244  23867153.9144                   23867154.4414
 -28257783.30148 -21993350.70746  21159135.1954                   21159133.5204
 -10947125.49646  -8495081.22743  24604373.7344                   24604375.7814
  -7972054.49247  -6177647.81644  22724032.7034                   22724031.7624
 -33553234.05148 -26110050.01246  20776725.5554                   20776720.6764
 -30934325.79347 -24067245.01645  22628555.3834                   22628554.0164
 -24625962.36748 -19155904.76246  21022610.9694                   21022608.3984
 -21362568.01648 -16631150.85546  21223329.1024                   21223327.1054
  -6329136.07447  -4898171.94544  23233231.6094                   23233232.2074
 11  8 18  0 57  0.0000000  0  9G17G10G09G30G02G04G12G05G25
 -34445346.54746 -26805963.05144  23872305.9614                   23872305.1994
 -28258279.75848 -21993737.54346  21159040.4384                   21159039.1094
 -10899543.68446  -8458004.64543  24613428.1564                   24613430.3054
  -8084167.11347  -6265008.25445  22702698.8364                   22702697.5084
 -33573988.43748 -26126222.26646  20772775.8594                   20772771.5944
 -30887623.30147 -24030853.45344  22637442.2584                   22637441.4224
 -24693793.91848 -19208760.51646  21009703.0084                   21009700.0784
 -21466340.98448 -16712012.87146  21203581.5164                   21203579.5944
  -6450005.47747  -4992355.82445  23210230.9144                   23210231.1484
 11  8 18  0 57 30.0000000  0  9G17G10G09G30G02G04G12G05G25
 -34418069.14546 -26784707.94144  23877495.5944                   23877495.4454
 -28258148.73848 -21993635.44546  21159065.5004                   21159063.8954
 -10851950.30546  -8420919.02343  24622485.2974                   24622487.0084
  -8195820.50847  -6352010.85944  22681451.3984                   22681450.1374
 -33594490.85248 -26142198.18446  20768874.4844                   20768869.6954
 -30840851.42647 -23994407.85544  22646342.9694                   22646341.9654
 -24761059.78548 -19261175.47746  20996902.8204                   20996900.0984
 -21569634.83248 -16792501.55146  21183925.7034                   21183923.7624
  -6570525.35947  -5086267.35545  23187296.7734                   23187297.2504
 11  8 18  0 58  0.0000000  0  9G17G10G09G30G02G04G12G05G25
 -34390578.11746 -26763286.39144  23882727.4384                   23882727.8204
 -28257387.05548 -21993041.90646  21159210.6724                   21159208.9414
 -10804344.21546  -8383823.50443  24631545.5394                   24631546.3444
  -8307007.78547  -6438650.23444  22660292.8364                   22660291.8634
 -33614738.04748 -26157975.21546  20765021.5164                   20765017.0784
 -30794007.42647 -23957906.03545  22655257.2974                   22655255.8284
 -24827753.73048 -19313144.78146  20984211.2734                   20984208.3834
 -21672443.08248 -16872611.83646  21164361.6484                   21164360.0634
  -6690688.68447  -5179901.04345  23164430.3054                   23164430.2854
 11  8 18  0 58 30.0000000  0  9G17G10G09G30G02G04G12G05G25
 -34362890.54746 -26741711.70344  23887996.2424                   23887996.2234
 -28256013.47748 -21991971.59046  21159472.1564                   21159470.4264
 -10756746.11346  -8346734.23043  24640601.8444                   24640604.3134
  -8417744.02347  -6524938.18044  22639221.4844                   22639219.2894
 -33634748.89548 -26173568.08246  20761213.6804                   20761209.2974
 -30747109.97747 -23921362.57444  22664181.3284                   22664180.5164
 -24893892.22348 -19364681.27046  20971625.3134                   20971622.9184
 -21774780.99248 -16952355.62146  21144887.3134                   21144885.3484
  -6810510.40247  -5273268.56645  23141628.3054                   23141628.9304
 11  8 18  0 59  0.0000000  0  9G17G10G09G30G02G04G12G05G25
 -34334997.07446 -26719976.57444  23893304.6094                   23893304.3014
 -28254020.13748 -21990418.31646  21159851.4384                   21159849.2234
 -10709149.29746  -8309646.01643  24649660.1174                   24649661.6994
  -8528016.99647  -6610865.13344  22618236.9454                   22618234.7304
 -33654514.93748 -26188970.19146  20757452.3594                   20757447.5004
 -30700151.08647 -23884771.24645  22673117.8674                   22673116.1844
 -24959464.07848 -19415776.22346  20959147.9844                   20959145.0204
 -21876636.71148 -17031723.68046  21125505.0944                   21125502.8674
  -6929978.27747  -5366360.34444  23118895.0554                   23118895.4774
 11  8 18  0 59 30.0000000  0  9G17G10G09G30G02G04G12G05G25
 -34306890.71946 -26698075.56244  23898653.1884                   23898652.7974
 -28251402.08248 -21988378.26246  21160349.5474                   21160347.5354
 -10661550.57446  -8272556.23043  24658717.4774                   24658719.4734
  -8637817.82847  -6696424.19144  22597342.5314                   22597340.7464
 -33674030.91848 -26204177.43746  20753738.4144                   20753734.1214
 -30653125.78147 -23848128.15244  22682066.1024                   22682064.5744
 -25024461.66448 -19466423.70346  20946779.1414                   20946776.2114
 -21978001.77348 -17110709.40646  21106215.3284                   21106213.9614
  -7049083.25447  -5459169.34045  23096229.8674                   23096230.8094
 11  8 18  1  0  0.0000000  0  9G17G10G09G30G02G04G12G05G25
 -34278562.24646 -26676001.46144  23904043.2894                   23904043.7234
 -28248152.10948 -21985845.79746  21160968.3914                   21160966.0634
 -10613944.10946  -8235460.38743  24667776.6174                   24667779.2074
  -8747135.18047  -6781606.50044  22576539.6094                   22576538.3204
 -33693289.56248 -26219184.16846  20750073.6094                   20750069.4384
 -30606026.66047 -23811427.55944  22691028.7504                   22691027.4304
 -25088874.60948 -19516615.60246  20934521.5004                   20934518.8484
 -22078864.94948 -17189304.04746  21087022.0704                   21087020.3634
  -7167813.98447  -5551686.71945  23073636.3054                   23073636.6604
 11  8 18  1  0 30.0000000  0  9G17G10G09G30G02G04G12G05G25
 -34250026.70746 -26653765.98844  23909473.7424                   23909474.3874
 -28244286.44548 -21982833.58246  21161703.4924                   21161701.6604
 -10566348.03146  -8198372.62143  24676835.7894                   24676836.8754
  -8855981.66047  -6866421.91044  22555826.9534                   22555825.4964
 -33712307.05148 -26234002.98046  20746454.8284                   20746450.4844
 -30558870.34047 -23774682.38344  22700002.5084                   22700000.4184
 -25152716.75448 -19566362.73046  20922372.9694                   20922370.0434
 -22179239.33648 -17267517.81646  21067921.5474                   21067919.5634
  -7286182.93747  -5643922.21145  23051111.5234                   23051111.0634
 11  8 18  1  1  0.0000000  0  9G17G10G09G30G02G04G12G05G25
 -34221282.27346 -26631367.71944  23914943.5944                   23914943.0234
 -28239805.06648 -21979341.59046  21162556.1174                   21162553.9734
 -10518763.73846  -8161294.12143  24685889.6484                   24685892.0234
  -8964353.04747  -6950867.11744  22535204.9774                   22535203.0744
 -33731082.60548 -26248633.27746  20742881.8834                   20742877.7034
 -30511656.25447 -23737892.21144  22708986.6564                   22708985.5084
 -25215985.14848 -19615662.77346  20910333.4774                   20910330.8634
 -22279120.79348 -17345347.48446  21048914.5634                   21048912.4304
  -7404185.73847  -5735872.39845  23028656.4534                   23028656.9024
 11  8 18  1  1 30.0000000  0  9G17G10G09G30G02G04G12G05G25
 -34192333.66047 -26608810.39144  23920452.8524                   23920451.5474
 -28234714.39848 -21975374.82046  21163525.1094                   21163523.0514
 -10471199.39546  -8124231.11743  24694940.8134                   24694942.8484
  -9072251.93747  -7034944.14544  22514671.7504                   22514670.1414
 -33749622.75448 -26263080.14546  20739353.8444                   20739349.2384
 -30464390.84847 -23701062.02744  22717981.4844                   22717980.3014
 -25278683.03548 -19664518.27346  20898402.1804                   20898399.6684
 -22378512.37548 -17422795.43446  21030000.8054                   21029998.9344
  -7521824.89147  -5827539.21545  23006269.9694                   23006270.3324
 11  8 18  1  2  0.0000000  0  9G17G10G09G30G02G04G12G05G25
 -34163175.58647 -26586089.82844  23926001.0704                   23926000.6524
 -28229011.20348 -21970930.75846  21164610.4304                   21164608.1994
 -10423653.30546  -8087182.41843  24703988.5634                   24703990.8754
  -9179671.22747  -7118647.44545  22494230.5944                   22494229.5474
 -33767924.08648 -26277340.91046  20735871.2584                   20735866.8324
 -30417071.12947 -23664189.53544  22726985.8754                   22726984.8754
 -25340804.91048 -19712924.92246  20886580.9614                   20886578.5314
 -22477407.18748 -17499856.28946  21011181.7194                   21011179.8984
  -7639093.06247  -5918916.96545  22983954.4454                   22983954.6334
 11  8 18  1  2 30.0000000  0  9G17G10G09G30G02G04G12G05G25
 -34133807.29347 -26563205.43744  23931589.5394                   23931589.0314
 -28222696.57048 -21966010.26646  21165812.0474                   21165809.1804
 -10376127.76646  -8050149.69143  24713032.8364                   24713034.5704
  -9286607.65647  -7201974.50045  22473881.5234                   22473880.7664
 -33785986.62948 -26291415.60946  20732434.0944                   20732429.6524
 -30369697.34047 -23627274.90245  22736000.8754                   22736000.1414
 -25402349.15648 -19760881.46946  20874869.3134                   20874866.3984
 -22575802.24648 -17576527.73846  20992457.7664                   20992455.8794
  -7755986.91847  -6010003.05145  22961710.5944                   22961711.1994
 11  8 18  1  3  0.0000000  0  9G17G10G09G30G02G04G12G05G25
 -34104231.48046 -26540159.31644  23937217.6564                   23937217.9144
 -28215774.62948 -21960616.53946  21167129.1564                   21167126.9064
 -10328628.05546  -8013137.07843  24722071.9224                   24722073.3874
  -9393061.35547  -7284925.41845  22453624.3674                   22453622.8834
 -33803814.31248 -26305307.30546  20729041.3594                   20729037.1134
 -30322273.54747 -23590321.32045  22745026.2344                   22745024.7504
 -25463316.31648 -19808388.33246  20863267.7814                   20863265.0084
 -22673698.39548 -17652810.41846  20973828.9534                   20973826.7624
  -7872506.50047  -6100797.49245  22939537.5234                   22939537.6644
 11  8 18  1  3 30.0000000  0  9G17G10G09G30G02G04G12G05G25
 -34074445.82847 -26516949.70744  23942885.1564                   23942885.9884
 -28208245.29348 -21954749.52346  21168561.6484                   21168559.6804
 -10281155.68046  -7976145.82043  24731105.2114                   24731107.8834
  -9499028.10947  -7367496.90645  22433459.3594                   22433458.2464
 -33821406.66448 -26319015.61346  20725693.4304                   20725689.4694
 -30274799.27047 -23553328.38744  22754059.5554                   22754058.1374
 -25523703.74248 -19855443.45746  20851776.4144                   20851773.5434
 -22771091.53548 -17728701.14546  20955295.5084                   20955293.5664
  -7988647.35947  -6191296.82045  22917436.5314                   22917436.3634
 11  8 18  1  4  0.0000000  0  9G17G10G09G30G02G04G12G05G25
 -34044451.18447 -26493577.30144  23948594.4614                   23948593.0004
 -28200111.12548 -21948411.19145  21170109.7344                   21170107.6804
 -10233714.66046  -7939178.90643  24740133.3594                   24740135.2384
  -9604506.57447  -7449687.89145  22413387.6484                   22413385.8874
 -33838765.85548 -26332542.25046  20722390.1094                   20722385.6954
 -30227277.04347 -23516298.08244  22763102.2584                   22763101.5084
 -25583511.36748 -19902046.79346  20840395.1954                   20840392.6374
 -22867980.60248 -17804199.08646  20936858.1024                   20936856.1374
  -8104407.98847  -6281499.87545  22895407.2504                   22895408.0234
 11  8 18  1  4 30.0000000  0  9G17G10G09G30G02G04G12G05G25
 -34014243.97746 -26470039.19944  23954341.8984                   23954340.8364
 -28191370.14548 -21941600.03545  21171772.9844                   21171770.9494
 -10186304.16446  -7902235.84443  24749155.1724                   24749158.2774
  -9709490.69947  -7531493.70745  22393409.5634                   22393407.6094
 -33855889.43448 -26345885.27746  20719131.6484                   20719127.4654
 -30179704.31247 -23479228.44944  22772155.0084                   22772154.3364
 -25642734.38348 -19948194.58646  20829125.5394                   20829122.9884
 -22964359.62948 -17879299.58646  20918517.5864                   20918515.5434
  -8219782.19947  -6371401.85545  22873452.7974                   22873452.6134
 11  8 18  1  5  0.0000000  0  9G17G10G09G30G02G04G12G05G25
 -33983830.28946 -26446340.25044  23960129.0084                   23960129.3914
 -28182030.26648 -21934322.19546  21173550.4844                   21173548.5314
 -10138933.64846  -7865323.94543  24758170.3444                   24758172.4304
  -9813984.52747  -7612917.45745  22373525.2504                   22373523.5784
 -33872785.13748 -26359050.76246  20715917.0704                   20715912.6134
 -30132089.03547 -23442125.65244  22781215.7504                   22781215.1414
 -25701378.08248 -19993890.95746  20817966.1564                   20817963.1884
 -23060233.69148 -17954006.62146  20900273.3834                   20900271.1374
  -8334773.85247  -6461005.73045  22851570.7584                   22851571.0704
 11  8 18  1  5 30.0000000  0  9G17G10G09G30G02G04G12G05G25
 -33953212.55147 -26422482.27744  23965955.9614                   23965956.2234
 -28172096.18748 -21926581.34046  21175440.6254                   21175438.6054
 -10091608.72347  -7828447.57443  24767176.2344                   24767178.6764
  -9917988.38347  -7693959.41445  22353733.6884                   22353732.1724
 -33889456.55948 -26372041.46546  20712744.2504                   20712740.0824
 -30084434.89147 -23404992.59044  22790284.2734                   22790283.2734
 -25759443.43448 -20039136.68046  20806916.5084                   20806913.6214
 -23155603.23848 -18028320.51646  20882125.0164                   20882123.1454
  -8449383.07047  -6550311.60245  22829761.0704                   22829761.2934
 11  8 18  1  6  0.0000000  0  9G17G10G09G30G02G04G12G05G25
 -33922381.44146 -26398458.07044  23971822.7894                   23971822.5634
 -28161560.33248 -21918371.57845  21177445.7734                   21177443.5824
 -10044323.39546  -7791602.06243  24776174.0784                   24776177.1564
 -10021490.66847  -7774610.52345  22334037.7114                   22334036.0634
 -33905895.82848 -26384851.27346  20709615.9224                   20709611.6644
 -30036734.26647 -23367823.28944  22799362.1644                   22799360.9534
 -25816920.70748 -20083924.15246  20795978.8364                   20795976.0904
 -23250456.82048 -18102232.37146  20864075.2584                   20864073.5514
  -8563598.05547  -6639310.28545  22808027.1024                   22808027.5474
 11  8 18  1  6 30.0000000  0  9G17G10G09G30G02G04G12G05G25
 -33891348.91446 -26374276.90644  23977727.9144                   23977727.7774
 -28150436.71148 -21909703.80946  21179562.4774                   21179560.2734
  -9997092.57846  -7754799.02743  24785161.8594                   24785164.0314
 -10124501.14847  -7854878.40645  22314435.6954                   22314434.4064
 -33922116.39548 -26397490.66846  20706528.9924                   20706524.8484
 -29989000.48847 -23330628.15644  22808444.8364                   22808443.9844
 -25873821.01648 -20128262.04746  20785151.1334                   20785148.6024
 -23344804.62948 -18175750.10946  20846121.2194                   20846119.4964
  -8677428.44947  -6728009.27345  22786365.5944                   22786366.2274
 11  8 18  1  7  0.0000000  0  9G17G10G09G30G02G04G12G05G25
 -33860104.83246 -26349930.88743  23983673.4844                   23983673.6484
 -28138716.92248 -21900571.49246  21181792.7194                   21181791.0314
  -9949909.31646  -7718033.05543  24794140.4534                   24794143.0004
 -10227007.61747  -7934753.55945  22294928.8914                   22294927.6484
 -33938109.32848 -26409952.68446  20703485.6564                   20703481.6414
 -29941224.86347 -23293400.41444  22817536.3594                   22817535.9414
 -25930133.25048 -20172141.69546  20774435.1644                   20774432.8554
 -23438634.92248 -18248864.59446  20828266.3444                   20828263.9614
  -8790861.74247  -6816398.88345  22764780.3834                   22764780.4964
 11  8 18  1  7 30.0000000  0  9G17G10G09G30G02G04G12G05G25
 -33828647.14846 -26325418.39843  23989659.6414                   23989659.2384
 -28126401.15248 -21890974.77746  21184136.4774                   21184134.7424
  -9902774.62946  -7681304.92243  24803109.3984                   24803112.4804
 -10329005.93047  -8014232.73845  22275519.6884                   22275518.4304
 -33953874.07048 -26422236.88746  20700485.7344                   20700481.6484
 -29893406.80947 -23256139.59844  22826636.0394                   22826634.3404
 -25985854.32448 -20215560.70346  20763831.9224                   20763829.2974
 -23531943.87148 -18321572.82846  20810509.7034                   20810507.4534
  -8903893.59047  -6904475.63345  22743270.6564                   22743272.0634
 11  8 18  1  8  0.0000000  0  8G17G10G30G02G04G12G05G25
 -33796976.43046 -26300739.94543  23995686.2424                   23995685.9184
 -28113491.81248 -21880915.53546  21186592.8524                   21186591.0314
 -10430494.44147  -8093314.66845  22256206.7664                   22256205.8164
 -33969412.39548 -26434344.66846  20697529.0784                   20697524.7424
 -29845548.33247 -23218847.28544  22835743.0004                   22835741.7464
 -26040984.14848 -20258519.01246  20753341.0554                   20753338.3634
 -23624730.14548 -18393873.78946  20792853.2504                   20792851.2624
  -9016522.16047  -6992238.16445  22721838.4774                   22721839.1254
 11  8 18  1  8 30.0000000  0  8G17G10G30G02G04G12G05G25
 -33765107.87946 -26275907.32043  24001750.8984                   24001749.4264
 -28100005.75848 -21870406.91846  21189158.7814                   21189156.8554
 -10531485.90647  -8172009.26645  22236989.1024                   22236987.2274
 -33984740.48048 -26446288.62946  20694612.3674                   20694608.2974
 -29797665.63747 -23181536.10544  22844854.6174                   22844853.6564
 -26095536.59048 -20301027.39846  20742960.0314                   20742957.6374
 -23717006.98048 -18465777.78146  20775293.7584                   20775291.3404
  -9128759.87947  -7079696.10245  22700480.5084                   22700480.7464
 11  8 18  1  9  0.0000000  0  8G17G10G30G02G04G12G05G25
 -33733020.11346 -26250903.91043  24007857.3834                   24007855.0864
 -28085923.85948 -21859434.00446  21191838.8444                   21191837.1024
 -10631957.10247  -8250298.48045  22217869.5004                   22217868.0044
 -33999838.59448 -26458053.38746  20691739.1724                   20691734.9264
 -29749739.05947 -23144190.75044  22853975.5234                   22853973.4964
 -26149489.97348 -20343068.99646  20732693.0394                   20732690.6724
 -23808751.63348 -18537267.08246  20757834.9614                   20757833.0394
  -9240583.41047  -7166831.33245  22679201.3054                   22679201.3954
 11  8 18  1  9 30.0000000  0  8G17G10G30G02G04G12G05G25
 -33700723.79746 -26225737.99643  24014002.7274                   24014001.8634
 -28071258.96948 -21848006.81245  21194629.5084                   21194627.4654
 -10731916.48047  -8328188.87945  22198848.5164                   22198846.5084
 -34014718.60548 -26469648.19546  20688907.7814                   20688903.4844
 -29701780.42647 -23106820.43744  22863101.7584                   22863100.0124
 -26202853.83648 -20384651.21546  20722538.1484                   20722535.2234
 -23899972.63748 -18608348.34846  20740476.1804                   20740474.0084
  -9352000.90247  -7253650.12145  22657998.8444                   22657999.5664
 11  8 18  1 10  0.0000000  0  8G17G10G30G02G04G12G05G25
 -33668201.32046 -26200395.82044  24020191.7194                   24020190.9734
 -28055994.78948 -21836112.63746  21197534.2894                   21197532.4574
 -10831343.91047  -8405664.73445  22179927.7974                   22179926.0824
 -34029363.72748 -26481059.97346  20686120.4614                   20686116.5554
 -29653773.14547 -23069412.20344  22872237.5164                   22872235.6914
 -26255609.48048 -20425759.50846  20712499.1174                   20712496.2854
 -23990650.71948 -18679006.56646  20723220.6884                   20723218.8164
  -9462991.94948  -7340136.63345  22636878.2114                   22636878.2664
 11  8 18  1 10 30.0000000  0  8G17G10G30G02G04G12G05G25
 -33635452.60947 -26174877.39144  24026423.5314                   24026422.6454
 -28040134.11348 -21823753.64846  21200552.1884                   21200550.1294
 -10930237.88347  -8482724.92645  22161108.6174                   22161107.6914
 -34043776.04348 -26492290.35246  20683378.3364                   20683374.0084
 -29605718.95747 -23031967.39144  22881381.4844                   22881380.7424
 -26307756.72348 -20466393.70746  20702575.8524                   20702572.9184
 -24080784.30948 -18749240.50046  20706068.9144                   20706066.6914
  -9573554.68048  -7426289.38745  22615838.6254                   22615838.9304
 11  8 18  1 11  0.0000000  0  8G17G10G30G02G04G12G05G25
 -33602499.76247 -26149199.87544  24032694.7274                   24032693.7974
 -28023700.55148 -21810948.26245  21203679.7894                   21203677.2934
 -11028617.83647  -8559384.59045  22142387.7274                   22142386.1994
 -34057978.17648 -26503356.93746  20680675.7344                   20680671.5664
 -29557640.98847 -22994504.07444  22890530.0394                   22890529.5784
 -26359316.30948 -20506570.00446  20692764.6414                   20692761.7424
 -24170393.35948 -18819065.69546  20689016.9304                   20689014.8794
  -9683708.40647  -7512123.40645  22594877.0084                   22594877.9694
 11  8 18  1 11 30.0000000  0  8G17G10G30G02G04G12G05G25
 -33569337.55547 -26123359.20344  24039005.1414                   24039004.5554
 -28006691.27048 -21797694.27345  21206916.3914                   21206913.8834
 -11126476.73447  -8635638.22745  22123765.8674                   22123763.9654
 -34071966.43448 -26514256.87946  20678013.5554                   20678009.9024
 -29509535.30147 -22957019.15644  22899684.0164                   22899683.9264
 -26410282.41448 -20546283.84846  20683065.9924                   20683063.0944
 -24259471.39848 -18888477.12146  20672065.7344                   20672063.8324
  -9793445.81247  -7597633.03545  22573994.3674                   22573994.9304
 11  8 18  1 12  0.0000000  0  8G17G10G30G02G04G12G05G25
 -33535953.91446 -26097346.00044  24045358.2344                   24045357.2664
 -27989096.19148 -21783983.81646  21210264.7974                   21210262.3054
 -11223800.43747  -8711474.83245  22105245.7424                   22105244.2504
 -34085730.16048 -26524981.84846  20675394.4774                   20675390.2774
 -29461391.39847 -22919504.45744  22908846.2974                   22908845.0634
 -26460642.37148 -20585525.36346  20673482.6884                   20673480.3874
 -24348004.61748 -18957464.01646  20655218.4304                   20655216.6884
  -9902752.47748  -7682807.00445  22553194.3524                   22553194.7074
 11  8 18  1 12 30.0000000  0  8G17G10G30G02G04G12G05G25
 -33502352.52746 -26071163.09444  24051751.7814                   24051752.0004
 -27970921.02748 -21769821.34445  21213722.9534                   21213721.0004
 -11320590.55947  -8786895.65645  22086827.2584                   22086825.3674
 -34099274.07448 -26535535.54346  20672817.0314                   20672813.2154
 -29413213.83647 -22881963.51644  22918014.5474                   22918012.6054
 -26510399.08648 -20624296.82046  20664014.5634                   20664011.7664
 -24435995.05548 -19026027.96546  20638474.7974                   20638472.3134
 -10011629.61747  -7767646.26645  22532475.1804                   22532475.4964
 11  8 18  1 13  0.0000000  0  8G17G10G30G02G04G12G05G25
 -33468542.98446 -26044818.02344  24058185.9304                   24058185.7424
 -27952177.53148 -21755216.01245  21217290.0474                   21217287.9964
 -11416854.63747  -8861906.58245  22068508.4924                   22068506.4574
 -34112608.60248 -26545926.08246  20670279.4614                   20670275.7774
 -29365013.38747 -22844404.78544  22927186.1414                   22927185.2704
 -26559561.69148 -20662605.33246  20654659.2034                   20654656.3244
 -24523450.81648 -19094175.28146  20621832.4144                   20621830.0784
 -10120084.47748  -7852156.51245  22511837.2194                   22511837.6254
 11  8 18  1 13 30.0000000  0  8G17G10G30G02G04G12G05G25
 -33434525.77347 -26018311.13343  24064658.3134                   24064657.8674
 -27932868.36748 -21740169.89145  21220964.2974                   21220962.1604
 -11512590.79347  -8936506.14545  22050290.6644                   22050288.9924
 -34125735.91848 -26556155.15646  20667781.7114                   20667777.2274
 -29316791.78547 -22806829.53544  22936362.6414                   22936360.8134
 -26608129.64148 -20700450.48846  20645416.9924                   20645414.2854
 -24610370.07848 -19161904.53946  20605292.0554                   20605289.8484
 -10228114.94547  -7936336.02745  22491279.0864                   22491280.0234
 11  8 18  1 14  0.0000000  0  8G17G10G30G02G04G12G05G25
 -33400292.97746 -25991636.22343  24071173.7584                   24071172.2704
 -27912987.67248 -21724678.45345  21224747.5634                   21224745.6024
 -11607789.29347  -9010686.75845  22032175.1254                   22032173.2544
 -34138649.11348 -26566217.39146  20665324.2584                   20665320.2154
 -29268542.47347 -22769232.66844  22945544.3674                   22945543.1054
 -26656094.42648 -20737825.64546  20636289.5234                   20636286.6764
 -24696743.62148 -19229208.57446  20588855.7504                   20588853.3204
 -10335710.94947  -8020177.01645  22470804.7114                   22470805.2624
 11  8 18  1 14 30.0000000  0  8G17G10G30G02G04G12G05G25
 -31790435.30946 -24737201.65243  24377519.0474                   24377518.2194
 -26317127.51647 -20481151.05546  21528429.3594                   21528427.4264
 -10127034.23047  -7856851.60545  22313953.5394                   22313951.6994
 -32575938.44948 -25348520.75446  20962698.1484                   20962694.0984
 -27644857.47747 -21504023.60544  23254521.0394                   23254520.6914
 -25128043.03148 -19547136.23846  20927068.1024                   20927065.1914
 -23207156.46548 -18068491.28146  20872314.3204                   20872312.6134
  -8867455.89148  -6876082.11745  22750204.3284                   22750204.8484
 11  8 18  1 15  0.0000000  0  8G17G10G30G02G04G12G05G25
 -31755782.83246 -24710199.75443  24384113.1094                   24384112.9224
 -26296121.27747 -20464782.55146  21532426.6414                   21532425.2624
 -10221162.53947  -7930198.29745  22296041.1564                   22296039.5434
 -32588438.37548 -25358260.94546  20960319.7504                   20960315.2194
 -27596567.27347 -21466394.81244  23263710.0944                   23263709.9184
 -25174810.81648 -19583578.67246  20918168.0474                   20918165.5704
 -23292445.37548 -18134950.14146  20856084.3204                   20856082.7974
  -8974187.09447  -6959249.22745  22729894.1804                   22729894.5664
 11  8 18  1 15 30.0000000  0  8G17G10G30G02G04G12G05G25
 -31720918.37146 -24683032.64843  24390746.5314                   24390746.8134
 -26274553.62948 -20447976.57845  21536530.7664                   21536529.2424
 -10314750.57047  -8003124.00845  22278231.7584                   22278230.4064
 -32600731.22348 -25367839.78146  20957980.1884                   20957976.1214
 -27548256.23447 -21428749.87144  23272903.2034                   23272902.8984
 -25220976.92648 -19619552.25446  20909383.2664                   20909380.8054
 -23377187.33648 -18200982.80546  20839958.6804                   20839956.3364
  -9080480.25048  -7042075.02045  22709666.8524                   22709667.3164
 11  8 18  1 16  0.0000000  0  8G17G10G30G02G04G12G05G25
 -31685851.24646 -24655707.62543  24397420.6804                   24397420.4774
 -26252436.21948 -20430742.22745  21540739.8284                   21540738.0904
 -10407805.93047  -8075634.64845  22260523.9694                   22260522.4734
 -32612827.64548 -25377265.56246  20955678.5314                   20955673.9694
 -27499935.03147 -21391096.98044  23282099.3754                   23282098.1884
 -25266550.74248 -19655064.30946  20900711.0554                   20900708.2774
 -23461390.44148 -18266595.58246  20823935.1024                   20823932.7704
  -9186342.50848  -7124565.02745  22689522.0314                   22689522.5394
 11  8 18  1 16 30.0000000  0  8G17G10G30G02G04G12G05G25
 -31650565.29346 -24628212.08643  24404134.9454                   24404134.6994
 -26229754.73848 -20413068.34445  21545056.0234                   21545053.9964
 -10500310.09447  -8147715.79745  22242920.9224                   22242919.3244
 -32624712.58648 -25386526.55146  20953416.5164                   20953412.7544
 -27451588.00847 -21353423.98044  23291299.4614                   23291298.2814
 -25311515.11748 -19690101.47346  20892154.4454                   20892151.8404
 -23545036.41448 -18331774.22746  20808017.9144                   20808015.7814
  -9291755.06648  -7206704.64845  22669462.7664                   22669462.7894
 11  8 18  1 17  0.0000000  0  8G17G10G30G02G04G12G05G25
 -31615064.32446 -24600549.00443  24410890.0784                   24410890.8674
 -26206515.31648 -20394959.69545  21549478.1884                   21549476.4224
 -10592265.07847  -8219369.02045  22225422.4144                   22225420.9654
 -32636390.91848 -25395626.54346  20951194.8054                   20951189.8914
 -27403220.71147 -21315735.18444  23300502.7424                   23300501.4414
 -25355873.32848 -19724666.30946  20883713.1254                   20883710.5554
 -23628128.12148 -18396520.98046  20792206.2194                   20792204.1134
  -9396719.63747  -7288495.19145  22649488.4694                   22649488.5594
 11  8 18  1 17 30.0000000  0  8G17G10G30G02G04G12G05G25
 -31579354.10245 -24572722.91843  24417685.2734                   24417686.6604
 -26182725.58248 -20376422.25445  21554005.2894                   21554003.3284
 -10683674.50447  -8290597.13745  22208027.8284                   22208026.4184
 -32647869.34848 -25404570.77746  20949010.3284                   20949006.2424
 -27354839.56247 -21278035.60944  23309709.5004                   23309709.2504
 -25399630.36348 -19758762.69146  20875386.8204                   20875384.0594
 -23710669.53148 -18460838.93446  20776499.0704                   20776496.7974
  -9501239.33247  -7369939.07045  22629599.1804                   22629599.2274
 11  8 18  1 18  0.0000000  0  9G17G10G29G30G02G04G12G05G25
 -31543436.23046 -24544735.00443  24424521.3054                   24424520.9384
 -26158389.67648 -20357459.18745  21558636.4924                   21558634.1884
   6135025.93856   4807609.68453  24743541.4064                   24743541.0554
 -10774537.98047  -8361399.84045  22190737.0004                   22190735.1764
 -32659150.53948 -25413361.31246  20946863.4924                   20946859.0554
 -27306447.22346 -21240327.29744  23318917.7664                   23318917.9924
 -25442787.34448 -19792391.50846  20867173.9774                   20867171.5554
 -23792660.46148 -18524727.93446  20760896.7734                   20760893.9344
  -9605313.55147  -7451035.82845  22609794.3594                   22609794.8484
 11  8 18  1 18 30.0000000  0  9G17G10G29G30G02G04G12G05G25
 -31507328.80146 -24516599.38343  24431392.5704                   24431392.3984
 -26133527.03148 -20338085.69945  21563367.5164                   21563365.5634
   6021611.16446   4719234.62543  24721959.4384                   24721959.2464
 -10864871.49647  -8431789.60945  22173547.5554                   22173546.0164
 -32670253.50848 -25422012.96946  20944750.6414                   20944746.3324
 -27258062.34446 -21202624.80144  23328124.7894                   23328125.4774
 -25485361.57448 -19825566.22746  20859072.3134                   20859069.6884
 -23874117.40248 -18588200.84047  20745396.2974                   20745393.7544
  -9708957.67247  -7531797.44945  22590071.6804                   22590071.8714
 11  8 18  1 19  0.0000000  0  9G17G10G29G30G02G04G12G05G25
 -31471017.55546 -24488304.89843  24438302.3594                   24438302.1684
 -26108126.23048 -20318292.86345  21568200.8284                   21568199.7114
   5908136.68446   4630813.03143  24700365.0234                   24700365.4414
 -10954658.73847  -8501753.69945  22156461.4144                   22156459.7664
 -32681165.03148 -25430515.44546  20942674.3594                   20942670.0234
 -27209672.11747 -21164918.14544  23337333.0864                   23337334.3054
 -25527338.33648 -19858275.38746  20851085.0474                   20851082.1564
 -23955024.71548 -18651245.45746  20729999.9064                   20729997.3014
  -9812155.21547  -7612211.09845  22570433.8914                   22570433.9454
 11  8 18  1 19 30.0000000  0  9G17G10G29G30G02G04G12G05G25
 -31434502.27046 -24459851.46143  24445251.5784                   24445250.8134
 -26082189.67248 -20298082.55545  21573136.6334                   21573134.6484
   5794602.69546   4542345.05143  24678760.6644                   24678760.6454
 -11043897.97347  -8571290.76645  22139479.4064                   22139478.0904
 -32691886.65248 -25438869.95746  20940634.1644                   20940629.9964
 -27161277.45747 -21127208.04344  23346543.0084                   23346542.7704
 -25568717.08648 -19890518.56246  20843210.3754                   20843207.8324
 -24035381.07048 -18713860.76646  20714708.5084                   20714706.1844
  -9914903.88747  -7692274.99245  22550881.1094                   22550881.8794
 11  8 18  1 20  0.0000000  0  9G17G10G29G30G02G04G12G05G25
 -31397792.52047 -24431246.47743  24452237.7274                   24452236.1214
 -26055729.03948 -20277463.87145  21578172.2584                   21578169.5944
   5681000.51246   4453823.95743  24657142.9614                   24657142.4654
 -11132596.76648  -8640406.71145  22122601.0944                   22122598.9184
 -32702428.32448 -25447084.22746  20938627.8284                   20938624.0594
 -27112888.86747 -21089502.64544  23355751.4924                   23355750.6884
 -25609507.29748 -19922303.14546  20835448.4304                   20835445.8714
 -24115194.31648 -18776052.87146  20699520.5314                   20699518.4694
 -10017210.93747  -7771994.73845  22531412.7114                   22531413.0434
 11  8 18  1 20 30.0000000  0  9G17G10G29G30G02G04G12G05G25
 -31360899.26647 -24402498.50044  24459257.3284                   24459257.0664
 -26028757.44148 -20256447.03545  21583304.2734                   21583302.1684
   5567320.00447   4365241.79344  24635510.0474                   24635509.0354
 -11220764.00448  -8709108.44945  22105823.2424                   22105821.4494
 -32712802.51248 -25455168.00046  20936653.6884                   20936649.3164
 -27064518.03947 -21051811.08644  23364956.3134                   23364955.7774
 -25649719.43448 -19953637.28146  20827796.3914                   20827793.4414
 -24194473.91848 -18837829.15246  20684434.0234                   20684431.7504
 -10119084.82447  -7851376.99645  22512026.9384                   22512026.9694
 11  8 18  1 21  0.0000000  0  9G17G10G29G30G02G04G12G05G25
 -31323795.13747 -24373586.19143  24466317.8134                   24466317.7194
 -26001249.91847 -20235012.58245  21588539.2664                   21588536.8554
   5453588.76647   4276620.10943  24613867.9694                   24613867.0044
 -11308370.44948  -8777373.21545  22089152.4064                   22089150.5314
 -32722982.53548 -25463100.47346  20934716.6484                   20934711.9924
 -27016138.75846 -21014112.96144  23374162.1954                   23374161.7974
 -25689325.51648 -19984499.16046  20820259.5004                   20820256.5084
 -24273191.18748 -18899167.25046  20669454.6024                   20669452.1054
 -10220495.89547  -7930398.59445  22492729.0394                   22492729.7424
 11  8 18  1 21 30.0000000  0  9G17G10G29G30G02G04G12G05G25
 -31286500.78947 -24344525.66444  24473415.3284                   24473414.9304
 -25973228.99248 -20213178.09445  21593871.3754                   21593868.9924
   5339787.09447   4187943.53144  24592212.6254                   24592211.8244
 -11395434.73447  -8845215.49645  22072584.0554                   22072582.7544
 -32732990.08648 -25470898.55146  20932812.4924                   20932807.8444
 -26967772.21147 -20976424.77744  23383366.2034                   23383365.2624
 -25728345.56648 -20014904.39846  20812834.3284                   20812831.4534
 -24351365.35548 -18960082.15246  20654578.6884                   20654576.4384
 -10321462.30947  -8009073.71145  22473515.8204                   22473516.2894
 11  8 18  1 22  0.0000000  0  9G17G10G29G30G02G04G12G05G25
 -31249001.94547 -24315305.83244  24480550.1484                   24480550.4144
 -25944683.07848 -20190934.52045  21599303.7274                   21599301.2504
   5225929.26647   4099223.21144  24570545.6724                   24570544.9494
 -11481941.03147  -8912622.98445  22056123.0554                   22056120.8594
 -32742812.41848 -25478552.32046  20930943.2274                   20930938.6484
 -26919405.34046 -20938736.32044  23392570.3204                   23392569.2274
 -25766765.07448 -20044841.68446  20805523.4304                   20805520.3634
 -24428980.91448 -19020561.77746  20639808.9144                   20639806.7114
 -10421967.77347  -8087389.66445  22454390.6484                   22454390.6414
 11  8 18  1 22 30.0000000  0  9G17G10G29G30G02G04G12G05G25
 -31211297.67646 -24285925.90644  24487725.0474                   24487725.7074
 -25915613.30548 -20168282.75445  21604834.9144                   21604832.7114
   5112017.61746   4010460.96544  24548869.3754                   24548867.8674
 -11567886.28147  -8979593.27745  22039767.9144                   22039766.5984
 -32752448.92248 -25486061.28946  20929109.5314                   20929104.8364
 -26871037.92647 -20901047.43744  23401774.1884                   23401772.7544
 -25804582.68448 -20074309.95346  20798326.6564                   20798323.8834
 -24506035.00448 -19080603.88747  20625145.8364                   20625143.6024
 -10522008.74247  -8165343.65645  22435353.0784                   22435353.1134
 11  8 18  1 23  0.0000000  0  9G17G10G29G30G02G04G12G05G25
 -31173392.11346 -24256389.15244  24494938.5784                   24494938.5664
 -25886025.92247 -20145227.64845  21610465.4384                   21610463.7034
   4998048.76246   3921654.09443  24527181.4614                   24527180.1724
 -11653272.45747  -9046127.93445  22023519.4454                   22023517.8834
 -32761904.54348 -25493429.29746  20927309.8674                   20927305.3324
 -26822674.77346 -20863361.84444  23410977.4924                   23410975.9964
 -25841802.23048 -20103312.19946  20791244.3984                   20791241.2154
 -24582530.45348 -19140210.70347  20610589.2584                   20610587.0394
 -10621586.86747  -8242936.98445  22416403.8914                   22416404.3134
 11  8 18  1 23 30.0000000  0  9G17G10G29G30G02G04G12G05G25
 -31135276.58246 -24226688.75043  24502191.3524                   24502191.6484
 -25855914.78147 -20121764.41845  21616194.9924                   21616193.2814
   4884031.75446   3832809.71544  24505484.4614                   24505483.5084
 -11738089.27747  -9112218.91845  22007379.6564                   22007377.9844
 -32771171.64848 -25500650.41446  20925547.0084                   20925542.0204
 -26774308.05146 -20825673.47344  23420181.2894                   23420179.7974
 -25878414.40648 -20131841.17246  20784277.1564                   20784274.5354
 -24658457.37948 -19199374.50846  20596140.7664                   20596138.3594
 -10720691.28547  -8320161.19945  22397544.9694                   22397544.7464
 11  8 18  1 24  0.0000000  0  9G17G10G29G30G02G04G12G05G25
 -31096963.09446 -24196834.10543  24509483.0164                   24509482.0204
 -25825294.09448 -20097904.11745  21622022.1484                   21622019.9654
   4769955.05147   3743918.84044  24483776.4454                   24483775.9224
 -11822347.16448  -9177874.38345  21991345.5944                   21991343.8244
 -32780263.67248 -25507735.09846  20923816.8054                   20923812.1644
 -26725951.02746 -20787992.66044  23429383.3134                   23429382.2304
 -25914431.55948 -20159906.48446  20777423.3984                   20777420.0744
 -24733826.77748 -19258103.88347  20581798.2734                   20581796.3914
 -10819331.96947  -8397024.04745  22378774.4384                   22378774.1454
 11  8 18  1 24 30.0000000  0  9G17G10G29G30G02G04G12G05G25
 -31058445.52346 -24166820.43743  24516811.5634                   24516811.4924
 -25794160.00848 -20073643.78545  21627946.4304                   21627944.7424
   4655825.60247   3654986.85944  24462058.2894                   24462057.7584
 -11906038.04348  -9243088.00045  21975419.4224                   21975418.3594
 -32789175.09448 -25514679.04346  20922120.8674                   20922116.5514
 -26677598.02046 -20750314.99644  23438584.7424                   23438583.4144
 -25949846.80548 -20187502.77746  20770683.9384                   20770680.8794
 -24808630.84848 -19316392.73446  20567563.8914                   20567561.4414
 -10917500.35947  -8473518.86745  22360093.0864                   22360093.2304
 11  8 18  1 25  0.0000000  0  8G10G29G30G02G04G12G05G25
 -25762517.51648 -20048987.30145  21633968.4534                   21633966.1994
   4541641.59046   3566012.35944  24440329.9224                   24440328.8404
 -11989162.66447  -9307860.38745  21959601.4844                   21959599.4144
 -32797909.73848 -25521485.25046  20920458.7424                   20920454.1334
 -26629252.62946 -20712643.22344  23447783.9224                   23447782.8054
 -25984662.50048 -20214631.89546  20764058.9304                   20764056.1564
 -24882870.98048 -19374242.16046  20553436.1954                   20553434.1094
 -11015196.76647  -8549645.90645  22341502.2814                   22341502.9184
 11  8 18  1 25 30.0000000  0  8G10G29G30G02G04G12G05G25
 -25730361.36348 -20023930.55545  21640087.4694                   21640085.2704
   4427411.48046   3477001.95743  24418591.9774                   24418591.0984
 -12071711.67247  -9372184.23445  21943892.9844                   21943891.2894
 -32806460.96148 -25528148.53146  20918831.4064                   20918826.8284
 -26580908.03547 -20674972.09444  23456984.4454                   23456983.0354
 -26018870.86748 -20241287.75846  20757548.8524                   20757546.2854
 -24956538.32048 -19431645.23847  20539417.5234                   20539415.3954
 -11112411.24247  -8625397.39845  22323003.0084                   22323003.4024
 11  8 18  1 26  0.0000000  0  8G10G29G30G02G04G12G05G25
 -25697701.77748 -19998481.51645  21646302.2734                   21646300.2384
   4313127.79746   3387949.81343  24396845.4144                   24396843.9654
 -12153691.45348  -9436064.53945  21928292.6724                   21928290.1524
 -32814837.08248 -25534675.37146  20917237.2114                   20917232.8524
 -26532572.85547 -20637308.27044  23466181.8594                   23466181.1134
 -26052479.50448 -20267476.30946  20751153.7974                   20751151.0044
 -25029639.72348 -19488607.34447  20525507.0784                   20525504.7274
 -11209149.68447  -8700777.95745  22304594.1644                   22304594.5944
 11  8 18  1 26 30.0000000  0  8G10G29G30G02G04G12G05G25
 -25664534.13748 -19972636.60245  21652613.9384                   21652612.0164
   4198798.78546   3298862.33643  24375088.1884                   24375087.8054
 -12235092.71147  -9499494.05545  21912802.5394                   21912800.5704
 -32823032.04748 -25541061.03546  20915677.4924                   20915673.3874
 -26484240.65647 -20599646.82044  23475378.8524                   23475378.6914
 -26085481.05148 -20293191.78946  20744873.6334                   20744870.8094
 -25102166.42248 -19545121.61347  20511705.6724                   20511703.4184
 -11305402.35547  -8775780.00045  22286278.1024                   22286278.2424
 11  8 18  1 27  0.0000000  0  8G10G29G30G02G04G12G05G25
 -25630857.96948 -19946395.41845  21659022.3284                   21659020.4414
   4084427.99646   3209742.30943  24353324.4064                   24353323.9304
 -12315911.06247  -9562469.34045  21897423.1804                   21897421.4264
 -32831043.95348 -25547304.06646  20914152.8914                   20914148.8164
 -26435909.30147 -20561985.98844  23484576.5394                   23484575.7974
 -26117872.64148 -20318431.98046  20738709.9924                   20738707.2194
 -25174114.34448 -19601184.89847  20498014.3134                   20498012.5904
 -11401164.32047  -8850399.67245  22268055.3594                   22268055.4064
 11  8 18  1 27 30.0000000  0  8G10G29G30G02G04G12G05G25
 -25596682.50848 -19919765.18045  21665525.5944                   21665523.7234
   3970009.12546   3120584.81343  24331551.6024                   24331550.8404
 -12396151.84048  -9624994.57845  21882154.0004                   21882152.1174
 -32838880.66048 -25553410.58246  20912661.8054                   20912657.4844
 -26387586.52047 -20524331.85244  23493771.5864                   23493771.8714
 -26149661.07048 -20343202.17646  20732660.2114                   20732657.7974
 -25245489.50048 -19656801.86347  20484432.1094                   20484430.2504
 -11496440.30547  -8924640.64145  22249924.5864                   22249924.6294
 11  8 18  1 28  0.0000000  0  8G10G29G30G02G04G12G05G25
 -25562002.14848 -19892741.51245  21672124.9454                   21672122.6604
   3855551.36746   3031396.99643  24309770.5784                   24309769.6024
 -12475805.16848  -9687062.09045  21866996.3594                   21866994.7934
 -32846534.98448 -25559374.97746  20911205.6174                   20911200.7234
 -26339264.89847 -20486678.64144  23502966.8834                   23502966.1804
 -26180838.04348 -20367495.91446  20726727.6024                   20726724.5554
 -25316282.61748 -19711965.29347  20470960.2344                   20470958.2584
 -11591219.98047  -8998494.88745  22231888.7974                   22231889.1914
 11  8 18  1 28 30.0000000  0  8G10G29G30G02G04G12G05G25
 -25526823.76648 -19865329.78145  21678819.0704                   21678817.0784
   3741050.93046   2942175.96943  24287981.8204                   24287981.3834
 -12554873.97748  -9748674.12945  21851950.0004                   21851948.1024
 -32854012.40648 -25565201.53946  20909782.7734                   20909777.8484
 -26290949.62546 -20449030.40244  23512160.6254                   23512160.1054
 -26211408.04748 -20391316.69946  20720910.5634                   20720907.6214
 -25386496.85548 -19766677.65247  20457599.0784                   20457596.8324
 -11685505.61748  -9071964.17245  22213946.5864                   22213947.2234
 11  8 18  1 29  0.0000000  0  8G10G29G30G02G04G12G05G25
 -25491142.59048 -19837526.26245  21685609.0944                   21685607.3554
   3626515.81346   2852927.88743  24266186.7114                   24266185.9734
 -12633349.24648  -9809823.66445  21837016.7344                   21837014.9964
 -32861306.55148 -25570885.28146  20908394.3204                   20908389.8444
 -26242634.13746 -20411381.99644  23521355.6254                   23521354.1294
 -26241363.62548 -20414658.69146  20715210.4454                   20715207.0944
 -25456123.91848 -19820932.47347  20444349.2584                   20444347.1524
 -11779287.80948  -9145041.17245  22196100.4924                   22196100.5124
 11  8 18  1 29 30.0000000  0  8G10G29G30G02G04G12G05G25
 -25454980.38348 -19809347.92245  21692490.6644                   21692488.5554
   3511927.15246   2763638.05143  24244381.1094                   24244379.7384
 -12711248.88348  -9870524.66045  21822192.8674                   21822191.1374
 -32868437.45748 -25576441.82046  20907037.4924                   20907032.7424
 -26194338.64846 -20373749.14543  23530545.1884                   23530544.5314
 -26270724.13748 -20437537.00446  20709623.1024                   20709620.1484
 -25525182.20348 -19874744.09047  20431207.9304                   20431205.7734
 -11872583.82848  -9217739.32445  22178346.9064                   22178347.0554
 11  8 18  1 30  0.0000000  0  8G10G29G30G02G04G12G05G25
 -25418336.77347 -19780794.45745  21699463.2664                   21699461.4224
   3397288.73446   2674309.46943  24222566.1804                   24222564.8014
 -12788568.59448  -9930773.77745  21807479.7344                   21807477.3324
 -32875403.28548 -25581869.73046  20905712.0164                   20905707.3244
 -26146061.18446 -20336130.38343  23539731.9774                   23539731.6804
 -26299486.93048 -20459949.57446  20704149.4844                   20704146.7814
 -25593667.75448 -19928109.41447  20418175.8284                   20418173.2344
 -11965388.85948  -9290054.89146  22160686.6484                   22160686.7274
 11  8 18  1 30 30.0000000  0  8G10G29G30G02G04G12G05G25
 -25381221.41047 -19751873.38345  21706526.2194                   21706524.2894
   3282594.55946   2584937.45743  24200740.4144                   24200739.6134
 -12865313.60548  -9990575.07445  21792875.6884                   21792874.0434
 -32882211.82448 -25587175.08246  20904416.3364                   20904411.6254
 -26097809.11346 -20298531.39543  23548914.2664                   23548914.2234
 -26327658.71548 -20481901.60546  20698788.9774                   20698785.8284
 -25661586.60548 -19981033.16047  20405251.2504                   20405249.1174
 -12057707.47348  -9361991.43745  22143118.9454                   22143118.7774
 11  8 18  1 31  0.0000000  0  8G10G29G30G02G04G12G05G25
 -25343625.28948 -19722577.70745  21713680.5394                   21713679.1174
   3167856.85246   2495531.48844  24178906.7344                   24178905.3794
 -12941470.93448 -10049918.43445  21778383.1094                   21778381.6024
 -32888852.74248 -25592349.81246  20903152.4614                   20903147.9384
 -26049571.80147 -20260943.85944  23558093.7274                   23558093.4454
 -26355228.19148 -20503384.32046  20693542.3134                   20693539.7624
 -25728926.10948 -20033505.47747  20392436.9454                   20392434.7344
 -12149526.15648  -9433538.44945  22125646.0634                   22125646.6524
 11  8 18  1 31 30.0000000  0  8G10G29G30G02G04G12G05G25
 -25305559.27348 -19692915.86345  21720924.3524                   21720921.9064
   3053067.86347   2406085.57044  24157063.2504                   24157062.0354
 -13017047.82447 -10108809.50845  21764001.0234                   21763999.3524
 -32895335.45348 -25597401.26246  20901918.9454                   20901914.2934
 -26001358.49247 -20223375.03944  23567268.4384                   23567267.6254
 -26382203.99648 -20524404.42246  20688409.0394                   20688406.4104
 -25795693.62948 -20085532.08647  20379731.4144                   20379729.2074
 -12240851.55948  -9504701.07445  22108267.7974                   22108267.9144
 11  8 18  1 32  0.0000000  0  8G10G29G30G02G04G12G05G25
 -25267013.16847 -19662879.92245  21728259.1254                   21728256.8094
   2938241.20746   2316610.29344  24135212.1954                   24135210.7424
 -13092030.05148 -10167237.21145  21749732.3914                   21749730.7774
 -32901647.91048 -25602320.05146  20900717.6414                   20900712.9694
 -25953157.24647 -20185815.64844  23576441.4224                   23576440.8754
 -26408573.56248 -20544952.13746  20683391.2814                   20683388.5044
 -25861876.19548 -20137102.87947  20367137.3984                   20367134.8984
 -12331668.83648  -9575467.75045  22090985.8134                   22090986.0594
 11  8 18  1 32 30.0000000  0  8G10G29G30G02G04G12G05G25
 -25227999.85948 -19632479.93745  21735683.7114                   21735681.2424
   2823367.45347   2227098.34844  24113352.2814                   24113350.5824
 -13166426.23048 -10225208.26645  21735575.4774                   21735573.6764
 -32907801.26248 -25607114.85946  20899546.4534                   20899542.4414
 -25904978.64847 -20148273.93044  23585609.2664                   23585608.7934
 -26434347.38748 -20565035.64146  20678486.3834                   20678483.5634
 -25927482.62148 -20188224.74647  20354652.8054                   20354650.3324
 -12421986.02048  -9645844.77346  22073798.8914                   22073799.2074
 11  8 18  1 33  0.0000000  0  8G10G29G30G02G04G12G05G25
 -25188515.86748 -19601713.17645  21743197.4694                   21743195.0084
   2708453.55147   2137555.09844  24091484.5704                   24091483.6024
 -13240229.03548 -10282716.93045  21721530.7734                   21721529.5594
 -32913790.18448 -25611781.54746  20898407.0084                   20898402.5594
 -25856817.56647 -20110745.83644  23594774.1954                   23594773.2074
 -26459519.44148 -20584650.23846  20673696.2194                   20673693.5204
 -25992506.03548 -20238892.30547  20342279.1724                   20342276.8484
 -12511795.19948  -9715825.94145  22056708.7894                   22056708.9104
 11  8 18  1 33 30.0000000  0  8G10G29G30G02G04G12G05G25
 -25148578.27048 -19570592.96145  21750796.8204                   21750794.9384
   2593485.88746   2047969.96144  24069607.3284                   24069605.9694
 -13313451.62948 -10339773.49245  21707597.5474                   21707595.5314
 -32919630.27048 -25616332.26246  20897295.6644                   20897291.0944
 -25808688.90247 -20073243.01644  23603932.5944                   23603931.4494
 -26484104.55548 -20603807.47746  20669018.0164                   20669015.5004
 -26056960.36348 -20289116.42247  20330013.7814                   20330011.5314
 -12601108.80548  -9785420.94945  22039712.9844                   22039713.4384
 11  8 18  1 34  0.0000000  0  8G10G29G30G02G04G12G05G25
 -25108175.37948 -19539110.17245  21758484.9144                   21758483.1884
   2478479.67247   1958354.76644  24047722.7034                   24047720.8524
 -13386078.05948 -10396365.51645  21693777.5554                   21693775.8014
 -32925307.87148 -25620756.35246  20896215.1954                   20896210.3674
 -25760579.04747 -20035754.85544  23613088.2114                   23613085.2074
 -26508088.44548 -20622496.24246  20664453.9774                   20664451.3554
 -26120829.88348 -20338884.85547  20317860.1254                   20317857.5744
 -12689910.41448  -9854617.00845  22022814.4924                   22022814.8444
 11  8 18  1 34 30.0000000  0  8G10G29G30G02G04G12G05G25
 -25067311.09847 -19507267.87945  21766261.3754                   21766259.2074
   2363434.07046   1868708.92244  24025829.7734                   24025829.2384
 -13458108.94148 -10452493.48045  21680070.1484                   21680068.3524
 -32930825.62548 -25625055.90646  20895165.0474                   20895161.0984
 -25712490.48047 -19998283.27344  23622238.2274                   23622237.1684
 -26531472.86748 -20640717.87546  20660004.1724                   20660001.0984
 -26184115.84048 -20388198.55547  20305816.9844                   20305814.6414
 -12778199.90248  -9923414.00046  22006013.6954                   22006013.7074
 11  8 18  1 35  0.0000000  0  8G10G29G30G02G04G12G05G25
 -25025980.41447 -19475062.12545  21774126.6884                   21774124.9964
   2248358.09046   1779039.37944  24003931.4144                   24003930.1684
 -13529534.86748 -10508150.04745  21666478.4694                   21666476.5944
 -32936176.34848 -25629225.28546  20894146.9304                   20894142.9574
 -25664415.65247 -19960822.39844  23631387.0234                   23631386.2704
 -26554250.70748 -20658466.85546  20655669.5164                   20655667.1604
 -26246809.31248 -20437050.57847  20293886.6484                   20293884.6764
 -12865967.24648  -9991804.13345  21989312.1724                   21989312.0044
 11  8 18  1 35 30.0000000  0  8G10G29G30G02G04G12G05G25
 -24984195.25048 -19442502.25445  21782077.8524                   21782075.6094
   2133243.20347   1689339.52044  23982025.9064                   23982024.2734
 -13600363.99648 -10563341.58645  21652999.9614                   21652997.9024
 -32941370.30148 -25633272.50446  20893158.6884                   20893154.7544
 -25616364.57847 -19923380.00844  23640530.1024                   23640529.9494
 -26576431.21148 -20675750.37546  20651448.8754                   20651446.4104
 -26308918.90248 -20485447.62947  20282067.6724                   20282065.0984
 -12953219.88748 -10059793.20346  21972708.5234                   21972708.2974
 11  8 18  1 36  0.0000000  0  8G10G29G30G02G04G12G05G25
 -24941949.86747 -19409583.75845  21790116.7664                   21790114.5984
   2018098.43047   1599616.39144  23960115.0474                   23960113.1334
 -13670586.82847 -10618060.67245  21639636.7034                   21639635.3244
 -32946400.17248 -25637191.86746  20892201.4304                   20892196.9614
 -25568329.77047 -19885950.28544  23649671.5394                   23649671.1884
 -26598006.73448 -20692562.48046  20647343.0864                   20647340.5044
 -26370435.72748 -20533382.78947  20270361.3364                   20270358.8094
 -13039947.77048 -10127373.35946  21956204.5944                   21956204.9224
 11  8 18  1 36 30.0000000  0  8G10G29G30G02G04G12G05G25
 -24899267.04347 -19376324.40245  21798239.1024                   21798237.5204
   1902904.82047   1509855.18444  23938193.7974                   23938192.3054
 -13740221.97348 -10672321.82445  21626385.9304                   21626384.2344
 -32951286.59448 -25640999.46146  20891271.6414                   20891267.7034
 -25520331.71947 -19848549.21144  23658805.1884                   23658804.9064
 -26618997.31248 -20708918.78946  20643348.6954                   20643346.1524
 -26431379.15648 -20580871.14547  20258764.5474                   20258761.8634
 -13126168.82448 -10194558.59446  21939797.3834                   21939797.5984
 11  8 18  1 37  0.0000000  0  8G10G29G30G02G04G12G05G25
 -24856139.11347 -19342718.22345  21806446.1954                   21806443.9694
   1787673.50847   1420064.60544  23916266.2734                   23916264.7194
 -13809258.19948 -10726116.29345  21613248.7814                   21613246.6564
 -32956020.34048 -25644688.09046  20890370.8134                   20890366.1684
 -25472360.73046 -19811169.24244  23667933.6024                   23667933.9574
 -26639393.35948 -20724811.81646  20639467.6954                   20639464.8364
 -26491738.02748 -20627904.00847  20247278.3364                   20247275.8874
 -13211871.05148 -10261339.55946  21923488.8754                   21923489.1134
 11  8 18  1 37 30.0000000  0  8G10G29G30G02G04G12G05G25
 -24812573.93047 -19308771.31645  21814736.1334                   21814734.4104
   1672400.28147   1330241.37544  23894330.3054                   23894328.9384
 -13877699.27047 -10779447.00845  21600224.7114                   21600223.2114
 -32960607.21948 -25648262.27046  20889498.3594                   20889493.6254
 -25424422.50047 -19773814.77043  23677055.8524                   23677055.3874
 -26659200.09448 -20740245.64546  20635698.6564                   20635695.7114
 -26551516.94948 -20674484.95747  20235902.8054                   20235900.1094
 -13297057.64148 -10327718.71146  21907278.2274                   21907278.7584
 11  8 18  1 38  0.0000000  0  8G10G29G30G02G04G12G05G25
 -23193157.78547 -18046888.60245  22122900.5944                   22122899.2074
   3132507.51246   2467987.30544  24172179.7814                   24172178.0234
 -12370124.25047  -9604713.23445  21887106.5314                   21887104.9184
 -31389630.26648 -24424124.37546  21188444.8054                   21188440.4104
 -23801101.84846 -18508889.55943  23985963.9774                   23985962.9964
 -25103000.01648 -19527622.21146  20931833.4224                   20931830.5204
 -25035295.78148 -19493013.88747  20524430.0004                   20524427.5274
 -11806306.34848  -9166094.32046  22190959.0084                   22190959.1294
 11  8 18  1 38 30.0000000  0  8G10G29G30G02G04G12G05G25
 -23148720.07447 -18012261.81645  22131357.1174                   22131355.4774
   3017158.73046   2378105.18444  24150228.9924                   24150227.6954
 -12437366.07847  -9657109.45745  21874310.4534                   21874309.3554
 -31393920.36348 -24427467.30946  21187628.4694                   21187623.8914
 -23753225.38746 -18471583.22343  23995074.7424                   23995073.5554
 -25121624.21148 -19542134.57846  20928289.4064                   20928286.9574
 -25093907.19548 -19538685.09847  20513276.7194                   20513274.2274
 -11890450.54348  -9231661.22746  22174946.7734                   22174946.9304
 11  8 18  1 39  0.0000000  0  8G10G29G30G02G04G12G05G25
 -23103846.53547 -17977295.43045  22139895.6644                   22139894.2934
   2901777.60546   2288197.83644  24128272.7814                   24128271.5634
 -12504002.60947  -9709034.03145  21861630.3984                   21861628.4224
 -31398059.22348 -24430692.39146  21186840.6484                   21186836.4844
 -23705376.70346 -18434298.50043  24004178.4614                   24004178.1684
 -25139654.29748 -19556184.00046  20924858.3054                   20924855.8874
 -25151929.96148 -19583897.60947  20502235.3524                   20502233.0204
 -11974066.84048  -9296816.77046  22159034.9614                   22159035.3204
 11  8 18  1 39 30.0000000  0  8G10G29G30G02G04G12G05G25
 -23058543.62147 -17941994.45745  22148516.9694                   22148515.4844
   2786361.24246   2198263.02744  24106310.1954                   24106308.6844
 -12570036.82047  -9760489.25845  21849064.3054                   21849062.7814
 -31402051.69148 -24433803.38746  21186081.3674                   21186077.0594
 -23657560.32846 -18397039.00843  24013278.4694                   24013278.0354
 -25157094.45348 -19569773.73046  20921539.5234                   20921537.0664
 -25209367.78548 -19628654.33247  20491305.2194                   20491302.6914
 -12057157.51248  -9361562.73846  22143223.5634                   22143223.6134
 11  8 18  1 40  0.0000000  0  8G10G29G30G02G04G12G05G25
 -23012809.02347 -17906357.11745  22157219.9454                   22157218.0984
   2670915.28146   2108305.13344  24084341.5004                   24084339.7344
 -12635462.87547  -9811470.60245  21836614.3524                   21836612.4024
 -31405893.68448 -24436797.13746  21185350.1024                   21185345.8834
 -23609772.03146 -18359801.37143  24022372.6804                   24022370.9104
 -25173939.84848 -19582900.00446  20918334.0164                   20918331.8014
 -25266214.93048 -19672950.78147  20480487.4304                   20480484.8714
 -12139716.00048  -9425894.01646  22127513.0004                   22127512.9574
 11  8 18  1 40 30.0000000  0  8G10G29G30G02G04G12G05G25
 -22966649.00447 -17870388.27345  22166004.5554                   22166002.0274
   2555437.88746   2018322.77044  24062366.0164                   24062365.2734
 -12700282.98447  -9861979.77745  21824280.1334                   21824277.8874
 -31409589.49648 -24439676.98046  21184646.8204                   21184642.3984
 -23562015.48046 -18322588.46543  24031460.0704                   24031459.1604
 -25190195.28148 -19595566.57046  20915240.9614                   20915238.3204
 -25322474.58648 -19716789.44947  20469781.5634                   20469779.3204
 -12221743.79348  -9489811.77046  22111903.9224                   22111903.7664
 11  8 18  1 41  0.0000000  0  8G10G29G30G02G04G12G05G25
 -22920059.55947 -17834084.80945  22174869.8284                   22174867.8404
   2439936.14146   1928321.38344  24040386.5944                   24040385.8284
 -12764489.40647  -9912010.74245  21812061.5864                   21812059.5824
 -31413132.87948 -24442438.05946  21183972.4384                   21183967.9804
 -23514284.57046 -18285395.47743  24040543.1954                   24040542.4144
 -25205854.50848 -19607768.55546  20912260.9064                   20912258.5514
 -25378139.32848 -19760164.54347  20459188.6174                   20459186.6254
 -12303232.43748  -9553309.39546  22096397.1644                   22096396.7934
 11  8 18  1 41 30.0000000  0  8G10G29G30G02G04G12G05G25
 -22873052.23047 -17797455.71145  22183815.0784                   22183812.6294
   2324402.59846   1838295.21144  24018401.9774                   24018400.5554
 -12828090.21148  -9961569.78945  21799958.6094                   21799956.7424
 -31416533.97748 -24445088.27046  21183325.1884                   21183320.5084
 -23466588.77046 -18248229.89143  24049619.9454                   24049618.8134
 -25220926.86348 -19619513.24246  20909392.8364                   20909389.9734
 -25433217.74648 -19803082.76647  20448707.8364                   20448705.3914
 -12384189.19948  -9616392.58246  22080991.4064                   22080991.4774
 11  8 18  1 42  0.0000000  0  8G10G29G30G02G04G12G05G25
 -22825630.77347 -17760503.91045  22192839.3984                   22192836.6684
   2208837.28147   1748244.28144  23996410.4454                   23996409.2074
 -12891085.37148 -10010656.90645  21787970.8204                   21787969.1844
 -31419794.19548 -24447628.69946  21182704.6024                   21182700.2894
 -23418929.68046 -18211092.91843  24058687.9844                   24058688.1484
 -25235413.19148 -19630801.27746  20906636.0474                   20906633.5704
 -25487710.28148 -19845544.44947  20438338.3364                   20438335.7854
 -12464613.38748  -9679060.76246  22065687.2114                   22065687.3874
 11  8 18  1 42 30.0000000  0  8G10G29G30G02G04G12G05G25
 -22777791.83247 -17723226.80145  22201942.8834                   22201940.5664
   2093247.19146   1658174.05944  23974414.5004                   23974413.3444
 -12953467.85547 -10059266.60245  21776100.0554                   21776098.1684
 -31422908.14548 -24450055.13746  21182112.3984                   21182108.0704
 -23371301.50047 -18173980.05143  24067751.6954                   24067750.4104
 -25249309.07848 -19641629.23446  20903991.7584                   20903989.2504
 -25541610.41848 -19887544.52747  20428081.1094                   20428078.8634
 -12544497.19548  -9741307.87146  22050485.7504                   22050485.4654
 11  8 18  1 43  0.0000000  0  8G10G29G30G02G04G12G05G25
 -22729538.60947 -17685626.87945  22211124.7814                   22211122.7424
   1977632.54346   1568084.74244  23952414.0944                   23952413.2894
 -13015237.33247 -10107398.62945  21764345.8674                   21764343.8954
 -31425877.33648 -24452368.80146  21181547.3914                   21181543.1174
 -23323705.52746 -18136892.25443  24076809.0164                   24076807.8794
 -25262616.00848 -19651998.26246  20901459.3204                   20901456.9344
 -25594918.37548 -19929083.16847  20417937.3204                   20417934.9924
 -12623839.56248  -9803133.07046  22035387.2344                   22035387.9574
 11  8 18  1 43 30.0000000  0  8G10G29G30G02G04G12G05G25
 -22680882.81647 -17647713.26645  22220383.0164                   22220381.7034
   1861985.78947   1477970.38744  23930406.6484                   23930406.2894
 -13076401.83247 -10155059.23845  21752706.7274                   21752704.4454
 -31428711.53148 -24454577.27046  21181008.0784                   21181003.5634
 -23276150.82446 -18099836.69143  24085858.8984                   24085856.9144
 -25275343.21948 -19661915.57846  20899037.8594                   20899034.9964
 -25647642.69948 -19970167.03547  20407903.9534                   20407901.6334
 -12702647.65648  -9864541.95746  22020390.3914                   22020390.8014
 11  8 18  1 44  0.0000000  0  8G10G29G30G02G04G12G05G25
 -22631831.82047 -17609491.71145  22229717.2194                   22229715.8054
   1746303.10947   1387828.06644  23908393.1414                   23908392.3244
 -13136965.25847 -10202251.47745  21741181.8054                   21741179.6024
 -31431415.86348 -24456684.53146  21180493.7504                   21180488.8874
 -23228642.93046 -18062817.56243  24094899.1414                   24094896.9144
 -25287496.23048 -19671385.45346  20896725.2274                   20896722.3834
 -25699788.04348 -20010799.73847  20397981.3284                   20397979.1294
 -12780924.73448  -9925537.04346  22005495.0474                   22005495.1454
 11  8 18  1 44 30.0000000  0  8G10G29G30G02G04G12G05G25
 -22582384.49647 -17570961.32845  22239127.1644                   22239125.4064
   1630589.80547   1297661.85244  23886374.1024                   23886372.3284
 -13196922.71147 -10248971.52745  21729772.3284                   21729770.2074
 -31433987.03948 -24458688.05946  21180004.2734                   21180000.0084
 -23181177.93746 -18025831.88743  24103931.4304                   24103928.7934
 -25299071.31248 -19680404.99646  20894522.3754                   20894519.6334
 -25751349.88748 -20050977.77747  20388169.3984                   20388167.1844
 -12858665.04748  -9986113.88346  21990701.7274                   21990701.5124
 11  8 18  1 45  0.0000000  0  8G10G29G30G02G04G12G05G25
 -22532531.57847 -17532114.87545  22248613.7034                   22248612.1454
   1514859.05147   1207482.08244  23864351.4384                   23864349.5314
 -13256261.27347 -10295209.33645  21718480.3054                   21718478.2544
 -31436413.92648 -24460579.11746  21179541.9924                   21179537.9184
 -23133744.24646 -17988870.60243  24112956.9064                   24112955.5474
 -25310057.78948 -19688965.89546  20892431.6644                   20892428.8444
 -25802315.43748 -20090691.16847  20378471.1884                   20378468.2464
 -12935854.93448 -10046261.81646  21976012.8284                   21976012.5164
 11  8 18  1 45 30.0000000  0  8G10G29G30G02G04G12G05G25
 -22482285.30947 -17492961.94545  22258175.6024                   22258173.6804
   1399102.27747   1117282.03944  23842323.2894                   23842321.5944
 -13314989.63348 -10340971.65645  21707304.6564                   21707302.9804
 -31438706.69948 -24462365.68446  21179106.0314                   21179101.8874
 -23086351.72346 -17951941.37943  24121975.6024                   24121974.4924
 -25320465.65648 -19697075.92246  20890451.2584                   20890448.5474
 -25852694.30948 -20129947.40247  20368884.0704                   20368881.4734
 -13012502.26248 -10105986.96546  21961427.1804                   21961427.4574
 11  8 18  1 46  0.0000000  0  8G10G29G30G02G04G12G05G25
 -22431635.20747 -17453494.30945  22267813.7424                   22267812.3054
   1283333.94547   1027073.00044  23820293.1724                   23820291.9574
 -13373094.06248 -10386247.80145  21696247.8204                   21696245.7854
 -31440852.69948 -24464037.87546  21178697.2664                   21178693.1134
 -23038987.82046 -17915034.47743  24130988.6564                   24130988.3674
 -25330282.77748 -19704725.63746  20888582.9454                   20888580.5394
 -25902473.04348 -20168735.99647  20359411.6564                   20359409.1684
 -13088592.45348 -10165277.98846  21946947.6804                   21946947.8324
 11  8 18  1 46 30.0000000  0  8G10G29G30G02G04G12G05G25
 -22380596.78147 -17413724.09445  22277525.9694                   22277524.5004
   1167542.47747    936845.96144  23798258.2664                   23798257.5984
 -13430586.52348 -10431047.09445  21685307.4694                   21685305.3054
 -31442865.44548 -24465606.24246  21178314.3834                   21178310.1724
 -22991665.62946 -17878160.05943  24139994.3524                   24139994.2424
 -25339522.62548 -19711925.53146  20886824.6414                   20886821.9574
 -25951664.54348 -20207067.02047  20350050.5864                   20350047.9184
 -13164136.77748 -10224143.66446  21932571.8204                   21932572.1214
 11  8 18  1 47  0.0000000  0  8G10G29G30G02G04G12G05G25
 -22329170.18747 -17373651.41445  22287312.4694                   22287310.3244
   1051731.27747    846603.53144  23776220.5314                   23776218.6454
 -13487463.74248 -10475366.98445  21674483.9924                   21674482.1684
 -31444743.30148 -24467069.49646  21177957.1564                   21177953.0084
 -22944383.10946 -17841316.55543  24148991.6254                   24148991.4924
 -25348183.64148 -19718674.39546  20885176.4224                   20885173.8284
 -26000265.54348 -20244937.91447  20340802.0004                   20340799.6604
 -13239131.14548 -10282580.78546  21918301.2424                   21918300.9614
 11  8 18  1 47 30.0000000  0  8G10G29G30G02G04G12G05G25
 -22277355.91047 -17333276.62145  22297172.4844                   22297169.9184
    935904.21547    756348.78544  23754178.8674                   23754177.3284
 -13543722.64148 -10519205.06645  21663778.0864                   21663776.0394
 -31446484.06248 -24468425.91846  21177625.9924                   21177621.7814
 -22897137.89546 -17804502.12943  24157982.3914                   24157981.7624
 -25356264.23448 -19724970.97346  20883639.0944                   20883636.4534
 -26048273.59448 -20282346.75447  20331666.4454                   20331664.0394
 -13313571.55548 -10340586.26246  21904135.3134                   21904135.7304
 11  8 18  1 48  0.0000000  0  8G10G29G30G02G04G12G05G25
 -22225162.58247 -17292606.49245  22307104.2194                   22307102.4614
    820056.61747    666078.01644  23732133.6024                   23732132.5554
 -13599368.34048 -10562565.34045  21653188.9614                   21653187.2274
 -31448094.55148 -24469680.84046  21177319.6334                   21177314.7734
 -22849936.37546 -17767721.78143  24166964.8674                   24166963.7814
 -25363771.23048 -19730820.59046  20882210.6174                   20882207.8834
 -26095694.71548 -20319298.26647  20322642.5004                   20322640.1174
 -13387462.44548 -10398163.53946  21890074.6484                   21890074.5004
 11  8 18  1 48 30.0000000  0  8G10G29G30G02G04G12G05G25
 -22172589.00447 -17251640.05144  22317108.2814                   22317106.4144
    704193.64547    575795.26644  23710086.0634                   23710084.8594
 -13654396.18448 -10605444.15645  21642717.5164                   21642715.4344
 -31449571.39148 -24470831.62546  21177038.8914                   21177033.7274
 -22802774.89547 -17730972.60243  24175939.4844                   24175938.6564
 -25370701.58648 -19736220.88746  20880891.7504                   20880888.8094
 -26142524.48848 -20355788.97747  20313730.8834                   20313728.3324
 -13460798.23848 -10455308.27746  21876119.2894                   21876119.2544
 11  8 18  1 49  0.0000000  0  8G10G29G30G02G04G12G05G25
 -22119641.44947 -17210382.20745  22327183.4694                   22327182.1764
    588312.38747    485498.27044  23688034.2664                   23688033.1884
 -13708809.48448 -10647844.13345  21632363.0394                   21632361.2774
 -31450918.97348 -24471881.67246  21176781.6484                   21176777.4224
 -22755657.62946 -17694257.85943  24184905.5864                   24184904.3094
 -25377059.97748 -19741175.48846  20879681.7344                   20879678.9184
 -26188766.38348 -20391821.59847  20304931.4534                   20304928.9264
 -13533581.42248 -10512022.42246  21862269.0234                   21862269.0864
 11  8 18  1 49 30.0000000  0  8G10G29G30G02G04G12G05G25
 -22066325.22347 -17168837.10544  22337329.4614                   22337328.3634
    472411.92647    395186.31644  23665978.9144                   23665978.1954
 -13762610.14148 -10689766.73845  21622125.1254                   21622123.4574
 -31452140.43048 -24472833.43746  21176549.7584                   21176545.3134
 -22708587.56246 -17657579.90243  24193862.0864                   24193861.0394
 -25382850.09048 -19745687.28546  20878580.0394                   20878577.1844
 -26234423.02348 -20427398.18047  20296243.2034                   20296240.7274
 -13605813.14548 -10568306.85246  21848523.6414                   21848523.7114
 11  8 18  1 50  0.0000000  0  8G10G29G30G02G04G12G05G25
 -22012636.11747 -17127001.45745  22347546.8444                   22347544.8874
    356500.73847    304865.99644  23643922.2424                   23643920.9304
 -13815790.28148 -10731205.82045  21612005.4064                   21612003.2624
 -31453229.03148 -24473681.66846  21176342.2424                   21176338.1174
 -22661557.52046 -17620933.12143  24202812.1094                   24202810.5204
 -25388065.73448 -19749751.43746  20877587.4614                   20877584.7854
 -26279487.21948 -20462513.11347  20287667.8984                   20287665.2894
 -13677484.66048 -10624154.77046  21834885.2344                   21834884.9144
 11  8 18  1 50 30.0000000  0  8G10G29G30G02G04G12G05G25
 -21958578.28147 -17084878.44945  22357833.4924                   22357831.3794
    240578.42247    214537.01244  23621862.3594                   23621861.3594
 -13868350.80548 -10772162.08245  21602003.4454                   21602001.5394
 -31454187.21548 -24474428.28146  21176159.7194                   21176155.7424
 -22614569.32046 -17584318.94943  24211753.6564                   24211752.0744
 -25392708.80948 -19753369.42646  20876703.7504                   20876701.3364
 -26323960.19948 -20497167.35947  20279204.9064                   20279202.4454
 -13748595.94148 -10679566.14146  21821352.8914                   21821353.2274
 11  8 18  1 51  0.0000000  0  8G10G29G30G02G04G12G05G25
 -21904156.19547 -17042471.62545  22368189.4774                   22368187.5274
    124644.56347    124198.98044  23599801.5554                   23599799.5784
 -13920293.13748 -10812636.64545  21592119.3204                   21592117.5784
 -31455016.88748 -24475074.75846  21176001.9064                   21175997.5704
 -22567625.07047 -17547739.00043  24220686.1564                   24220684.5474
 -25396782.66447 -19756543.88346  20875928.8284                   20875926.2584
 -26367843.85548 -20531362.39547  20270854.2194                   20270851.2424
 -13819147.62148 -10734541.46946  21807927.4144                   21807927.1684
 11  8 18  1 51 30.0000000  0  8G10G29G30G02G04G12G05G25
 -21849372.20347 -16999782.79345  22378614.8524                   22378612.6684
      8700.73047     33853.18844  23577737.8444                   23577736.4384
 -13971616.38748 -10852628.81645  21582353.0554                   21582350.6294
 -31455718.62548 -24475621.54746  21175868.6724                   21175863.6524
 -22520724.89146 -17511193.42243  24229611.8054                   24229610.1374
 -25400288.05948 -19759275.35546  20875261.8984                   20875259.1254
 -26411138.03148 -20565098.08247  20262615.1884                   20262612.9384
 -13889138.06648 -10789079.47346  21794609.0554                   21794608.8554
 11  8 18  1 52  0.0000000  0  8G10G29G30G02G04G12G05G25
 -21794243.30147 -16956825.18745  22389105.4694                   22389103.2814
   -107265.93047    -56510.39844  23555670.2734                   23555668.7074
 -14022334.07448 -10892149.12145  21572701.6484                   21572700.0394
 -31456306.68748 -24476079.75446  21175756.8594                   21175751.9964
 -22473882.94146 -17474693.19143  24238525.0704                   24238524.3794
 -25403240.40247 -19761575.89546  20874699.8674                   20874697.4454
 -26453856.68048 -20598385.31647  20254486.4224                   20254483.7624
 -13958579.79748 -10843189.91446  21781394.5554                   21781394.5904
 11  8 18  1 52 30.0000000  0  8G10G29G30G02G04G12G05G25
 -21738743.55547 -16913578.62544  22399666.3284                   22399664.9414
   -223225.50047   -146868.46544  23533603.9144                   23533602.5394
 -14072417.07448 -10931174.87145  21563171.0554                   21563169.2304
 -31456753.01648 -24476427.52346  21175671.7504                   21175667.5164
 -22427070.69546 -17438216.13743  24247433.6024                   24247432.5434
 -25405611.69548 -19763423.66446  20874248.7424                   20874246.2814
 -26495971.06248 -20631201.69147  20246472.2664                   20246469.4884
 -14027442.83648 -10896849.44146  21768290.2034                   21768289.9924
 11  8 18  1 53  0.0000000  0  9G26G10G29G30G02G04G12G05G25
   7693118.40656   6019306.04352  24770473.2344                   24770473.4964
 -21682898.49247 -16870062.98844  22410293.8204                   22410291.6954
   -339199.28947   -237237.61344  23511534.7814                   23511532.9454
 -14121887.79748 -10969723.51245  21553757.0474                   21553755.4064
 -31457081.62148 -24476683.55546  21175609.1254                   21175604.4494
 -22380311.22346 -17401780.22343  24256331.5634                   24256330.7464
 -25407425.76248 -19764837.21946  20873903.3134                   20873901.2504
 -26537504.02748 -20663565.00847  20238568.7344                   20238566.3364
 -14095748.70748 -10950074.81646  21755292.2194                   21755291.9224
 11  8 18  1 53 30.0000000  0  9G26G10G29G30G02G04G12G05G25
   7567916.52746   5921746.25843  24746648.2584                   24746649.8444
 -21626701.17247 -16826272.85944  22420987.7194                   22420985.8674
   -455176.24647   -327609.26244  23489464.4454                   23489462.9884
 -14170736.18048 -11007787.22346  21544461.4064                   21544459.7894
 -31457282.61747 -24476840.15646  21175570.6724                   21175566.4734
 -22333595.15246 -17365378.07443  24265221.5704                   24265220.0474
 -25408674.47748 -19765810.24646  20873665.9694                   20873663.1214
 -26578445.80948 -20695467.66847  20230778.0234                   20230775.5944
 -14163486.52748 -11002857.53946  21742402.3984                   21742402.1214
 11  8 18  1 54  0.0000000  0  9G26G10G29G30G02G04G12G05G25
   7442597.84446   5824095.48443  24722800.1724                   24722801.7504
 -21570154.59447 -16782210.56644  22431747.8834                   22431746.1764
   -571155.18747   -417982.45344  23467394.9304                   23467393.2424
 -14218962.03948 -11045365.83646  21535284.4384                   21535283.0664
 -31457356.90248 -24476898.01646  21175556.7194                   21175552.3794
 -22286922.78546 -17329009.99643  24274102.7424                   24274101.9224
 -25409359.16848 -19766343.77046  20873535.5474                   20873532.9964
 -26618796.87548 -20726910.02347  20223099.3204                   20223096.8164
 -14230655.20348 -11055196.78946  21729620.3284                   21729620.3164
 11  8 18  1 54 30.0000000  0  9G26G10G29G30G02G04G12G05G25
   7317163.42646   5726354.47742  24698931.2584                   24698931.9614
 -21513263.26247 -16737879.65644  22442573.9614                   22442572.2624
   -687136.83247   -508357.74644  23445324.0314                   23445322.5204
 -14266566.91048 -11082460.55546  21526225.4534                   21526224.0314
 -31457306.93748 -24476859.05546  21175565.8834                   21175561.6724
 -22240296.49246 -17292677.82843  24282974.8054                   24282974.9884
 -25409482.29748 -19766439.71146  20873512.3984                   20873509.2194
 -26658559.32048 -20757893.71947  20215532.5944                   20215530.4924
 -14297255.32048 -11107093.00446  21716946.8364                   21716946.8244
 11  8 18  1 55  0.0000000  0  9G26G10G29G30G02G04G12G05G25
   7191604.80546   5628516.74643  24675038.0314                   24675038.8524
 -21456042.01247 -16693291.65644  22453463.1024                   22453460.7624
   -803131.41847   -598743.12544  23423251.0704                   23423249.7424
 -14313562.26248 -11119080.31645  21517282.5004                   21517280.6294
 -31457145.05948 -24476732.90646  21175596.7344                   21175592.6294
 -22193727.94546 -17256390.65643  24291836.8364                   24291837.0204
 -25409057.47748 -19766108.67646  20873592.9304                   20873590.2664
 -26697745.26248 -20788428.19547  20208076.0474                   20208073.1954
 -14363297.55548 -11158554.50446  21704378.7664                   21704379.3754
 11  8 18  1 55 30.0000000  0  9G26G10G29G30G02G04G12G05G25
   7065932.25446   5530590.22742  24651123.6334                   24651124.5004
 -21398485.84047 -16648442.68044  22464415.1414                   22464413.1914
   -919129.93747   -689131.57444  23401177.6174                   23401175.9614
 -14359940.16048 -11155218.95346  21508457.6254                   21508455.5394
 -31456864.16847 -24476514.01246  21175650.2894                   21175645.6804
 -22147210.05546 -17220142.91043  24300689.6024                   24300688.7384
 -25408078.35248 -19765345.72346  20873779.6024                   20873776.9694
 -26736346.98048 -20818507.43047  20200729.5234                   20200727.5664
 -14428773.00848 -11209574.34846  21691919.5864                   21691919.7854
 11  8 18  1 56  0.0000000  0  9G26G10G29G30G02G04G12G05G25
   6940151.85246   5432579.67642  24627187.5084                   24627189.0784
 -21340593.91447 -16603332.10244  22475431.7424                   22475429.2234
  -1035127.93046   -779519.59844  23379103.7344                   23379101.7034
 -14405697.12948 -11190873.73045  21499749.8364                   21499748.2384
 -31456461.38748 -24476200.15646  21175727.0784                   21175722.0554
 -22100739.58646 -17183932.10543  24309531.4384                   24309530.3164
 -25406542.53148 -19764148.97746  20874071.2274                   20874068.9694
 -26774361.57048 -20848129.17247  20193496.0554                   20193493.7234
 -14493677.30148 -11260149.12546  21679568.9924                   21679568.4494
 11  8 18  1 56 30.0000000  0  9G26G10G29G30G02G04G12G05G25
   6814262.18446   5334483.99243  24603231.5784                   24603232.5434
 -21282374.21547 -16557966.09044  22486511.2034                   22486508.5164
  -1151128.53547   -869909.64544  23357028.9614                   23357027.3204
 -14450837.57848 -11226048.09046  21491159.9144                   21491158.4304
 -31455942.18747 -24475795.57046  21175825.3754                   21175821.3714
 -22054321.24646 -17147762.01643  24318365.2424                   24318363.9064
 -25404456.40248 -19762523.42246  20874468.2814                   20874465.9654
 -26811793.64548 -20877296.99247  20186372.9844                   20186370.6764
 -14558013.91048 -11310281.55546  21667326.0314                   21667326.0704
 11  8 18  1 57  0.0000000  0  9G26G10G29G30G02G04G12G05G25
   6688270.79746   5236309.02743  24579256.2194                   24579257.3364
 -21223824.91047 -16512343.23845  22497652.0084                   22497650.0274
  -1267126.03547   -960297.30544  23334956.0084                   23334954.0944
 -14495356.92248 -11260738.47745  21482688.4304                   21482686.3954
 -31455302.15247 -24475296.83646  21175947.7974                   21175943.3984
 -22007950.82446 -17111629.18743  24327189.2974                   24327188.2854
 -25401816.83248 -19760466.61746  20874970.4924                   20874968.2584
 -26848639.32848 -20906007.89147  20179361.3444                   20179359.0594
 -14621777.34848 -11359967.34046  21655192.2814                   21655192.3134
 11  8 18  1 57 30.0000000  0  9G26G10G29G30G02G04G12G05G25
   6562178.51246   5138055.51643  24555261.0554                   24555262.3444
 -21164950.53947 -16466467.12544  22508855.6564                   22508853.2624
  -1383120.85247  -1050682.85544  23312882.5164                   23312881.3954
 -14539256.90648 -11294946.24246  21474334.6024                   21474332.7504
 -31454543.70748 -24474705.81646  21176092.1644                   21176087.3914
 -21961630.45246 -17075535.38143  24336003.8284                   24336003.5594
 -25398626.97748 -19757981.01646  20875577.7114                   20875575.0554
 -26884900.97348 -20934263.69147  20172461.0554                   20172458.1764
 -14684968.48848 -11409207.18746  21643167.5084                   21643167.2384
 11  8 18  1 58  0.0000000  0  9G26G10G29G30G02G04G12G05G25
   6435990.60546   5039727.43043  24531248.1804                   24531249.9614
 -21105751.97747 -16420338.37944  22520120.7814                   22520118.1374
  -1499109.62147  -1141063.67244  23290810.4144                   23290809.0904
 -14582535.43448 -11328669.74245  21466099.1094                   21466096.9964
 -31453665.52347 -24474021.50846  21176259.2114                   21176254.2194
 -21915358.54346 -17039479.31243  24344809.1804                   24344808.4064
 -25394886.27748 -19755066.19546  20876289.6644                   20876287.0634
 -26920576.61748 -20962062.87147  20165672.4534                   20165669.8714
 -14747584.19948 -11457998.64146  21631251.9924                   21631251.7894
 11  8 18  1 58 30.0000000  0  9G26G10G29G30G02G04G12G05G25
   6309705.17646   4941323.36743  24507216.9844                   24507217.4384
 -21046237.07447 -16373963.12144  22531445.8524                   22531443.2344
  -1615095.54747  -1231442.27344  23268739.2194                   23268737.7774
 -14625197.25448 -11361912.69546  21457980.5234                   21457978.6484
 -31452672.85248 -24473247.99246  21176448.0004                   21176443.3754
 -21869139.71546 -17003464.59443  24353603.4924                   24353603.4884
 -25390600.82848 -19751726.89146  20877105.2034                   20877102.6884
 -26955671.50848 -20989409.51647  20158993.8984                   20158991.3954
 -14809628.37548 -11506344.72746  21619445.3284                   21619444.9454
 11  8 18  1 59  0.0000000  0  9G26G10G29G30G02G04G12G05G25
   6183321.45346   4842842.70343  24483167.0474                   24483167.5434
 -20986412.05447 -16327346.23244  22542830.3364                   22542828.3954
  -1731081.04347  -1321820.53944  23246667.9064                   23246666.2074
 -14667245.98448 -11394677.92245  21449979.0634                   21449976.9804
 -31451570.09448 -24472388.69146  21176657.8834                   21176653.7854
 -21822978.22346 -16967494.56643  24362387.9224                   24362387.6454
 -25385775.71548 -19747967.06646  20878023.3984                   20878020.4454
 -26990189.62148 -21016306.72747  20152425.6804                   20152422.8244
 -14871103.79348 -11554247.63746  21607746.9924                   21607747.0944
 11  8 18  1 59 30.0000000  0  9G26G10G29G30G02G04G12G05G25
   6056854.75846   4744297.34843  24459101.7584                   24459102.3204
 -20926267.48447 -16280480.32444  22554275.0634                   22554273.5204
  -1847052.67247  -1412187.99644  23224599.2034                   23224597.4884
 -14708669.45348 -11426955.93445  21442096.1254                   21442094.0124
 -31450345.74648 -24471434.65646  21176890.7584                   21176886.6804
 -21776861.79347 -16931559.67643  24371163.9304                   24371163.5634
 -25380400.62948 -19743778.68746  20879046.1644                   20879043.1294
 -27024119.48848 -21042745.56247  20145968.5704                   20145966.2074
 -14931997.19948 -11601697.01646  21596159.1644                   21596159.2544
 11  8 18  2  0  0.0000000  0  9G26G10G29G30G02G04G12G05G25
   5930293.21146   4645678.10543  24435017.2504                   24435017.7704
 -20865821.50047 -16233379.55544  22565778.2894                   22565776.0514
  -1963023.97347  -1502555.20744  23202530.9144                   23202529.0984
 -14749482.69548 -11458758.44546  21434329.7114                   21434327.6174
 -31449014.97748 -24470397.67646  21177144.0634                   21177139.7504
 -21730805.72746 -16895671.79343  24379927.8834                   24379927.3284
 -25374491.90648 -19739174.50046  20880170.4694                   20880167.7734
 -27057476.50848 -21068738.02347  20139621.0314                   20139618.3054
 -14992322.75048 -11648703.91046  21584679.7894                   21584680.0084
 11  8 18  2  0 30.0000000  0  9G26G10G29G30G02G04G12G05G25
   5803657.55946   4547001.09043  24410919.7734                   24410919.7854
 -20805059.15247 -16186032.27344  22577341.2194                   22577339.1214
  -2078975.97347  -1592907.37544  23180465.8444                   23180464.2154
 -14789668.05148 -11490071.68045  21426683.0394                   21426680.7464
 -31447560.22748 -24469264.09846  21177421.0004                   21177416.6134
 -21684792.46146 -16859817.25043  24388683.0704                   24388683.3014
 -25368033.05548 -19734141.63346  20881399.4924                   20881397.0394
 -27090243.41848 -21094270.65247  20133385.6884                   20133383.3134
 -15052061.83648 -11695253.82046  21573311.5164                   21573311.7734
 11  8 18  2  1  0.0000000  0  9G26G10G29G30G02G04G12G05G25
   5676945.20346   4448264.28143  24386806.9144                   24386807.3364
 -20743988.71147 -16138444.92244  22588962.0314                   22588960.4344
  -2194912.50847  -1683247.50444  23158403.6414                   23158402.6484
 -14829231.15648 -11520900.05546  21419154.0634                   21419152.2464
 -31445988.07448 -24468039.01646  21177720.0084                   21177716.0744
 -21638827.65646 -16824000.52343  24397430.5084                   24397430.2854
 -25361031.78148 -19728686.10546  20882731.9064                   20882729.5594
 -27122426.28548 -21119348.19547  20127261.1564                   20127259.0274
 -15111219.10248 -11741350.35246  21562054.0704                   21562054.2464
 11  8 18  2  1 30.0000000  0  9G26G10G29G30G02G04G12G05G25
   5550155.89846   4349467.56343  24362678.8054                   24362680.1414
 -20682616.48847 -16090622.40644  22600641.0554                   22600638.8244
  -2310835.46947  -1773577.05545  23136344.6094                   23136342.9574
 -14868175.44948 -11551246.25045  21411743.2974                   21411741.5354
 -31444302.14848 -24466725.28546  21178040.8054                   21178036.3874
 -21592914.93046 -16788224.34443  24406167.9614                   24406167.2894
 -25353492.55948 -19722811.39146  20884166.7274                   20884164.1174
 -27154028.93448 -21143973.60547  20121247.6254                   20121244.6134
 -15169797.11348 -11786995.52746  21550907.4614                   21550907.8834
 11  8 18  2  2  0.0000000  0  9G26G10G29G30G02G04G12G05G25
   6998715.92646   5478215.75043  24638331.1564                   24638331.4734
 -19045528.37147 -14814969.32444  22912168.4844                   22912166.0234
   -851320.71547   -636292.79745  23414080.7344                   23414079.3404
 -13331080.84048 -10353510.17646  21704242.3524                   21704240.7074
 -29867083.96947 -23237724.08246  21478175.3674                   21478170.7154
 -19971636.88346 -15524890.79743  24714686.5554                   24714685.8874
 -23769998.49248 -18488919.91446  21185495.5944                   21185492.8874
 -25609631.77748 -19940547.23047  20415136.7504                   20415134.1484
 -13652374.14848 -10604587.99646  21839663.3914                   21839663.5274
 11  8 18  2  2 30.0000000  0  9G26G10G29G30G02G04G12G05G25
   6871774.83246   5379300.75043  24614175.0634                   24614175.3094
 -18983568.22746 -14766688.69944  22923958.6254                   22923957.0434
   -967219.56647   -726603.55944  23392025.9614                   23392024.4734
 -13368795.22348 -10382897.99645  21697065.7974                   21697063.9574
 -29865179.09047 -23236239.74246  21478537.9454                   21478533.1054
 -19925835.88746 -15489201.70343  24723402.0314                   24723401.6954
 -23761395.44948 -18482216.25446  21187132.7034                   21187130.0864
 -25640082.82848 -19964275.29747  20409342.1414                   20409339.5044
 -13709798.40248 -10649334.14146  21828735.6174                   21828735.4964
 11  8 18  2  3  0.0000000  0  9G26G10G29G30G02G04G12G05G25
   6744762.39546   5280330.18443  24590004.5554                   24590005.4184
 -18921318.24247 -14718182.22744  22935804.6254                   22935802.9454
  -1083103.98847   -816903.06644  23369974.0314                   23369972.1884
 -13405894.85548 -10411806.78145  21690005.9614                   21690003.9654
 -29863165.41848 -23234670.63346  21478921.3914                   21478916.1254
 -19880090.75846 -15453556.14543  24732107.7424                   24732106.7774
 -23752262.98448 -18475100.04346  21188870.5864                   21188867.7464
 -25669958.94948 -19987555.35947  20403656.7504                   20403654.4924
 -13766644.55548 -10693629.80146  21817918.3054                   21817918.3634
 11  8 18  2  3 30.0000000  0  9G26G10G29G30G02G04G12G05G25
   6617686.83246   5181310.36743  24565823.3754                   24565823.7424
 -18858776.47347 -14669448.40244  22947705.7504                   22947703.9804
  -1198967.89547   -907186.61345  23347925.8204                   23347924.2894
 -13442375.29747 -10440233.09846  21683063.9064                   21683062.0944
 -29861038.80948 -23233013.52746  21479325.7894                   21479321.0904
 -19834397.19146 -15417950.78143  24740803.5474                   24740801.4494
 -23742598.23048 -18467569.07846  21190709.3134                   21190707.1174
 -25699256.15648 -20010384.34847  20398081.7194                   20398078.9884
 -13822907.22348 -10737470.82046  21807211.8444                   21807212.0664
 11  8 18  2  4  0.0000000  0  9G26G10G29G30G02G04G12G05G25
   6490555.25846   5082246.96143  24541630.6174                   24541631.4734
 -18795941.47347 -14620486.05944  22959663.5554                   22959660.8914
  -1314805.42647   -997449.60544  23325882.3444                   23325880.8444
 -13478232.37948 -10468173.68745  21676240.2814                   21676238.8054
 -29858794.85548 -23231264.98446  21479752.7344                   21479748.0944
 -19788750.85546 -15382382.19143  24749488.2894                   24749487.3834
 -23732398.38348 -18459621.15246  21192650.6484                   21192648.0704
 -25727970.48848 -20032759.13347  20392617.7814                   20392614.9774
 -13878581.23448 -10780853.14846  21796617.3364                   21796617.6804
 11  8 18  2  4 30.0000000  0  9G26G10G29G30G02G04G12G05G25
   6363365.99246   4983138.59843  24517427.0164                   24517427.5864
 -18732821.10247 -14571301.35944  22971674.9614                   22971672.5634
  -1430620.23447  -1087694.88744  23303843.9304                   23303842.0164
 -13513471.32048 -10495632.60245  21669534.9384                   21669533.2234
 -29856439.18047 -23229429.36746  21480200.8834                   21480197.0354
 -19743156.69146 -15346854.28942  24758164.7584                   24758163.8954
 -23721670.03148 -18451261.40646  21194692.1884                   21194689.5084
 -25756107.96548 -20054684.41447  20387263.3054                   20387260.5274
 -13933670.89848 -10823780.14546  21786134.4144                   21786134.0594
 11  8 18  2  5  0.0000000  0  9G26G10G29G30G02G04G12G05G25
   6236113.24246   4883980.77343  24493211.7274                   24493211.7584
 -18669426.93747 -14521903.28544  22983738.1174                   22983735.2274
  -1546419.37947  -1177927.94144  23281807.4774                   23281806.4064
 -13548101.45748 -10522617.12945  21662944.6644                   21662943.0664
 -29853981.19947 -23227514.03946  21480668.5004                   21480664.1524
 -19697623.77746 -15311374.11743  24766830.4224                   24766828.3244
 -23710423.94148 -18442498.21946  21196832.3594                   21196829.5864
 -25783678.06648 -20076167.59847  20382016.5314                   20382014.2074
 -13988184.47348 -10866258.23446  21775760.6804                   21775760.1174
 11  8 18  2  5 30.0000000  0  9G26G10G29G30G02G04G12G05G25
   6108812.14846   4784785.29343  24468987.5474                   24468986.7934
 -18605750.06247 -14472284.93444  22995855.7194                   22995853.5664
  -1662189.30947  -1268138.27044  23259777.0864                   23259775.8524
 -13582111.05147 -10549118.11346  21656473.2584                   21656471.5434
 -29851409.27748 -23225509.91446  21481158.0944                   21481153.9264
 -19652140.23046 -15275932.33243  24775485.0234                   24775484.1454
 -23698649.60248 -18433323.41846  21199072.7424                   21199069.9924
 -25810669.36348 -20097199.75047  20376880.2814                   20376877.6024
 -14042109.31248 -10908277.59446  21765498.9844                   21765498.8594
 11  8 18  2  6  0.0000000  0  8G26G10G29G30G02G12G05G25
   5981457.96146   4685548.39843  24444752.2504                   24444752.3874
 -18541800.66847 -14422454.24644  23008024.2734                   23008022.7504
  -1777936.75447  -1358331.04344  23237751.4454                   23237750.0084
 -13615508.29348 -10575141.92646  21650117.6954                   21650115.9534
 -29848731.62548 -23223423.41046  21481667.8674                   21481663.1054
 -23686356.76648 -18423744.58246  21201411.9694                   21201409.3914
 -25837090.78948 -20117787.85547  20371852.6414                   20371849.9774
 -14095452.70348 -10949843.86746  21755348.0704                   21755348.2074
 11  8 18  2  6 30.0000000  0  8G26G10G29G30G02G12G05G25
   5854058.88747   4586276.54343  24420509.7504                   24420509.0044
 -18477576.94147 -14372409.77044  23020246.2734                   23020244.0594
  -1893654.90647  -1448500.99244  23215730.9384                   23215729.0004
 -13648288.66848 -10600685.07045  21643879.7974                   21643878.3524
 -29845943.68048 -23221250.96546  21482198.2664                   21482193.8714
 -23673542.50848 -18413759.44946  21203850.3754                   21203848.2034
 -25862938.02348 -20137928.54347  20366934.0554                   20366931.2274
 -14148209.03148 -10990952.68746  21745308.9774                   21745309.0084
 11  8 18  2  7  0.0000000  0  8G26G10G29G30G02G12G05G25
   5726628.56347   4486980.33643  24396260.1254                   24396258.8444
 -18413071.51647 -14322145.78544  23032520.9304                   23032519.7234
  -2009332.10947  -1538639.04744  23193717.6804                   23193717.0204
 -13680442.38348 -10625739.90245  21637761.1724                   21637759.7774
 -29843035.70348 -23218984.99646  21482751.3364                   21482746.8954
 -23660198.14548 -18403361.24646  21206389.9224                   21206387.1994
 -25888201.43448 -20157614.30147  20362126.5394                   20362123.7114
 -14200367.53948 -11031595.68746  21735383.4224                   21735383.5664
 11  8 18  2  7 30.0000000  0  8G26G10G29G30G02G12G05G25
   5599165.96147   4387658.96943  24372004.7194                   24372003.8714
 -18348291.37147 -14271667.76244  23044847.8444                   23044846.7234
  -2124970.81247  -1628747.13144  23171712.7274                   23171711.0984
 -13711973.89148 -10650309.91046  21631760.8134                   21631759.1564
 -29840012.19948 -23216629.01246  21483327.0084                   21483322.2114
 -23646329.79348 -18392554.74246  21209029.0394                   21209026.0594
 -25912885.87948 -20176848.91047  20357429.0084                   20357426.0824
 -14251931.77048 -11071775.60546  21725571.4304                   21725571.4184
 11  8 18  2  8  0.0000000  0  8G26G10G29G30G02G12G05G25
   5471665.69147   4288308.25843  24347741.7424                   24347741.9774
 -18283247.64147 -14220984.31644  23057225.7814                   23057223.8244
  -2240577.97347  -1718830.58644  23149713.5944                   23149712.3954
 -13742892.16447 -10674402.06646  21625877.3754                   21625875.7894
 -29836881.99248 -23214189.87146  21483922.9534                   21483917.8674
 -23631947.57448 -18381347.81646  21211765.6644                   21211763.1334
 -25937000.87948 -20195639.80547  20352840.1644                   20352837.5514
 -14302909.57448 -11111498.57046  21715870.4224                   21715870.7114
 11  8 18  2  8 30.0000000  0  8G26G10G29G30G02G12G05G25
   5344133.81647   4188932.91043  24323473.3284                   24323472.2114
 -18217940.33346 -14170095.51344  23069652.8834                   23069651.1374
  -2356149.02047  -1808885.91444  23127721.0784                   23127719.2544
 -13773194.85948 -10698014.53945  21620111.1414                   21620109.4454
 -29833642.52748 -23211665.59846  21484539.1334                   21484533.9924
 -23617050.60948 -18369739.78946  21214600.4534                   21214597.9344
 -25960544.32848 -20213985.32847  20348360.2734                   20348357.5824
 -14353297.75448 -11150762.09446  21706282.0554                   21706281.8054
 11  8 18  2  9  0.0000000  0  8G26G10G29G30G02G12G05G25
   5216580.85247   4089541.14143  24299199.9224                   24299200.4024
 -18152364.73047 -14118997.64844  23082131.6804                   23082129.8914
  -2471675.11347  -1898906.21145  23105737.1484                   23105735.5434
 -13802875.28947 -10721142.12945  21614462.8524                   21614460.8554
 -29830286.85247 -23209050.75846  21485177.5784                   21485173.0434
 -23601633.34048 -18357726.34446  21217534.3594                   21217531.5784
 -25983510.05548 -20231880.69147  20343989.9454                   20343987.3554
 -14403088.52748 -11189560.10546  21696807.1024                   21696806.9224
 11  8 18  2  9 30.0000000  0  8G26G10G29G30G02G12G05G25
   5089004.72346   3990131.32843  24274922.9384                   24274923.4344
 -18086529.14146 -14067697.19144  23094660.2034                   23094657.4064
  -2587160.07447  -1988894.45345  23083761.0554                   23083759.5864
 -13831939.41447 -10743789.48846  21608932.0864                   21608930.3484
 -29826821.05947 -23206350.12546  21485836.9144                   21485832.0124
 -23585703.11748 -18345313.17646  21220565.7344                   21220563.1564
 -26005903.96948 -20249330.47747  20339728.4614                   20339725.4574
 -14452286.89548 -11227896.48446  21687444.7734                   21687445.2384
 11  8 18  2 10  0.0000000  0  8G26G10G29G30G02G12G05G25
   4961411.99646   3890708.56643  24250643.0474                   24250643.0004
 -18020433.05547 -14016193.70744  23107237.2274                   23107234.6134
  -2702599.12947  -2078846.92245  23061793.9144                   23061792.5274
 -13860384.57447 -10765954.53145  21603519.3364                   21603517.1054
 -29823241.90248 -23203561.14846  21486518.0234                   21486513.1804
 -23569258.91848 -18332499.52046  21223694.9844                   21223692.6524
 -26027723.93448 -20266333.02747  20335576.1024                   20335573.9844
 -14500889.09848 -11265768.33246  21678196.3754                   21678196.2034
 11  8 18  2 10 30.0000000  0  8G26G10G29G30G02G12G05G25
   4833794.91446   3791266.83643  24226357.9454                   24226357.3444
 -17954090.39146 -13964498.13344  23119862.1024                   23119859.1764
  -2818001.41847  -2168770.74245  23039833.5944                   23039831.5984
 -13888222.27047 -10787646.23445  21598221.6334                   21598220.2774
 -29819560.55948 -23200692.55546  21487218.3914                   21487213.9184
 -23552313.53548 -18319295.32046  21226919.7424                   21226916.9614
 -26048982.00048 -20282897.73847  20331530.8914                   20331528.4614
 -14548905.74648 -11303183.89846  21669058.8204                   21669058.6684
 11  8 18  2 11  0.0000000  0  8G26G10G29G30G02G12G05G25
   4706153.88746   3691806.46943  24202068.8834                   24202068.6054
 -17887506.72746 -13912614.75844  23132532.5944                   23132529.6954
  -2933368.19947  -2258666.87145  23017879.7034                   23017878.2544
 -13915456.03148 -10808867.34045  21593039.2894                   21593037.7384
 -29815780.27048 -23197746.85546  21487937.9924                   21487933.3164
 -23534871.46948 -18305704.09846  21230239.0004                   21230236.1454
 -26069681.85948 -20299027.48047  20327591.9614                   20327588.9264
 -14596339.34448 -11340145.14146  21660032.5234                   21660032.5664
 11  8 18  2 11 30.0000000  0  8G26G10G29G30G02G12G05G25
   4578490.52346   3592328.67243  24177775.4844                   24177774.9804
 -17820686.61746 -13860547.15644  23145248.4144                   23145246.0634
  -3048699.75847  -2348535.57845  22995933.1954                   22995931.3794
 -13942088.37548 -10829619.80145  21587971.6644                   21587969.7194
 -29811903.11748 -23194725.69546  21488675.8444                   21488671.3134
 -23516936.82848 -18291729.05146  21233651.7194                   21233648.7934
 -26089826.38348 -20314724.49647  20323758.3444                   20323755.7624
 -14643191.41848 -11376653.22746  21651117.2344                   21651116.7734
 11  8 18  2 12  0.0000000  0  8G26G10G29G30G02G12G05G25
   4450813.60046   3492840.30943  24153479.0864                   24153478.8284
 -17753626.86347 -13808292.82044  23158009.2034                   23158007.2194
  -3163988.41447  -2438370.85245  22973994.2504                   22973992.5864
 -13968114.06648 -10849899.57046  21583018.7664                   21583017.1054
 -29807923.81248 -23191624.92246  21489432.7974                   21489428.6564
 -23498505.79348 -18277367.19546  21237158.9924                   21237156.1644
 -26109410.66048 -20329984.95347  20320031.5864                   20320028.7734
 -14689455.64148 -11412703.26246  21642313.6094                   21642313.1024
 11  8 18  2 12 30.0000000  0  8G26G10G29G30G02G12G05G25
   4323129.25446   3393346.17243  24129181.4844                   24129181.4184
 -17686328.13347 -13755852.26644  23170815.3364                   23170813.6454
  -3279230.09447  -2528169.50845  22952064.5704                   22952062.5514
 -13993531.43448 -10869705.30945  21578182.0474                   21578180.3984
 -29803840.03948 -23188442.74246  21490210.1334                   21490205.5744
 -23479577.75848 -18262618.08646  21240760.7504                   21240758.4264
 -26128433.37148 -20344807.82847  20316411.7194                   20316408.9774
 -14735129.44548 -11448293.21946  21633622.0394                   21633621.7034
 11  8 18  2 13  0.0000000  0  8G26G10G29G30G02G12G05G25
   4195444.67246   3293851.81344  24104884.1414                   24104883.8834
 -17618789.13347 -13703224.48444  23183667.4924                   23183666.0744
  -3394419.39547  -2617927.35945  22930144.2584                   22930143.1914
 -14018337.34448 -10889034.59845  21573462.0234                   21573460.0744
 -29799648.25048 -23185176.39846  21491007.5634                   21491002.9774
 -23460150.96948 -18247480.32846  21244457.7424                   21244455.2114
 -26146891.64148 -20359190.87147  20312899.1024                   20312896.9414
 -14780208.56648 -11483419.79346  21625043.7274                   21625043.1604
 11  8 18  2 13 30.0000000  0  8G26G10G29G30G02G12G05G25
   4067753.58246   3194352.37943  24080585.2664                   24080584.7304
 -17551022.12547 -13650419.01644  23196563.5234                   23196561.7624
  -3509563.91847  -2707650.30945  22908233.2504                   22908230.9804
 -14042541.95747 -10907895.33245  21568855.8054                   21568853.4734
 -29795358.24648 -23181833.52346  21491824.5704                   21491819.4414
 -23440237.13748 -18231963.06246  21248246.9694                   21248244.4534
 -26164796.01648 -20373142.30547  20309491.8524                   20309489.3014
 -14824702.28948 -11518090.20746  21616576.9224                   21616576.4804
 11  8 18  2 14  0.0000000  0  8G26G10G29G30G02G12G05G25
   3940051.13347   3094844.10943  24056284.2194                   24056282.7424
 -17483038.06646 -13597444.44544  23209500.2274                   23209498.6334
  -3624670.09447  -2797343.38345  22886329.0554                   22886327.4774
 -14066154.22747 -10926294.52045  21564362.5704                   21564360.3954
 -29790978.30148 -23178420.57446  21492658.0784                   21492653.2194
 -23419846.14548 -18216073.98846  21252127.2344                   21252125.0164
 -26182155.60548 -20386669.23847  20306188.6254                   20306185.6524
 -14868618.53148 -11552310.64146  21608219.3834                   21608219.2854
 11  8 18  2 14 30.0000000  0  8G26G10G29G30G02G12G05G25
   3812353.29747   2995339.41444  24031984.1414                   24031982.6954
 -17414827.07046 -13544293.02744  23222480.7664                   23222478.1054
  -3739723.63347  -2886995.42645  22864435.5314                   22864434.0314
 -14089162.50847 -10944223.05545  21559984.3054                   21559982.2424
 -29786496.18048 -23174928.01246  21493510.3914                   21493506.0474
 -23398967.46148 -18199804.89146  21256100.3674                   21256097.8914
 -26198958.87148 -20399762.67247  20302990.8594                   20302988.1804
 -14911944.55548 -11586071.16046  21599974.8204                   21599974.8834
 11  8 18  2 15  0.0000000  0  8G26G10G29G30G02G12G05G25
   3684665.30147   2895842.40243  24007685.3054                   24007684.6374
 -17346390.01247 -13490965.44544  23235503.8444                   23235501.5514
  -3854721.05947  -2976603.75845  22842551.8284                   22842550.2734
 -14111565.90247 -10961680.26645  21555721.3364                   21555719.4024
 -29781910.48448 -23171354.71946  21494383.1024                   21494378.6294
 -23377601.64848 -18183156.19946  21260166.1414                   21260163.8054
 -26215205.34848 -20412422.24647  20299899.5314                   20299896.9494
 -14954678.51648 -11619370.34446  21591842.7734                   21591842.6994
 11  8 18  2 15 30.0000000  0  8G26G10G29G30G02G12G05G25
   3556988.90647   2796354.42243  23983389.7034                   23983387.8284
 -17277731.16047 -13437465.04744  23248568.7894                   23248566.7114
  -3969662.32847  -3066168.31645  22820678.8364                   22820677.7384
 -14133366.60948 -10978667.83645  21551572.4144                   21551570.7934
 -29777222.58248 -23167701.79746  21495274.5314                   21495271.1604
 -23355752.20748 -18166130.65646  21264323.9384                   21264321.1684
 -26230897.91048 -20424650.20347  20296913.3204                   20296910.4454
 -14996821.55548 -11652209.07446  21583823.1884                   21583823.0044
 11  8 18  2 16  0.0000000  0  8G26G10G29G30G02G12G05G25
   3429321.72746   2696873.58243  23959094.8594                   23959092.9574
 -17208859.39847 -13383798.73844  23261674.9454                   23261672.2344
  -4084551.38747  -3155692.20745  22798816.5554                   22798814.5704
 -14154571.65248 -10995191.27046  21547537.4844                   21547535.6914
 -29772438.97348 -23163974.28946  21496185.1174                   21496181.5554
 -23333427.29748 -18148734.63346  21268572.0864                   21268569.7664
 -26246043.77048 -20436452.15647  20294031.1564                   20294028.3954
 -15038379.77048 -11684592.09446  21575914.8914                   21575915.0784
 11  8 18  2 16 30.0000000  0  8G26G10G29G30G02G12G05G25
   3301665.30546   2597401.11743  23934802.4534                   23934801.5864
 -17139779.09047 -13329969.93043  23274820.4924                   23274817.5084
  -4199388.05547  -3245175.26645  22776963.5634                   22776962.0354
 -14175183.50448 -11011252.47346  21543615.1954                   21543613.3874
 -29767561.53948 -23160173.67646  21497113.4924                   21497108.7704
 -23310630.53548 -18130970.91446  21272910.2734                   21272907.6914
 -26260645.21948 -20447829.89147  20291252.3054                   20291249.9804
 -15079354.54348 -11716520.49246  21568118.0554                   21568117.7704
 11  8 18  2 17  0.0000000  0  8G26G10G29G30G02G12G05G25
   3174017.32446   2497935.26643  23910511.9224                   23910510.8444
 -17070498.32047 -13275984.91843  23288004.6094                   23288000.8954
  -4314176.43047  -3334620.70345  22755120.0554                   22755119.0864
 -14195208.78548 -11026856.59845  21539804.2814                   21539802.6054
 -29762596.25848 -23156304.62546  21498058.5394                   21498053.8204
 -23287369.90648 -18112845.75446  21277336.8444                   21277334.2344
 -26274709.17248 -20458788.80547  20288576.1094                   20288573.2734
 -15119751.53148 -11747998.65246  21560430.4144                   21560430.2304
 11  8 18  2 17 30.0000000  0  8G26G10G29G30G02G12G05G25
   3046399.69546   2398493.03543  23886227.8984                   23886225.7664
 -17001001.78947 -13221831.79543  23301229.1484                   23301225.8554
  -4428896.37947  -3424012.81245  22733289.6804                   22733287.3794
 -14214630.27348 -11041990.24646  21536108.9844                   21536106.7814
 -29757524.78548 -23152352.84046  21499023.5634                   21499018.9534
 -23263629.18748 -18094346.48846  21281854.5234                   21281851.8134
 -26288218.88348 -20469315.82047  20286005.3054                   20286002.8484
 -15159552.41448 -11779012.32846  21552856.6484                   21552856.6054
 11  8 18  2 18  0.0000000  0  8G26G10G29G30G02G12G05G25
   2918815.05146   2299076.46543  23861948.4224                   23861947.2344
 -16931293.03946 -13167513.26243  23314494.0084                   23314491.2734
  -4543546.82447  -3513350.77745  22711472.4924                   22711470.3754
 -14233449.78548 -11056654.81246  21532527.3054                   21532525.6564
 -29752348.33648 -23148319.22746  21500008.6724                   21500003.2544
 -23239411.69548 -18075475.71946  21286462.6564                   21286460.2624
 -26301176.28548 -20479412.48047  20283539.5554                   20283536.9144
 -15198757.98448 -11809562.12946  21545396.2274                   21545395.8794
 11  8 18  2 18 30.0000000  0  8G26G10G29G30G02G12G05G25
   2791260.89546   2199683.68043  23837675.5394                   23837674.5234
 -16861380.41047 -13113035.85544  23327798.1334                   23327794.9884
  -4658131.52747  -3602637.50045  22689667.3914                   22689665.5864
 -14251673.92248 -11070855.44546  21529059.4534                   21529057.5004
 -29747072.64548 -23144208.28546  21501012.4774                   21501008.2344
 -23214725.14548 -18056239.44546  21291160.5314                   21291158.1094
 -26313588.68448 -20489084.46147  20281177.6644                   20281174.9534
 -15237373.98448 -11839652.52046  21538047.5314                   21538047.3404
 11  8 18  2 19  0.0000000  0  8G26G10G29G30G02G12G05G25
   2663736.85946   2100314.37543  23813407.8054                   23813407.4454
 -16791270.73447 -13058404.95344  23341138.9614                   23341137.2074
  -4772653.01247  -3691874.94945  22667874.8444                   22667873.3094
 -14269307.89548 -11084596.19945  21525703.7734                   21525701.7234
 -29741701.85948 -23140023.24246  21502034.4534                   21502029.7584
 -23189575.84848 -18036642.59846  21295946.3834                   21295944.1524
 -26325461.04348 -20498335.62947  20278918.2504                   20278915.7504
 -15275404.41848 -11869286.62546  21530810.6334                   21530810.3984
 11  8 18  2 19 30.0000000  0  8G26G10G29G30G02G12G05G25
   2536249.73046   2000973.85243  23789148.3674                   23789147.6054
 -16720962.78146 -13003619.57044  23354518.3594                   23354516.9844
  -4887105.82447  -3781058.90645  22646095.1254                   22646093.2814
 -14286349.20348 -11097875.14546  21522461.2734                   21522459.3554
 -29736232.78148 -23135761.61746  21503075.5004                   21503070.7074
 -23163962.20748 -18016683.92246  21300820.3524                   21300817.7774
 -26336790.84848 -20507164.03147  20276762.3754                   20276759.5004
 -15312845.90248 -11898461.80946  21523686.0084                   21523685.7304
 11  8 18  2 20  0.0000000  0  8G26G10G29G30G02G12G05G25
   2408805.55546   1901666.78943  23764896.6414                   23764896.2974
 -16650457.08247 -12948680.06644  23367935.5784                   23367933.3404
  -5001485.93747  -3870186.21145  22624329.6414                   22624327.9694
 -14302796.70348 -11110691.37145  21519331.1724                   21519329.3874
 -29730663.22348 -23131421.69546  21504135.2504                   21504130.3404
 -23137884.68047 -17996363.77046  21305783.0704                   21305780.4694
 -26347577.46148 -20515569.16447  20274709.6954                   20274707.0554
 -15349696.19148 -11927176.32846  21516673.4844                   21516673.2384
 11  8 18  2 20 30.0000000  0  8G26G10G29G30G02G12G05G25
   2281392.66446   1802384.08244  23740650.5864                   23740650.3834
 -16579771.73047 -12893600.57044  23381386.2034                   23381384.9734
  -5115806.60547  -3959267.18745  22602574.7974                   22602572.9614
 -14318666.49648 -11123057.42645  21516310.9454                   21516309.0984
 -29725008.47348 -23127015.40646  21505211.3444                   21505206.5044
 -23111360.18447 -17975695.34046  21310830.3914                   21310828.0004
 -26357837.61348 -20523564.06247  20272757.3134                   20272754.3014
 -15385970.47348 -11955442.01246  21509770.9064                   21509770.9144
 11  8 18  2 21  0.0000000  0  8G26G10G29G30G02G12G05G25
   2154031.53946   1703141.73844  23716414.6644                   23716414.1954
 -16508892.09047 -12838369.71544  23394875.0084                   23394872.1884
  -5230048.64147  -4048286.88345  22580835.3204                   22580833.4454
 -14333942.75848 -11134960.99645  21513404.0864                   21513402.4104
 -29719251.61748 -23122529.54746  21506306.7344                   21506301.7504
 -23084374.48848 -17954667.52346  21315965.4774                   21315963.3324
 -26367555.12948 -20531136.12947  20270907.9384                   20270905.1414
 -15421651.79748 -11983245.63346  21502980.6254                   21502980.3674
 11  8 18  2 21 30.0000000  0  8G26G10G29G30G02G12G05G25
   2026707.64146   1603928.38743  23692185.5554                   23692185.1134
 -16437838.89547 -12783003.60944  23408395.9924                   23408393.4804
  -5344228.32447  -4137258.02045  22559107.3054                   22559105.4024
 -14348644.76248 -11146417.09045  21510606.6884                   21510604.7424
 -29713411.05548 -23117978.45346  21507418.3054                   21507413.2584
 -23056947.66847 -17933295.98446  21321184.7344                   21321182.0704
 -26376749.68048 -20538300.69947  20269158.3524                   20269155.4844
 -15456758.49648 -12010601.50046  21496300.3984                   21496300.4414
 11  8 18  2 22  0.0000000  0  8G26G10G29G30G02G12G05G25
   1899438.50046   1504757.70744  23667967.1484                   23667966.9024
 -16366600.44947 -12727493.16844  23421951.6094                   23421948.8404
  -5458329.64547  -4226168.07845  22537395.0314                   22537393.0744
 -14362759.57048 -11157415.62545  21507920.9694                   21507918.7034
 -29707472.46148 -23113350.98446  21508547.9304                   21508543.7384
 -23029067.76648 -17911571.39846  21326489.8284                   21326487.6644
 -26385408.50448 -20545047.81647  20267510.1644                   20267508.0744
 -15491276.52348 -12037498.66846  21489731.6024                   21489731.6254
 11  8 18  2 22 30.0000000  0  8G26G10G29G30G02G12G05G25
   1772231.81647   1405635.68044  23643760.2584                   23643759.4064
 -16295175.93447 -12671837.71943  23435543.3524                   23435540.5204
  -5572347.33247  -4315012.96945  22515698.2814                   22515695.9344
 -14376284.54748 -11167954.55146  21505346.8364                   21505345.0394
 -29701432.05148 -23108644.17246  21509697.6094                   21509693.1994
 -23000733.21548 -17889492.54346  21331881.6254                   21331879.4454
 -26393529.27348 -20551375.67247  20265965.0944                   20265962.0824
 -15525202.30548 -12063934.34046  21483275.6804                   21483275.3914
 11  8 18  2 23  0.0000000  0  8G26G10G29G30G02G12G05G25
   1645083.43047   1306559.13744  23619564.8444                   23619564.1214
 -16223575.28547 -12616045.02043  23449168.6414                   23449165.6214
  -5686285.86747  -4403796.19945  22494016.3054                   22494013.6684
 -14389228.20348 -11178040.49645  21502883.8984                   21502881.5044
 -29695297.52348 -23103864.01246  21510864.4454                   21510860.2734
 -22971953.77347 -17867067.00046  21337358.2114                   21337355.7114
 -26401120.56248 -20557290.94147  20264520.7114                   20264517.7934
 -15558543.26648 -12089914.29746  21476931.1094                   21476931.3634
 11  8 18  2 23 30.0000000  0  8G26G10G29G30G02G12G05G25
   1517995.81347   1207529.88744  23595380.9454                   23595379.8634
 -16151801.89147 -12560117.74243  23462826.3984                   23462823.5434
  -5800144.79347  -4492517.39545  22472349.4774                   22472347.3404
 -14401592.99648 -11187675.37545  21500530.8834                   21500529.0314
 -29689069.87148 -23099011.28146  21512050.3134                   21512045.7704
 -22942733.02048 -17844297.58646  21342919.3204                   21342916.5084
 -26408185.05548 -20562795.73047  20263176.5314                   20263173.2034
 -15591300.92248 -12115439.73446  21470697.6414                   21470697.5274
 11  8 18  2 24  0.0000000  0  9G26G10G29G30G02G15G12G05G25
   1390973.20747   1108551.33244  23571209.0394                   23571208.4964
 -16079857.87947 -12504057.50043  23476517.1254                   23476514.7854
  -5913921.80148  -4581174.75445  22450698.3054                   22450696.7034
 -14413379.56248 -11196859.69545  21498287.6564                   21498286.1254
 -29682748.69948 -23094085.70346  21513252.8984                   21513248.4694
   9268051.77756   7251811.35553  24481141.5864                   24481141.2814
 -22913072.75847 -17821185.70346  21348563.1954                   21348560.8364
 -26414723.25048 -20567890.41447  20261932.2424                   20261929.1844
 -15623474.88348 -12140510.34846  21464575.1254                   21464575.1994
 11  8 18  2 24 30.0000000  0  9G26G10G29G30G02G15G12G05G25
   1264013.42647   1009621.72344  23547049.8444                   23547048.5434
 -16007751.95747 -12447871.09043  23490237.9454                   23490235.8674
  -6027620.64547  -4669771.20745  22429061.7734                   22429060.3204
 -14424595.09448 -11205599.05145  21496153.7424                   21496151.5084
 -29676340.04348 -23089091.94546  21514472.4144                   21514467.7114
   9142482.62946   7153965.43043  24457246.4384                   24457245.8204
 -22882980.77047 -17797737.40246  21354289.5784                   21354286.9344
 -26420742.55148 -20572580.75047  20260786.4064                   20260783.8594
 -15655071.33648 -12165130.94146  21458562.4384                   21458562.1294
 11  8 18  2 25  0.0000000  0  9G26G10G29G30G02G15G12G05G25
   1137126.97747    910749.26244  23522903.8984                   23522903.1524
 -15935479.43047 -12391554.83643  23503991.1334                   23503989.3714
  -6141232.35947  -4758299.77345  22407442.4304                   22407440.4654
 -14435233.89148 -11213889.01645  21494129.0474                   21494126.8754
 -29669836.52348 -23084024.27046  21515710.0474                   21515705.3444
   9016794.08246   7056026.44543  24433328.7274                   24433328.1454
 -22852452.77748 -17773949.36346  21360098.7664                   21360096.4144
 -26426237.75048 -20576862.70747  20259741.0784                   20259738.4774
 -15686083.48848 -12189296.22746  21452661.1644                   21452661.1724
 11  8 18  2 25 30.0000000  0  9G26G10G29G30G02G15G12G05G25
   1010314.26246    811934.21144  23498772.2274                   23498770.9494
 -15863046.46547 -12335113.61343  23517775.0554                   23517773.1954
  -6254758.26247  -4846761.47345  22385838.9614                   22385836.8914
 -14445300.60248 -11221733.18445  21492213.3674                   21492211.0824
 -29663241.82048 -23078885.55146  21516965.2344                   21516959.8914
   8890985.32046   6957993.77743  24409387.7194                   24409387.6024
 -22821494.50448 -17749826.04746  21365989.9304                   21365987.6884
 -26431213.49248 -20580739.88746  20258794.1254                   20258791.7734
 -15716515.01248 -12213009.08246  21446869.8984                   21446870.2074
 11  8 18  2 26  0.0000000  0  9G26G10G29G30G02G15G12G05G25
    883579.13746    713179.62143  23474655.1724                   23474653.6214
 -15790455.10947 -12278548.94543  23531587.9224                   23531586.1414
  -6368196.03547  -4935154.51245  22364252.4614                   22364250.3594
 -14454796.21148 -11229132.34045  21490406.4534                   21490404.5904
 -29656555.56248 -23073675.46946  21518237.1724                   21518232.1724
   8765059.52046   6859869.89543  24385424.4844                   24385424.3094
 -22790107.77348 -17725368.85546  21371962.7114                   21371960.2664
 -26435670.78548 -20584213.08247  20257945.5784                   20257943.0704
 -15746366.01648 -12236269.57846  21441189.4304                   21441189.4614
 11  8 18  2 26 30.0000000  0  9G26G10G29G30G02G15G12G05G25
   2332349.53146   1842091.71943  23750346.7814                   23750345.3364
 -14142290.16046 -10994264.62143  23845224.3054                   23845222.0274
  -4906119.78547  -3795874.26645  22642476.4384                   22642474.1294
 -12888301.82048 -10008487.34845  21788500.4454                   21788498.1684
 -28074358.05948 -21840794.30146  21819319.5474                   21819315.3554
  10214443.68046   7989260.29343  24661233.6254                   24661233.6254
 -21182876.06648 -16472980.51246  21677808.4614                   21677806.1214
 -24864190.95348 -19359683.32447  20556988.9224                   20556985.8984
 -14200215.81648 -11031477.20746  21735412.0704                   21735412.2194
 11  8 18  2 27  0.0000000  0  9G26G10G29G30G02G15G12G05G25
   2205776.29746   1743463.28143  23726260.4224                   23726259.9494
 -14069393.72746 -10937462.25443  23859095.8284                   23859093.6454
  -5019379.39847  -3884128.47745  22620923.7274                   22620922.0864
 -12896663.73848 -10015003.12945  21786908.9694                   21786906.8244
 -28067492.98048 -21835444.88346  21820625.6724                   21820621.0474
  10088287.82446   7890957.15643  24637226.1334                   24637226.4534
 -21150643.68748 -16447864.37546  21683942.2894                   21683939.8554
 -24867620.20348 -19362355.44547  20556336.3204                   20556333.0554
 -14228911.02748 -11053837.10546  21729952.0864                   21729951.9024
 11  8 18  2 27 30.0000000  0  9G26G10G29G30G02G15G12G05G25
   2079297.87546   1644908.76243  23702192.5784                   23702191.1764
 -13996340.40646 -10880537.62143  23872997.2424                   23872995.1414
  -5132538.68447  -3972304.48845  22599390.3594                   22599388.3284
 -12904452.64148 -10021072.39145  21785426.7344                   21785424.8874
 -28060530.42648 -21830019.50046  21821951.0394                   21821946.3874
   9962028.97946   7792573.81343  24613200.2974                   24613199.7814
 -21117984.07848 -16422415.33646  21690157.1414                   21690154.7304
 -24870529.56248 -19364622.44946  20555782.0944                   20555779.5704
 -14257020.70748 -11075740.74246  21724603.0474                   21724602.7194
 11  8 18  2 28  0.0000000  0  9G26G10G29G30G02G15G12G05G25
   1952916.71147   1546430.01644  23678142.3834                   23678141.4264
 -13923133.45746 -10823493.32843  23886928.4304                   23886925.7304
  -5245596.48447  -4060401.43445  22577876.3134                   22577873.7894
 -12911671.10248 -10026697.16445  21784053.4304                   21784051.2194
 -28053470.97748 -21824518.62546  21823294.2274                   21823289.5594
   9835668.86346   7694111.55143  24589153.9384                   24589154.3954
 -21084900.91448 -16396636.25446  21696452.4144                   21696450.4774
 -24872921.66848 -19366486.41447  20555327.1954                   20555324.1294
 -14284546.39548 -11097189.31646  21719364.6174                   21719364.8594
 11  8 18  2 28 30.0000000  0  9G26G10G29G30G02G15G12G05G25
   1826636.60247   1448030.00044  23654112.5004                   23654111.3054
 -13849775.31647 -10766331.18043  23900888.3444                   23900885.4804
  -5358550.87547  -4148417.79745  22556381.4454                   22556379.6334
 -12918320.32448 -10031878.36345  21782788.1484                   21782786.0084
 -28046314.65648 -21818942.26246  21824656.2114                   21824651.0554
   9709210.38746   7595572.61743  24565089.6094                   24565089.5004
 -21051395.79748 -16370528.36746  21702828.6024                   21702825.7934
 -24874798.03948 -19367948.50446  20554970.1334                   20554967.0004
 -14311488.27348 -11118182.98846  21714237.6334                   21714237.5704
 11  8 18  2 29  0.0000000  0  9G26G10G29G30G02G15G12G05G25
   1700456.87947   1349708.25443  23630100.8284                   23630099.8914
 -13776272.96947 -10709056.65243  23914875.0864                   23914873.6724
  -5471403.68747  -4236355.00045  22534906.3444                   22534904.1254
 -12924406.25047 -10036620.62945  21781629.7814                   21781627.8364
 -28039065.61748 -21813293.65246  21826035.5864                   21826030.5664
   9582651.77046   7496955.66443  24541006.0314                   24541006.3914
 -21017476.22348 -16344097.52746  21709282.9614                   21709280.6764
 -24876164.41848 -19369013.19547  20554710.1024                   20554707.3834
 -14337851.38748 -11138725.66046  21709221.2344                   21709221.2664
 11  8 18  2 29 30.0000000  0  9G26G10G29G30G02G15G12G05G25
   1574379.59046   1251466.27744  23606109.1884                   23606108.6024
 -13702630.81647 -10651673.16443  23928888.6564                   23928887.1054
  -5584154.71547  -4324212.87945  22513450.1024                   22513448.3484
 -12929932.02748 -10040926.43445  21780578.6414                   21780576.1914
 -28031725.77747 -21807574.28545  21827431.8834                   21827427.1914
   9455994.14546   7398261.55943  24516904.3914                   24516904.0784
 -20983146.30548 -16317346.94146  21715816.1254                   21715813.6604
 -24877023.99248 -19369682.98047  20554546.4844                   20554543.8484
 -14363637.89848 -11158819.03546  21704313.6644                   21704313.9614
 11  8 18  2 30  0.0000000  0  9G26G10G29G30G02G15G12G05G25
   1448411.28546   1153309.21944  23582138.4614                   23582137.3244
 -13628848.36347 -10594180.37943  23942928.9534                   23942927.1374
  -5696799.07047  -4411987.65645  22492015.4924                   22492013.3524
 -12934896.36747 -10044794.74645  21779634.1094                   21779631.6254
 -28024292.27747 -21801781.93045  21828846.2814                   21828842.3244
   9329243.21146   7299494.79343  24492784.3674                   24492783.7074
 -20948405.35947 -16290276.07046  21722427.2114                   21722424.4924
 -24877375.57848 -19369956.94147  20554479.6414                   20554476.6294
 -14388845.39548 -11178461.22346  21699517.1954                   21699517.1134
 11  8 18  2 30 30.0000000  0  9G26G10G29G30G02G15G12G05G25
   1322557.09847   1055241.10544  23558189.0004                   23558188.2584
 -13554926.43447 -10536578.92243  23956996.1024                   23956993.4884
  -5809333.18747  -4499676.53145  22470600.0084                   22470598.3754
 -12939299.33648 -10048225.62145  21778795.7734                   21778793.9184
 -28016763.44947 -21795915.30545  21830279.4064                   21830274.9344
   9202403.18446   7200658.53943  24468647.2894                   24468646.8244
 -20913254.33647 -16262885.66846  21729115.9534                   21729113.8674
 -24877219.60248 -19369835.39547  20554509.2584                   20554506.5044
 -14413473.01648 -11197651.56246  21694830.6254                   21694830.8594
 11  8 18  2 31  0.0000000  0  9G26G10G29G30G02G15G12G05G25
   1196825.65647    957268.64544  23534263.2894                   23534261.8674
 -13480862.80147 -10478866.98843  23971089.9694                   23971087.6254
  -5921750.06647  -4587274.06645  22449208.1484                   22449206.0784
 -12943137.66447 -10051216.52345  21778065.4614                   21778063.2344
 -28009134.43747 -21789970.62145  21831731.2734                   21831726.5124
   9075481.57446   7101758.73043  24444494.3054                   24444494.5554
 -20877690.96947 -16235173.95746  21735883.3984                   21735880.9264
 -24876552.51648 -19369315.57446  20554636.1484                   20554633.2814
 -14437516.55948 -11216386.77746  21690255.5234                   21690255.4304
 11  8 18  2 31 30.0000000  0  9G26G10G29G30G02G15G12G05G25
   1071213.50447    859389.09844  23510360.3134                   23510358.7464
 -13406667.26247 -10421052.28543  23985209.2344                   23985206.3794
  -6034054.92647  -4674784.30545  22427837.3444                   22427834.9304
 -12946420.18447 -10053774.32445  21777440.6484                   21777439.1524
 -28001412.23448 -21783953.29746  21833200.4774                   21833196.1094
   8948473.85247   7002791.78944  24420326.6484                   24420325.8284
 -20841725.07048 -16207148.58646  21742727.9844                   21742724.8914
 -24875383.33648 -19368404.51247  20554858.5234                   20554855.7814
 -14460983.81648 -11234672.93746  21685789.4614                   21685789.7384
 11  8 18  2 32  0.0000000  0  9G26G10G29G30G02G15G12G05G25
    945727.32447    761607.71144  23486481.0704                   23486479.7544
 -13332339.03147 -10363134.21943  23999352.7114                   23999351.1804
  -6146242.26247  -4762202.95345  22406488.3364                   22406486.2274
 -12949145.38748 -10055897.84845  21776922.7424                   21776920.3954
 -27993593.52348 -21777860.78546  21834688.6954                   21834683.5784
   8821386.05147   6903762.46143  24396142.2034                   24396141.3794
 -20805356.00048 -16178809.04746  21749648.1174                   21749645.6134
 -24873710.43748 -19367100.94546  20555177.0634                   20555174.2384
 -14483872.31648 -11252508.13346  21681433.7504                   21681434.4184
 11  8 18  2 32 30.0000000  0  9G26G10G29G30G02G15G12G05G25
    820370.12147    663926.83244  23462625.9844                   23462624.0824
 -13257881.35247 -10305115.25443  24013522.4614                   24013520.3134
  -6258310.89548  -4849529.12545  22385162.4534                   22385160.3134
 -12951315.79748 -10057589.07445  21776509.2424                   21776507.0944
 -27985679.42248 -21771693.94545  21836194.6804                   21836190.1024
   8694220.00447   6804672.16443  24371943.2974                   24371942.2544
 -20768586.59447 -16150157.56246  21756645.5004                   21756642.5824
 -24871536.44948 -19365406.92246  20555590.7894                   20555587.9144
 -14506183.60948 -11269893.54746  21677188.3054                   21677188.4734
 11  8 18  2 33  0.0000000  0  9G26G10G29G30G02G15G12G05G25
    695136.59847    566342.31644  23438794.8364                   23438793.6764
 -13183305.32047 -10247004.06243  24027712.9064                   24027711.8324
  -6370267.47348  -4936767.98445  22363857.9534                   22363855.6524
 -12952942.02347 -10058856.24645  21776199.6804                   21776197.8554
 -27977678.62948 -21765459.55145  21837716.9144                   21837712.2774
   8566969.93447   6705516.37944  24347728.5164                   24347726.6994
 -20731429.12948 -16121203.69946  21763715.8914                   21763713.2424
 -24868872.03148 -19363330.75446  20556097.3984                   20556094.7894
 -14527927.23448 -11286836.62146  21673050.6954                   21673050.7974
 11  8 18  2 33 30.0000000  0  9G26G10G29G30G02G15G12G05G25
    570041.00847    468865.28944  23414989.3524                   23414988.7854
 -13108602.95346 -10188794.46943  24041928.3284                   24041927.4884
  -6482099.61348  -5023909.87145  22342577.0944                   22342575.0204
 -12954015.24647 -10059692.52045  21775995.7814                   21775993.9184
 -27969580.50448 -21759149.31645  21839258.1094                   21839253.4574
   8439648.55547   6606305.04343  24323499.5084                   24323498.0594
 -20693875.63747 -16091941.25846  21770862.1334                   21770860.0664
 -24865708.71148 -19360865.82047  20556699.7344                   20556696.7734
 -14549093.50048 -11303329.80946  21669022.8134                   21669022.9694
 11  8 18  2 34  0.0000000  0  9G26G10G29G30G02G15G12G05G25
    445078.73047    371492.14544  23391210.0634                   23391209.0474
 -13033785.34046 -10130495.08643  24056165.1174                   24056164.2194
  -6593813.71947  -5110959.80545  22321318.3054                   22321316.6804
 -12954545.69947 -10060105.85546  21775894.4534                   21775892.4884
 -27961393.60547 -21752769.89845  21840816.1884                   21840811.1644
   8312250.72346   6507034.13344  24299256.2974                   24299255.4414
 -20655936.84848 -16062378.57446  21778081.8444                   21778079.1484
 -24862056.18748 -19358019.68746  20557394.7034                   20557391.6844
 -14569691.61748 -11319380.27746  21665103.3444                   21665103.2034
 11  8 18  2 34 30.0000000  0  9G26G10G29G30G02G15G12G05G25
    320242.54747    274217.24644  23367454.5394                   23367453.9104
 -12958865.75846 -10072116.23043  24070422.5864                   24070420.9774
  -6705418.48447  -5197924.53945  22300080.6954                   22300078.1054
 -12954546.06248 -10060106.13745  21775894.6334                   21775892.8914
 -27953128.54748 -21746329.57845  21842388.7344                   21842383.7504
   8184767.83247   6407696.99244  24274997.2424                   24274996.2734
 -20617626.36747 -16032526.26646  21785372.3204                   21785369.6094
 -24857927.41848 -19354802.46946  20558180.3914                   20558177.3524
 -14589733.34048 -11334997.18746  21661289.5554                   21661289.4804
 11  8 18  2 35  0.0000000  0  9G26G10G29G30G02G15G12G05G25
    195546.60547    177051.64844  23343725.3054                   23343724.7974
 -12883836.09046 -10013651.56243  24084700.2424                   24084698.7854
  -6816900.95347  -5284793.96145  22278866.4844                   22278863.7424
 -12954007.59447 -10059686.54745  21775996.7814                   21775995.2384
 -27944774.55147 -21739819.96545  21843978.2194                   21843974.0084
   8057213.77046   6308304.36343  24250723.9064                   24250722.9384
 -20578936.03148 -16002377.96946  21792734.5554                   21792731.6524
 -24853313.65648 -19351207.32847  20559058.8284                   20559055.7114
 -14609208.90648 -11350172.94546  21657583.1334                   21657583.2544
 11  8 18  2 35 30.0000000  0  9G26G10G29G30G02G15G12G05G25
     71000.32046     80002.63744  23320024.6094                   23320024.2074
 -12808693.48847  -9955098.89143  24098999.8204                   24098997.9924
  -6928253.49647  -5371562.15245  22257676.2664                   22257674.7114
 -12952926.54748 -10058844.16445  21776202.7584                   21776200.6604
 -27936326.30947 -21733236.92645  21845586.0554                   21845581.0044
   7929596.52047   6208862.50843  24226439.2424                   24226438.4614
 -20539863.13347 -15971931.56245  21800170.5394                   21800167.4694
 -24848211.21948 -19347231.39546  20560029.2504                   20560026.5204
 -14628113.68048 -11364903.90646  21653985.4844                   21653985.2624
 11  8 18  2 36  0.0000000  0  9G26G10G29G30G02G15G12G05G25
    -53393.52047    -16927.57444  23296354.1954                   23296352.6334
 -12733441.10946  -9896460.68443  24113319.5164                   24113318.1684
  -7039474.66847  -5458227.97345  22236511.7734                   22236509.6564
 -12951305.37948 -10057580.92245  21776511.5704                   21776509.4734
 -27927784.26248 -21726580.78145  21847211.4454                   21847207.0234
   7801918.37946   6109373.21543  24202142.5704                   24202141.9614
 -20500411.11748 -15941189.74246  21807677.6024                   21807674.8324
 -24842622.38348 -19342876.45747  20561092.9694                   20561089.8874
 -14646449.18748 -11379191.30146  21650496.5784                   21650496.2624
 11  8 18  2 36 30.0000000  0  9G26G10G29G30G02G15G12G05G25
   -177643.12947   -113745.39544  23272709.8054                   23272708.4104
 -12658093.27047  -9837748.07443  24127657.9614                   24127655.6334
  -7150574.60247  -5544799.33245  22215370.3134                   22215368.2114
 -12949158.41447 -10055907.95745  21776919.5704                   21776917.6334
 -27919160.63747 -21719861.06645  21848852.0634                   21848847.6054
   7674169.88746   6009829.07043  24177833.2114                   24177832.2664
 -20460594.51247 -15910163.82445  21815254.7344                   21815251.8324
 -24836561.38348 -19338153.59846  20562246.1884                   20562243.4924
 -14664228.62148 -11393045.40246  21647113.3054                   21647113.3524
 11  8 18  2 37  0.0000000  0  9G26G10G29G30G02G15G12G05G25
   -301733.83647   -210439.38744  23249096.2974                   23249094.8594
 -12582641.16446  -9778954.22743  24142015.7664                   24142013.9414
  -7261540.30547  -5631266.06245  22194253.9454                   22194251.4654
 -12946476.44948 -10053818.12145  21777430.0944                   21777427.7974
 -27910444.55147 -21713069.29745  21850510.8204                   21850506.0864
   7546364.57846   5910240.68843  24153512.9064                   24153511.5044
 -20420405.06247 -15878847.37546  21822902.5784                   21822899.4734
 -24830019.13748 -19333055.73446  20563491.1564                   20563488.4844
 -14681441.94948 -11406458.37546  21643837.6644                   21643837.1844
 11  8 18  2 37 30.0000000  0  9G26G10G29G30G02G15G12G05G25
   -425671.01247   -307013.77344  23225511.8524                   23225510.2154
 -12507096.57046  -9720088.26243  24156391.5084                   24156389.7194
  -7372378.38347  -5717633.36745  22173162.7424                   22173160.5554
 -12943270.31248 -10051319.83645  21778040.0784                   21778037.9574
 -27901644.26648 -21706211.92645  21852185.7664                   21852181.1804
   7418496.75046   5810603.53944  24129179.4064                   24129178.7934
 -20379854.77347 -15847249.76646  21830618.8284                   21830616.2074
 -24823006.43048 -19327591.28546  20564825.8834                   20564823.1374
 -14698099.09848 -11419437.96546  21640667.9774                   21640667.5784
 11  8 18  2 38  0.0000000  0  9G26G10G29G30G02G15G12G05G25
   -549442.64847   -403459.16044  23201959.0944                   23201957.3554
 -12431453.49646  -9661145.60943  24170785.8674                   24170784.8484
  -7483078.44947  -5803893.12146  22152096.7894                   22152094.9224
 -12939533.77748 -10048408.25045  21778751.3984                   21778749.3594
 -27892751.72347 -21699282.67646  21853878.0634                   21853873.4964
   7290576.97747   5710925.94143  24104837.4844                   24104836.4184
 -20338937.91047 -15815366.50846  21838405.1414                   21838402.3204
 -24815516.80947 -19321755.21146  20566250.9454                   20566247.6254
 -14714192.78548 -11431978.49246  21637605.3754                   21637605.4264
 11  8 18  2 38 30.0000000  0  9G26G10G29G30G02G15G12G05G25
   -673038.75447   -499767.77044  23178438.9774                   23178437.4884
 -12355708.07846  -9602123.18043  24185199.9384                   24185197.8014
  -7593632.00447  -5890038.70746  22131059.0944                   22131057.2504
 -12935262.64548 -10045080.10545  21779564.1174                   21779561.7894
 -27883760.60547 -21692276.60945  21855588.9844                   21855584.3054
   7162614.59847   5611215.12944  24080486.3984                   24080485.7504
 -20297650.98447 -15783194.89146  21846261.5474                   21846258.8484
 -24807546.23048 -19315544.36346  20567767.5554                   20567764.7154
 -14729717.95348 -11444076.01646  21634651.0944                   21634651.2154
 11  8 18  2 39  0.0000000  0  9G26G10G29G30G02G15G12G05G25
   -796453.99247   -595935.42244  23154954.0554                   23154952.8134
 -12279861.27746  -9543021.77043  24199632.9454                   24199631.3484
  -7704035.15647  -5976067.09446  22110050.2194                   22110048.1024
 -12930457.27047 -10041335.65645  21780478.6804                   21780476.3714
 -27874669.33248 -21685192.48845  21857319.0784                   21857314.1804
   7034614.28547   5511474.77344  24056129.2274                   24056128.0164
 -20255995.08247 -15750735.76246  21854188.3364                   21854185.7734
 -24799094.69147 -19308958.74646  20569375.8204                   20569372.7304
 -14744673.90248 -11455730.00046  21631804.8524                   21631805.2734
 11  8 18  2 39 30.0000000  0  9G26G10G29G30G02G15G12G05G25
   -919705.41447   -691975.45744  23131500.3364                   23131499.0044
 -12203936.04346  -9483859.20743  24214080.6334                   24214080.3674
  -7814306.61347  -6061992.84845  22089065.8754                   22089063.8094
 -12925140.37148 -10037192.62545  21781490.0944                   21781488.0944
 -27865498.24248 -21678046.18745  21859064.2504                   21859059.1644
   6906557.75847   5411690.59444  24031760.7504                   24031759.8164
 -20213993.74647 -15718007.46145  21862181.0864                   21862178.4144
 -24790185.23048 -19302016.30146  20571071.3364                   20571068.1804
 -14759082.56648 -11466957.52046  21629063.2194                   21629063.1684
 11  8 18  2 40  0.0000000  0  9G26G10G29G30G02G15G12G05G25
  -1042781.26247   -787878.67244  23108079.5704                   23108077.9574
 -12127926.83646  -9424631.23043  24228544.4924                   24228543.8244
  -7924436.45748  -6147808.25446  22068109.5944                   22068106.5784
 -12919306.03147 -10032646.38745  21782600.7664                   21782598.5004
 -27856239.28147 -21670831.40645  21860825.8834                   21860820.8014
   6778456.08247   5311871.20344  24007383.8444                   24007382.3204
 -20171641.51248 -15685005.73045  21870240.2974                   21870237.8364
 -24780811.65648 -19294712.21546  20572854.9694                   20572851.7274
 -14772936.92248 -11477753.12946  21626426.5234                   21626426.6954
 11  8 18  2 40 30.0000000  0  9G26G10G29G30G02G15G12G05G25
  -1165675.02747   -883639.98844  23084693.5394                   23084691.8914
 -12051833.30146  -9365337.50843  24243024.4774                   24243023.6094
  -8034419.43447  -6233509.23045  22047179.7274                   22047177.8094
 -12912953.52347 -10027696.38345  21783809.0394                   21783807.0274
 -27846889.72348 -21663546.04745  21862605.3284                   21862600.5204
   6650314.76247   5212020.92644  23982998.8444                   23982997.9964
 -20128938.56647 -15651730.72345  21878366.5474                   21878364.0904
 -24770973.14148 -19287045.83246  20574727.3594                   20574724.4844
 -14786235.61348 -11488115.73846  21623896.1724                   21623896.4384
 11  8 18  2 41  0.0000000  0  9G26G10G29G30G02G15G12G05G25
  -1288374.97347   -979250.27044  23061344.7424                   23061342.6644
 -11975649.69946  -9305973.64142  24257522.0944                   24257520.9024
  -8144245.46547  -6319087.90646  22026280.6644                   22026278.3364
 -12906077.04347 -10022338.09045  21785117.7814                   21785116.2934
 -27837441.27747 -21656183.61745  21864403.4224                   21864398.2854
   6522144.70347   5112148.27043  23958608.8834                   23958607.5314
 -20085879.67647 -15618178.34445  21886560.2344                   21886557.7384
 -24760663.96148 -19279012.69146  20576689.1174                   20576686.2154
 -14798971.69548 -11498039.95746  21621472.6804                   21621472.3754
 11  8 18  2 41 30.0000000  0  9G26G10G29G30G02G15G12G05G25
  -1410881.20747  -1074709.63344  23038032.2974                   23038030.9884
 -11899382.57046  -9246544.71543  24272034.9774                   24272033.6214
  -8253916.19547  -6404545.55545  22005411.0394                   22005408.4614
 -12898682.49248 -10016576.09845  21786524.9064                   21786523.1914
 -27827897.87948 -21648747.19945  21866219.1884                   21866214.3444
   6393944.80547   5012252.32044  23934213.5234                   23934212.0864
 -20042471.30547 -15584353.65245  21894820.4534                   21894818.1214
 -24749889.71148 -19270617.17246  20578739.3914                   20578736.7074
 -14811150.20748 -11507529.71946  21619155.0784                   21619155.0944
 11  8 18  2 42  0.0000000  0  9G26G10G29G30G02G15G12G05G25
  -1533198.48047  -1170021.75444  23014755.6334                   23014755.3754
 -11823042.34046  -9187058.82443  24286562.2974                   24286560.2194
  -8363437.88347  -6489887.07046  21984569.7664                   21984567.3714
 -12890780.48448 -10010418.69545  21788028.9224                   21788026.8364
 -27818267.53948 -21641243.02745  21868051.6414                   21868047.0084
   6265709.48047   4912328.79744  23909811.1334                   23909809.4104
 -19998725.00848 -15550265.63345  21903145.3984                   21903142.8634
 -24738660.60948 -19261867.21546  20580875.8364                   20580873.3054
 -14822780.87948 -11516592.59046  21616941.9224                   21616941.8014
 11  8 18  2 42 30.0000000  0  9G26G10G29G30G02G15G12G05G25
  -1655317.34047  -1265179.25444  22991517.7974                   22991516.4224
 -11746625.32046  -9127513.12943  24301104.1564                   24301101.8524
  -8472802.46947  -6575106.17246  21963758.3834                   21963755.9184
 -12882367.32047 -10003862.97345  21789629.6334                   21789627.8634
 -27808544.66847 -21633666.77045  21869901.5634                   21869896.5554
   6137447.55146   4812384.52344  23885403.3054                   23885402.0314
 -19954637.46147 -15515911.71146  21911535.2974                   21911532.6294
 -24726973.19947 -19252760.13346  20583100.1414                   20583097.4344
 -14833859.02748 -11525224.91046  21614833.5474                   21614833.6724
 11  8 18  2 43  0.0000000  0  9G26G10G29G30G02G15G12G05G25
  -1777238.46147  -1360182.67244  22968316.6254                   22968315.1294
 -11670138.89146  -9067913.31643  24315659.4224                   24315656.6294
  -8582012.12947  -6660204.55545  21942975.9224                   21942974.3524
 -12873449.73447  -9996914.19545  21791326.5084                   21791324.4774
 -27798733.47347 -21626021.67645  21871769.1804                   21871764.0634
   6009157.32047   4712418.21944  23860990.8674                   23860989.1604
 -19910216.06648 -15481297.64845  21919988.3284                   21919985.6844
 -24714834.00048 -19243301.00046  20585410.2894                   20585407.4184
 -14844390.53548 -11533431.27346  21612829.6334                   21612829.4964
 11  8 18  2 43 30.0000000  0  9G26G10G29G30G02G15G12G05G25
  -1898956.57847  -1455027.89844  22945154.7894                   22945152.9494
 -11593584.09846  -9008260.25043  24330227.3914                   24330225.2504
  -8691063.35547  -6745179.49245  21922224.1644                   21922222.1054
 -12864028.46548  -9989572.94945  21793119.2584                   21793117.4304
 -27788832.40648 -21618306.55945  21873652.7974                   21873648.0004
   5880842.99246   4612433.10544  23836572.8444                   23836571.4884
 -19865462.39848 -15446424.66845  21928504.4454                   21928501.8204
 -24702243.72348 -19233490.38346  20587805.9144                   20587803.3954
 -14854375.28548 -11541211.60246  21610929.4534                   21610929.5474
 11  8 18  2 44  0.0000000  0  9G26G10G29G30G02G15G12G05G25
  -2020469.33647  -1549713.09844  22922031.5394                   22922029.8364
 -11516964.23846  -8948556.43443  24344806.7734                   24344805.4534
  -8799955.26247  -6830030.27745  21901502.4774                   21901500.5594
 -12854107.14148  -9981842.02745  21795007.2034                   21795005.6724
 -27778842.63747 -21610522.30545  21875554.1094                   21875549.1954
   5752506.30947   4512430.59844  23812151.6254                   23812149.8364
 -19820380.44947 -15411295.88746  21937083.0554                   21937080.7974
 -24689205.58247 -19223330.79346  20590286.8674                   20590284.0904
 -14863815.89848 -11548567.90646  21609133.4384                   21609132.9224
 11  8 18  2 44 30.0000000  0  9G26G10G29G30G02G15G12G05G25
  -2141766.24647  -1644230.10944  22898949.0474                   22898947.1684
 -11440274.91046  -8888798.52743  24359400.7194                   24359399.5664
  -8908678.62947  -6914749.73446  21880813.7194                   21880811.4654
 -12843681.05548  -9973717.80545  21796991.7424                   21796989.4964
 -27768757.11348 -21602663.44945  21877473.4454                   21877468.5004
   5624157.09447   4412418.30944  23787726.7504                   23787726.3244
 -19774966.30148 -15375908.24245  21945725.1254                   21945722.6214
 -24675715.10548 -19212818.71946  20592854.1564                   20592851.3984
 -14872706.84848 -11555495.92646  21607441.4694                   21607441.0824
 11  8 18  2 45  0.0000000  0  9G26G10G29G30G02G15G12G05G25
  -2262843.03947  -1738575.62944  22875908.7114                   22875906.6844
 -11363518.40246  -8828988.25843  24374006.7894                   24374006.3444
  -9017230.91447  -6999335.88346  21860156.9224                   21860154.5004
 -12832752.25848  -9965201.85545  21799071.1484                   21799069.0124
 -27758575.23048 -21594729.52045  21879410.7194                   21879405.8404
   5495798.40647   4312398.65244  23763301.2114                   23763299.7544
 -19729222.62948 -15340263.82845  21954430.0784                   21954427.5394
 -24661773.88748 -19201955.41846  20595507.0704                   20595504.2154
 -14881049.28148 -11561996.52046  21605853.8364                   21605853.7234
 11  8 18  2 45 30.0000000  0  9G26G10G29G30G02G15G12G05G25
  -2383710.62147  -1832758.11344  22852908.3054                   22852906.7304
 -11286710.94146  -8769138.32043  24388623.3914                   24388621.8014
  -9125624.50447  -7083798.38346  21839529.9844                   21839527.8364
 -12821337.59848  -9956307.32045  21801243.2424                   21801240.9534
 -27748311.35947 -21586731.68745  21881364.3594                   21881359.2544
   5367418.62547   4212362.55144  23738871.0314                   23738870.1094
 -19683166.30148 -15304375.78945  21963194.0234                   21963191.5664
 -24647398.48048 -19190753.79746  20598242.5784                   20598239.6254
 -14888859.16448 -11568082.13746  21604367.5784                   21604367.5944
 11  8 18  2 46  0.0000000  0 10G26G10G29G30G02G15G12G05G25G21
  -2504351.21947  -1926763.71544  22829951.5394                   22829949.9884
 -11209841.07446  -8709239.73043  24403251.4924                   24403249.0354
  -9233843.11747  -7168124.54745  21818936.4534                   21818934.5004
 -12809425.21147  -9947024.93445  21803509.9844                   21803508.0314
 -27737951.39548 -21578658.98445  21883335.1254                   21883331.2274
   5239034.79747   4112323.27744  23714440.5944                   23714438.9694
 -19636786.54348 -15268235.71545  21972019.9924                   21972017.4264
 -24632576.87547 -19179204.47746  20601062.8754                   20601060.1134
 -14896123.73048 -11573742.82446  21602984.9694                   21602985.0274
  10898176.08656   8513218.85553  25076445.1484                   25076443.8874
 11  8 18  2 46 30.0000000  0 10G26G10G29G30G02G15G12G05G25G21
  -2624753.67247  -2020583.76644  22807039.7274                   22807038.4344
 -11132903.76246  -8649288.63343  24417891.7344                   24417889.5354
  -9341877.02048  -7252306.77046  21798378.3984                   21798376.2304
 -12797009.87147  -9937350.65645  21805872.4844                   21805870.4734
 -27727487.78547 -21570505.50845  21885326.8594                   21885321.7774
   5110657.16446   4012288.84444  23690011.0394                   23690010.1684
 -19590078.67247 -15231839.98045  21980908.1484                   21980905.6994
 -24617303.80948 -19167303.38346  20603969.5004                   20603966.2974
 -14902837.05148 -11578973.97346  21601707.5944                   21601707.7464
  10809777.29746   8444336.75843  25059623.2584                   25059622.7304
 11  8 18  2 47  0.0000000  0 10G26G10G29G30G02G15G12G05G25G21
  -2744927.75047  -2114225.84844  22784171.3054                   22784170.0554
 -11055914.53546  -8589297.09042  24432542.2894                   24432540.2624
  -9449737.35247  -7336353.75446  21777853.2194                   21777851.1094
 -12784107.68748  -9927297.00045  21808327.7814                   21808325.8634
 -27716933.65248 -21562281.51245  21887334.9384                   21887330.0634
   4982275.21946   3912251.05144  23665580.8524                   23665579.2074
 -19543059.25047 -15195201.47745  21989856.1174                   21989853.3524
 -24601595.30948 -19155062.98046  20606958.9144                   20606955.9024
 -14909014.13748 -11583787.28146  21600531.9304                   21600531.6214
  10721393.66046   8375466.43843  25042804.6724                   25042803.8954
 11  8 18  2 47 30.0000000  0 10G26G10G29G30G02G15G12G05G25G21
  -2864880.84047  -2207695.71944  22761345.0164                   22761343.2814
 -10978886.79346  -8529275.45342  24447200.2584                   24447197.9804
  -9557433.09448  -7420272.48046  21757359.6094                   21757357.3954
 -12770731.96147  -9916874.35245  21810873.2734                   21810871.4264
 -27706300.34847 -21553995.82445  21889358.8204                   21889353.7584
   4853880.91047   3812203.60544  23641148.3594                   23641146.6054
 -19495741.81247 -15158330.74645  21998859.7034                   21998857.2934
 -24585464.43448 -19142493.46546  20610028.5234                   20610025.2664
 -14914667.61748 -11588192.58646  21599456.6644                   21599456.1134
  10633013.81646   8306599.08243  25025987.2034                   25025985.6524
 11  8 18  2 48  0.0000000  0 10G26G10G29G30G02G15G12G05G25G21
  -2984603.58647  -2300986.11744  22738562.1414                   22738561.1254
 -10901817.28546  -8469221.32042  24461865.4064                   24461863.6484
  -9664956.64848  -7504057.05946  21736898.5474                   21736895.9184
 -12756879.73048  -9906080.39845  21813509.0944                   21813507.6764
 -27695581.68448 -21545643.62545  21891398.5474                   21891393.9534
   4725482.29747   3712152.80144  23616715.1024                   23616713.3754
 -19448124.34447 -15121226.27045  22007921.2034                   22007918.7854
 -24568907.83248 -19129592.20346  20613178.9064                   20613176.1564
 -14919793.57048 -11592186.83246  21598480.8984                   21598480.8404
  10544642.51246   8237738.38743  25009169.4224                   25009169.2344
 11  8 18  2 48 30.0000000  0  9G26G29G30G02G15G12G05G25G21
  -3104083.08647  -2394086.98444  22715826.4454                   22715824.5274
  -9772296.07048  -7587698.15646  21716472.5634                   21716470.3754
 -12742543.96947  -9894909.68045  21816237.0314                   21816235.1764
 -27684768.39148 -21537217.68745  21893456.4454                   21893451.0434
   4597091.92247   3612108.41044  23592282.4384                   23592281.1414
 -19400200.14847 -15083882.77045  22017040.9064                   22017038.5394
 -24551918.20348 -19116353.52346  20616412.1644                   20616409.1054
 -14924384.17248 -11595763.92246  21597607.7034                   21597607.4734
  10456288.82046   8168891.37543  24992357.3524                   24992355.7114
 11  8 18  2 49  0.0000000  0  9G26G29G30G02G15G12G05G25G21
  -3223323.92247  -2487001.87144  22693134.9614                   22693133.5744
  -9879457.78548  -7671200.78546  21696080.2194                   21696078.0664
 -12727735.62547  -9883370.71145  21819055.3524                   21819053.5594
 -27673868.73447 -21528724.44945  21895529.8134                   21895525.0084
   4468704.25047   3512066.13344  23567851.2424                   23567849.6174
 -19351980.73447 -15046309.22345  22026216.7344                   22026214.1524
 -24534506.30948 -19102785.79746  20619724.7734                   20619722.5044
 -14928449.46548 -11598931.67246  21596833.6724                   21596833.7734
  10367943.49646   8100050.96943  24975545.5314                   24975544.1604
 11  8 18  2 49 30.0000000  0  9G26G29G30G02G15G12G05G25G21
  -3342313.17247  -2579720.71544  22670492.3204                   22670490.4844
  -9986430.32048  -7754555.98846  21675724.2274                   21675721.8244
 -12712447.87948  -9871458.18045  21821964.1484                   21821962.5354
 -27662873.18748 -21520156.52045  21897622.1564                   21897618.2704
   4340331.28547   3412035.31344  23543423.1414                   23543421.7274
 -19303459.73447 -15008500.68445  22035449.9384                   22035447.7464
 -24516665.38748 -19088883.76646  20623120.2734                   20623117.6954
 -14931981.87948 -11601684.20346  21596161.7424                   21596161.6804
  10279615.43846   8031223.96542  24958737.5554                   24958736.3244
 11  8 18  2 50  0.0000000  0  9G26G29G30G02G15G12G05G25G21
  -3461049.01247  -2672242.10544  22647897.8754                   22647896.0864
 -10093213.13748  -7837763.35946  21655404.1334                   21655401.2704
 -12696685.09847  -9859175.48445  21824963.8054                   21824962.0784
 -27651783.66047 -21511515.32045  21899732.7894                   21899728.1454
   4211974.32046   3312016.96144  23518997.2034                   23518995.3594
 -19254641.84447 -14970460.78545  22044739.6804                   22044737.0784
 -24498399.07848 -19074650.25446  20626596.2344                   20626593.5474
 -14934984.87548 -11604024.19146  21595589.8364                   21595589.9304
  10191302.32446   7962408.61342  24941930.5944                   24941930.5554
 11  8 18  2 50 30.0000000  0  9G26G29G30G02G15G12G05G25G21
  -3579524.84047  -2764560.92245  22625352.4534                   22625350.9454
 -10199801.07047  -7920818.87946  21635120.7504                   21635118.4734
 -12680447.00447  -9846522.42645  21828053.7274                   21828051.7384
 -27640597.17247 -21502798.60245  21901861.0164                   21901856.9844
   4083638.89546   3212015.39844  23494575.7194                   23494573.9064
 -19205527.43447 -14932189.84445  22054086.0554                   22054083.6214
 -24479707.02348 -19060085.00846  20630152.8204                   20630150.2074
 -14937457.41848 -11605950.84846  21595120.1024                   21595119.2734
  10103006.02746   7893606.46142  24925129.0864                   24925128.8554
 11  8 18  2 51  0.0000000  0  9G26G29G30G02G15G12G05G25G21
  -2122312.35547  -1629070.60244  22902650.2814                   22902648.7544
  -8730767.71948  -6776117.55946  21914668.7274                   21914666.6884
 -11088315.68047  -8605900.61745  22131026.1954                   22131024.2034
 -26053892.61347 -20266405.44145  22203801.0784                   22203795.9574
   5530753.21146   4339636.98844  23769952.5634                   23769950.8754
 -17580700.07447 -13666090.62945  22363280.2974                   22363278.0554
 -22885171.49648 -17817589.78546  20933583.2034                   20933580.0704
 -13363980.14548 -10379864.66446  21894542.2424                   21894542.2704
  11590150.24246   9052420.23842  25208122.5164                   25208122.1844
 11  8 18  2 51 30.0000000  0  9G26G29G30G02G15G12G05G25G21
  -2240254.34847  -1720973.42644  22880207.1644                   22880204.6684
  -8836956.58248  -6858862.11346  21894461.3284                   21894459.7504
 -11071131.56647  -8592510.40245  22134296.4144                   22134294.3524
 -26042508.03147 -20257534.34045  22205967.4924                   22205962.6884
   5402472.74246   4239678.22744  23745541.3054                   23745539.6254
 -17530998.21547 -13627361.92645  22372738.1954                   22372736.0904
 -22865632.20348 -17802364.35546  20937301.4224                   20937298.6564
 -13365393.83648 -10380966.24246  21894273.2734                   21894273.2504
  11501889.53546   8983645.80542  25191327.2584                   25191327.1254
 11  8 18  2 52  0.0000000  0  9G26G29G30G02G15G12G05G25G21
  -2357926.94147  -1812666.32844  22857815.2274                   22857812.2544
  -8942945.62148  -6941450.94146  21874292.5944                   21874290.3634
 -11053481.46148  -8578757.06245  22137655.4384                   22137652.8284
 -26031027.63748 -20248588.59045  22208152.2974                   22208147.4844
   5274221.02046   4139741.85944  23721135.9144                   23721134.1884
 -17481010.19947 -13588410.25045  22382250.6174                   22382248.5514
 -22845675.72748 -17786813.84846  20941099.1024                   20941096.0204
 -13366283.87548 -10381659.78146  21894104.0164                   21894103.5594
  11413642.43046   8914881.94142  25174535.1174                   25174534.6604
 11  8 18  2 52 30.0000000  0  9G26G29G30G02G15G12G05G25G21
  -2475319.39547  -1904140.93444  22835475.5164                   22835474.2154
  -9048725.38748  -7023876.71546  21854163.2504                   21854161.2154
 -11035360.89148  -8564637.15245  22141103.2974                   22141101.1644
 -26019443.89547 -20239562.30945  22210356.8364                   22210351.8324
   5146008.11747   4039835.76244  23696737.8524                   23696736.5084
 -17430732.28547 -13549232.67645  22391818.6254                   22391816.3714
 -22825297.16448 -17770934.44146  20944976.7504                   20944973.8754
 -13366644.98448 -10381941.18046  21894035.0944                   21894035.2194
  11325415.85246   8846134.06342  25157745.1484                   25157745.5234
 11  8 18  2 53  0.0000000  0  9G26G29G30G02G15G12G05G25G21
  -2592439.83647  -1995403.56245  22813188.3984                   22813186.6844
  -9154305.31248  -7106146.75846  21834072.3284                   21834069.8054
 -11016784.07848  -8550161.73045  22144637.9064                   22144636.3014
 -26007768.50847 -20230464.61345  22212578.1884                   22212573.3834
   5017825.21547   3939953.00444  23672345.2504                   23672343.8524
 -17380178.93447 -13509840.47345  22401438.5864                   22401436.0434
 -22804510.75048 -17754737.23046  20948932.6254                   20948929.8794
 -13366490.72348 -10381820.98446  21894064.9534                   21894064.5434
  11237196.79746   8777392.13742  25140957.5084                   25140957.7194
 11  8 18  2 53 30.0000000  0  9G26G29G30G02G15G12G05G25G21
  -2709282.54747  -2086449.80145  22790954.3134                   22790952.0474
  -9259681.35948  -7188257.93746  21814019.8984                   21814017.4384
 -10997751.79747  -8535331.39845  22148260.1094                   22148257.7894
 -25995999.30948 -20221293.82045  22214818.3134                   22214813.2774
   4889677.13347   3840097.40644  23647959.6484                   23647958.1484
 -17329351.25047 -13470234.50445  22411110.6954                   22411108.0944
 -22783316.78548 -17738222.44146  20952965.4384                   20952962.5434
 -13365820.97748 -10381299.11346  21894192.1254                   21894192.0594
  11148987.05946   8708657.42242  25124171.6024                   25124171.3524
 11  8 18  2 54  0.0000000  0  9G26G29G30G02G15G12G05G25G21
  -2825842.71947  -2177275.87544  22768773.1884                   22768771.2624
  -9364850.15648  -7270207.60246  21794006.9774                   21794004.1454
 -10978265.50447  -8520147.28545  22151968.3134                   22151966.1604
 -25984134.79747 -20212048.73845  22217075.7114                   22217071.0004
   4761568.23847   3740272.34844  23623580.8834                   23623579.8754
 -17278251.30547 -13430416.39545  22420834.5234                   22420832.3554
 -22761716.37948 -17721390.94946  20957075.9454                   20957073.2194
 -13364636.41848 -10380376.08246  21894417.2814                   21894417.1454
  11060787.61746   8639930.68442  25107387.8284                   25107386.7734
 11  8 18  2 54 30.0000000  0  9G26G29G30G02G15G12G05G25G21
  -2942114.92247  -2267877.54744  22746647.5084                   22746645.7664
  -9469807.45348  -7351992.48046  21774034.1804                   21774031.9734
 -10958326.18747  -8504610.18045  22155762.9144                   22155760.8054
 -25972173.21947 -20202728.02045  22219351.9224                   22219347.5944
   4633502.84847   3640481.17644  23599211.2664                   23599209.6804
 -17226880.09447 -13390386.91045  22430609.9924                   22430607.9224
 -22739710.57448 -17704243.55946  20961263.2344                   20961260.4654
 -13362937.21148 -10379052.03546  21894740.8594                   21894740.7734
  10972598.80946   8571212.28542  25090606.1804                   25090604.4884
 11  8 18  2 55  0.0000000  0  9G26G29G30G02G15G12G05G25G21
  -3058101.27047  -2358256.48044  22724575.9304                   22724574.4024
  -9574556.81248  -7433615.30146  21754100.6884                   21754098.1914
 -10937942.13747  -8488726.52345  22159641.6024                   22159639.5234
 -25960120.10548 -20193335.98445  22221645.3284                   22221641.5004
   4505478.47747   3540721.99644  23574848.6094                   23574847.0434
 -17175246.38747 -13350152.88345  22440435.5314                   22440433.0944
 -22717306.78148 -17686786.04746  20965526.8914                   20965523.8634
 -13360730.88348 -10377332.83246  21895160.8134                   21895160.4924
  10884414.96946   8502497.78942  25073825.2274                   25073824.1724
 11  8 18  2 55 30.0000000  0  9G26G29G30G02G15G12G05G25G21
  -3173793.85247  -2448406.50044  22702559.6954                   22702558.3634
  -9679091.91848  -7515071.18446  21734208.4844                   21734206.1294
 -10917111.92247  -8472495.21145  22163605.6884                   22163603.4574
 -25947970.94547 -20183869.10945  22223957.2194                   22223953.3094
   4377502.38747   3441000.42644  23550495.7194                   23550493.7304
 -17123349.17247 -13309713.50845  22450311.4384                   22450308.5004
 -22694503.22748 -17669017.03946  20969866.2974                   20969863.5514
 -13358015.24248 -10375216.77046  21895677.4144                   21895677.2854
  10796239.45346   8433789.74642  25057046.2504                   25057044.8714
 11  8 18  2 56  0.0000000  0  9G26G29G30G02G15G12G05G25G21
  -3289194.26647  -2538328.88344  22680599.9454                   22680597.9144
  -9783415.69148  -7596362.39546  21714356.5084                   21714354.1844
 -10895843.56647  -8455922.48045  22167652.4454                   22167650.7584
 -25935730.91848 -20174331.43445  22226286.1884                   22226282.3594
   4249571.71147   3341314.25044  23526151.0164                   23526149.8204
 -17071196.85947 -13269075.36345  22460235.9924                   22460233.4654
 -22671308.10248 -17650942.91846  20974280.0704                   20974276.6764
 -13354797.65248 -10372709.57046  21896289.7974                   21896289.4654
  10708066.19146   8365083.46543  25040267.3594                   25040265.5904
 11  8 18  2 56 30.0000000  0  9G26G29G30G02G15G12G05G25G21
  -3404302.62547  -2628023.66845  22658695.8284                   22658694.1844
  -9887529.44148  -7677489.95346  21694544.0314                   21694541.6684
 -10874143.48447  -8439013.34045  22171782.0084                   22171780.1024
 -25923403.72347 -20164725.84445  22228632.3054                   22228628.0204
   4121686.11347   3241663.21144  23501814.8134                   23501813.4224
 -17018796.07447 -13228243.61345  22470207.4224                   22470204.6914
 -22647726.93048 -17632567.97746  20978767.5704                   20978764.3014
 -13351083.63348 -10369815.55146  21896997.0784                   21896996.6374
  10619891.16846   8296375.77043  25023488.1884                   25023486.1724
 11  8 18  2 57  0.0000000  0  9G26G29G30G02G15G12G05G25G21
  -3519109.84847  -2717483.80545  22636848.4534                   22636846.7154
  -9991425.53548  -7758447.89546  21674773.3984                   21674770.9844
 -10852008.89547  -8421765.63345  22175993.6954                   22175991.9144
 -25910983.32047 -20155047.61345  22230995.6254                   22230991.7114
   3993854.04747   3142053.87544  23477490.0084                   23477487.6884
 -16966144.74647 -13187216.62945  22480226.8594                   22480224.3594
 -22623757.03548 -17613890.14146  20983328.7734                   20983325.9964
 -13346869.84048 -10366532.09046  21897798.3984                   21897798.3244
  10531719.25046   8227670.51643  25006709.2344                   25006707.6844
 11  8 18  2 57 30.0000000  0  9G26G29G30G02G15G12G05G25G21
  -3633602.35547  -2806698.69945  22615061.3754                   22615059.6054
 -10095091.93448  -7839226.85946  21655046.2034                   21655043.3524
 -10829433.03147  -8404174.07045  22180290.5944                   22180288.1454
 -25898459.78947 -20145289.04745  22233379.0864                   22233374.7734
   3866088.12947   3042496.07444  23453176.6644                   23453174.7814
 -16913235.84047 -13145988.92645  22490294.9844                   22490292.3754
 -22599390.81247 -17594903.46946  20987965.3444                   20987962.5314
 -13342148.53948 -10362853.17646  21898696.8914                   21898696.3714
  10443559.53946   8158974.78543  24989932.4924                   24989931.4734
 11  8 18  2 58  0.0000000  0  9G26G29G30G02G15G12G05G25G21
  -3747787.85247  -2895674.39145  22593332.8284                   22593330.7854
 -10198537.63748  -7919833.86746  21635361.1564                   21635358.8484
 -10806429.71147  -8386249.42645  22184667.6724                   22184665.4614
 -25885844.23048 -20135458.74245  22235779.9694                   22235774.8634
   3738379.84447   2942983.20744  23428874.4224                   23428872.0984
 -16860083.69147 -13104571.68045  22500409.1954                   22500406.9224
 -22574641.92248 -17575618.62146  20992675.0004                   20992671.9144
 -13336932.91848 -10358789.06646  21899689.2584                   21899689.1414
  10355400.23446   8090279.35243  24973156.4064                   24973155.3914
 11  8 18  2 58 30.0000000  0  9G26G29G30G02G15G12G05G25G21
  -3861668.63747  -2984412.62545  22571661.9534                   22571660.0864
 -10301766.33648  -8000271.77046  21615717.0004                   21615714.5204
 -10783007.70748  -8367998.53545  22189124.7344                   22189122.3364
 -25873142.40248 -20125561.22745  22238196.7504                   22238192.2274
   3610726.50847   2843513.13744  23404582.4384                   23404580.6914
 -16806697.37547 -13062971.97345  22510568.6884                   22510566.1684
 -22549518.93448 -17556042.27046  20997455.5234                   20997452.7544
 -13331231.02348 -10354346.04746  21900774.5784                   21900774.5514
  10267234.87546   8021579.23043  24956379.7194                   24956377.9734
 11  8 18  2 59  0.0000000  0  9G26G29G30G02G15G12G05G25G21
  -3975237.28947  -3072907.64145  22550050.1564                   22550048.5744
 -10404771.82848  -8080535.75046  21596115.9614                   21596113.3444
 -10759166.01247  -8349420.59845  22193661.5864                   22193659.0984
 -25860350.16448 -20115593.25445  22240630.7504                   22240626.8244
   3483135.12147   2744091.35544  23380302.7664                   23380300.7424
 -16753075.93047 -13021189.04745  22520772.2974                   22520770.3594
 -22524020.36348 -17536173.25846  21002307.9384                   21002305.0594
 -13325041.01648 -10349522.67246  21901952.5784                   21901952.2734
  10179066.83246   7952877.02343  24939601.6334                   24939600.1334
 11  8 18  2 59 30.0000000  0  9G26G29G30G02G15G12G05G25G21
  -4088483.54747  -3161151.41845  22528500.5474                   22528498.7664
 -10507545.21948  -8160618.89146  21576558.2274                   21576556.0124
 -10734900.88747  -8330512.73045  22198278.6954                   22198276.8284
 -25847460.91448 -20105549.69145  22243084.4224                   22243079.6954
   3355614.82847   2644724.96144  23356036.1564                   23356034.7934
 -16699216.10247 -12979220.38745  22531021.8674                   22531019.0314
 -22498141.99647 -17516008.29346  21007232.3054                   21007229.4024
 -13318358.57848 -10344315.59846  21903223.6804                   21903223.8404
  10090902.06646   7884177.31643  24922823.6334                   24922822.0594
 11  8 18  3  0  0.0000000  0  9G26G29G30G02G15G12G05G25G21
  -4201404.59847  -3249141.80545  22507012.3834                   22507010.0554
 -10610084.78148  -8240519.81246  21557046.0234                   21557043.7154
 -10710215.87547  -8311277.67245  22202976.5554                   22202974.7624
 -25834475.26248 -20095430.98845  22245554.8364                   22245550.3794
   3228168.10947   2545415.91044  23331783.8444                   23331782.1884
 -16645121.85947 -12937069.03145  22541315.3134                   22541313.2114
 -22471886.91848 -17495549.78546  21012228.3754                   21012225.5314
 -13311186.50048 -10338726.98446  21904588.7114                   21904588.3094
  10002739.02346   7815479.00043  24906047.3834                   24906045.5864
 11  8 18  3  0 30.0000000  0  9G26G29G30G02G15G12G05G25G21
  -4313991.16447  -3336871.55945  22485587.5784                   22485585.4224
 -10712383.13748  -8320232.80146  21537579.3284                   21537576.8284
 -10685108.48847  -8291713.50845  22207753.6094                   22207752.6524
 -25821387.21148 -20085232.51645  22248045.1254                   22248040.3404
   3100803.03947   2446170.44544  23307547.2034                   23307545.4414
 -16590790.50047 -12894732.91845  22551654.1094                   22551652.1484
 -22445252.18048 -17474795.44146  21017297.0394                   21017294.4224
 -13303521.55948 -10332754.32046  21906047.1644                   21906047.1374
   9914582.66846   7746785.85543  24889271.5004                   24889269.1024
 11  8 18  3  1  0.0000000  0  9G26G29G30G02G15G12G05G25G21
  -4426243.03947  -3424340.50845  22464226.3674                   22464224.8284
 -10814440.69948  -8399758.15646  21518158.2664                   21518155.2114
 -10659584.57447  -8271824.76645  22212611.5004                   22212609.5634
 -25808199.69147 -20074956.51245  22250555.1024                   22250550.3674
   2973519.96947   2346988.92244  23283325.7584                   23283324.9844
 -16536228.40647 -12852217.02745  22562037.2194                   22562034.8714
 -22418243.79748 -17453749.94546  21022436.5784                   21022433.6174
 -13295369.04748 -10326401.72346  21907598.7424                   21907598.5744
   9826428.98846   7678094.83243  24872496.3834                   24872494.1764
 11  8 18  3  1 30.0000000  0  9G26G29G30G02G15G12G05G25G21
  -4538168.35547  -3511555.00845  22442927.9384                   22442926.2034
 -10916267.42248  -8479103.63746  21498781.4224                   21498778.8714
 -10633658.98847  -8251623.02345  22217544.7974                   22217542.8364
 -25794924.71148 -20064612.39145  22253081.7974                   22253076.6024
   2846309.84447   2247864.21144  23259118.5554                   23259117.3874
 -16481450.58647 -12809533.01645  22572460.9454                   22572458.3404
 -22390875.76248 -17432424.21146  21027644.6954                   21027641.6604
 -13286742.91448 -10319680.07446  21909240.3364                   21909240.1844
   9738266.00846   7609396.55643  24855718.6484                   24855717.5474
 11  8 18  3  2  0.0000000  0  9G26G29G30G02G15G12G05G25G21
  -4649750.84047  -3598502.35545  22421694.4454                   22421693.0944
 -11017848.37948  -8558257.61746  21479451.4614                   21479448.6994
 -10607321.92647  -8231100.64545  22222556.2194                   22222554.7934
 -25781548.88747 -20054189.67645  22255626.9064                   22255621.4384
   2719188.33647   2148808.56644  23234928.6484                   23234926.7704
 -16426447.50047 -12766673.48845  22582927.9224                   22582925.4454
 -22363137.44148 -17410809.93446  21032922.4614                   21032919.9024
 -13277632.78548 -10312581.27046  21910973.7504                   21910973.7894
   9650105.78546   7540700.41043  24838942.8754                   24838940.2504
 11  8 18  3  2 30.0000000  0  9G26G29G30G02G15G12G05G25G21
  -4760977.63747  -3685172.55145  22400529.0864                   22400526.7974
 -11119171.65648  -8637210.80546  21460169.8984                   21460167.7624
 -10580567.05547  -8210252.70745  22227648.0164                   22227645.6804
 -25768062.79748 -20043681.03945  22258192.9924                   22258188.2384
   2592167.98047   2049831.72745  23210757.3444                   23210755.5704
 -16371212.85247 -12723633.51645  22593438.3054                   22593436.2974
 -22335022.43748 -17388902.14546  21038273.0864                   21038270.0554
 -13268031.56248 -10305099.82846  21912800.5554                   21912800.6684
   9561956.85246   7472013.06343  24822168.6804                   24822166.6134
 11  8 18  3  3  0.0000000  0  9G26G29G30G02G15G12G05G25G21
  -4871853.67247  -3771569.41445  22379429.5784                   22379427.8914
 -11220243.90248  -8715968.39146  21440936.7814                   21440934.2504
 -10553405.63347  -8189087.97745  22232816.8284                   22232814.6954
 -25754474.63348 -20033092.86745  22260778.8054                   22260773.3594
   2465242.89547   1950929.14845  23186603.9534                   23186602.2704
 -16315758.25447 -12680422.15645  22603991.3204                   22603988.9064
 -22306541.52048 -17366709.21946  21043692.4924                   21043689.6844
 -13257950.00848 -10297244.07446  21914719.2734                   21914719.5554
   9473810.34846   7403327.62543  24805394.4924                   24805392.0044
 11  8 18  3  3 30.0000000  0  9G26G29G30G02G15G12G05G25G21
  -4982378.27047  -3857692.46545  22358398.0314                   22358395.4964
 -11321065.60548  -8794530.76246  21421750.6094                   21421748.6844
 -10525843.77047  -8167611.21945  22238061.2424                   22238059.3554
 -25740787.33647 -20022427.45745  22263382.7344                   22263377.6644
   2338413.03547   1852100.73445  23162468.9774                   23162467.1724
 -16260090.13747 -12637044.43045  22614584.2894                   22614582.2704
 -22277700.16848 -17344235.44546  21049181.1024                   21049178.1054
 -13247393.46548 -10289018.20746  21916728.3984                   21916727.7464
   9385662.45346   7334641.07043  24788620.2894                   24788618.4384
 11  8 18  3  4  0.0000000  0  9G26G29G30G02G15G12G05G25G21
  -5092549.48447  -3943540.12545  22337432.8674                   22337430.6724
 -11421635.78548  -8872897.12546  21402612.7114                   21402610.9264
 -10497885.78147  -8145825.79345  22243381.6174                   22243379.4304
 -25727002.29347 -20011685.87145  22266005.9454                   22266001.3014
   2211680.27047   1753347.98045  23138352.4224                   23138350.4534
 -16204212.61747 -12593503.51645  22625217.3754                   22625215.1884
 -22248502.61748 -17321484.10946  21054737.0554                   21054734.4924
 -13236365.50448 -10280424.99646  21918826.7584                   21918826.3914
   9297511.24246   7265951.94143  24771845.8674                   24771843.4614
 11  8 18  3  4 30.0000000  0  9G26G29G30G02G15G12G05G25G21
  -5202369.75047  -4029114.33645  22316534.7664                   22316533.1254
 -11521958.14848  -8951070.39146  21383522.3204                   21383519.9964
 -10469540.70747  -8123738.73045  22248775.1724                   22248773.6844
 -25713125.00047 -20000872.40245  22268646.4454                   22268641.9064
   2085041.52747   1654668.48845  23114253.5314                   23114251.8594
 -16148134.94147 -12549806.64545  22635888.7504                   22635886.7344
 -22218957.25848 -17298461.77046  21060359.9064                   21060356.3204
 -13224874.62148 -10271471.07046  21921013.5554                   21921013.0314
   9209350.04746   7197254.98043  24755068.6484                   24755066.9224
 11  8 18  3  5  0.0000000  0  9G26G29G30G02G15G12G05G25G21
  -5311829.85547  -4114407.89145  22295704.9774                   22295703.0594
 -11622025.03948  -9029044.59046  21364480.3284                   21364477.4614
 -10440805.97347  -8101348.03545  22254244.0704                   22254242.0084
 -25699149.76647 -19989982.62545  22271306.1414                   22271302.0124
   1958505.31647   1556068.90644  23090174.4534                   23090173.3554
 -16091854.85547 -12505952.04745  22646598.6414                   22646596.4804
 -22189061.02348 -17275165.98846  21066048.6564                   21066045.7304
 -13212917.59848 -10262153.91046  21923288.7584                   21923288.9384
   9121183.93045   7128554.23442  24738291.2504                   24738289.4414
 11  8 18  3  5 30.0000000  0  9G26G29G30G02G15G12G05G25G21
  -5420922.21547  -4199414.88745  22274944.9774                   22274943.8204
 -11721829.82048  -9106814.55546  21345488.1334                   21345485.4454
 -10411680.43447  -8078652.81645  22259786.0864                   22259784.3094
 -25685072.21147 -19979013.12145  22273985.0634                   22273980.6644
   1832078.61747   1457554.63744  23066116.5474                   23066114.8324
 -16035371.45747 -12461939.04345  22657347.3204                   22657344.5704
 -22158812.16848 -17251595.44946  21071804.6564                   21071801.6414
 -13200492.55548 -10252472.06646  21925653.2734                   21925653.3914
   9033016.38746   7059852.36343  24721512.9144                   24721511.7424
 11  8 18  3  6  0.0000000  0  9G26G29G30G02G15G12G05G25G21
  -5529653.82847  -4284140.77045  22254254.2734                   22254253.1294
 -11821380.90648  -9184386.82046  21326543.7194                   21326541.8594
 -10382177.64847  -8055663.64845  22265400.2734                   22265398.7114
 -25670902.53147 -19967971.82845  22276681.8204                   22276677.1454
   1705754.07047   1359119.98444  23042078.0474                   23042076.1484
 -15978698.14147 -12417778.03545  22668131.5474                   22668128.9614
 -22128223.74248 -17227760.30146  21077625.3594                   21077622.8054
 -13187612.48848 -10242435.66046  21928104.3284                   21928104.5744
   8944836.25846   6991140.70343  24704733.5314                   24704731.6414
 11  8 18  3  6 30.0000000  0  9G26G29G30G02G15G12G05G25G21
  -5638018.50847  -4368580.75045  22233633.0314                   22233631.6334
 -11920673.13348  -9261757.39146  21307649.3134                   21307647.0234
 -10352298.06647  -8032380.88345  22271086.0084                   22271084.2194
 -25656637.90647 -19956856.55945  22279396.7424                   22279391.6134
   1579537.16447   1260769.19545  23018059.8984                   23018057.7424
 -15921835.59847 -12373469.58645  22678952.5164                   22678949.7734
 -22097295.65248 -17203660.50046  21083510.6414                   21083507.9344
 -13174277.21548 -10232044.55946  21930641.9224                   21930641.4264
   8856645.51246   6922420.73443  24687951.1334                   24687948.9654
 11  8 18  3  7  0.0000000  0  9G26G29G30G02G15G12G05G25G21
  -5746006.08647  -4452726.87145  22213083.7584                   22213081.5594
 -12019697.68448  -9338919.36346  21288805.2584                   21288802.6884
 -10322038.02047  -8008801.63345  22276844.5634                   22276842.2234
 -25642271.59448 -19945662.05145  22282130.6174                   22282125.4844
   1453437.60247   1162509.84044  22994063.9144                   22994061.6804
 -15864780.44547 -12329011.02345  22689809.6094                   22689807.3714
 -22066023.94548 -17179292.92646  21089461.9534                   21089459.0274
 -13160482.44548 -10221295.39846  21933267.1254                   21933267.1374
   8768450.23046   6853697.23443  24671168.5704                   24671165.7034
 11  8 18  3  7 30.0000000  0  9G26G29G30G02G15G12G05G25G21
  -5853620.98447  -4536582.60945  22192605.6484                   22192603.2384
 -12118460.53548  -9415877.42246  21270011.7664                   21270009.3714
 -10291408.49247  -7984934.48045  22282673.2344                   22282671.1134
 -25627811.13748 -19934394.16845  22284882.5004                   22284877.9414
   1327450.31347   1064337.97345  22970088.9064                   22970086.7774
 -15807543.48447 -12284410.82045  22700701.1174                   22700699.1214
 -22034418.91848 -17154665.63346  21095476.0004                   21095473.0944
 -13146238.68448 -10210196.37946  21935977.2894                   21935977.2934
   8680241.96146   6784963.63743  24654382.8594                   24654379.9614
 11  8 18  3  8  0.0000000  0  9G26G29G30G02G15G12G05G25G21
  -5960857.54347  -4620143.53145  22172198.7344                   22172197.2194
 -12216956.82048  -9492627.76646  21251268.5394                   21251265.8244
 -10260410.27347  -7960780.03545  22288571.6254                   22288569.8874
 -25613253.89847 -19923050.88345  22287652.2734                   22287647.5204
   1201580.90647    966257.95344  22946136.7974                   22946134.6604
 -15750125.69147 -12239669.68445  22711627.6174                   22711625.6764
 -22002480.89548 -17129778.85546  21101553.6254                   21101550.5864
 -13131545.93448 -10198747.48446  21938773.3914                   21938772.9574
   8592022.32446   6716221.17243  24637594.9844                   24637591.8484
 11  8 18  3  8 30.0000000  0  9G26G29G30G02G15G12G05G25G21
  -6067708.03947  -4703403.61345  22151865.8364                   22151864.0204
 -12315180.07848  -9569165.36346  21232576.9304                   21232575.0164
 -10229042.33247  -7936337.50445  22294541.2274                   22294539.4694
 -25598595.62148 -19911628.86745  22290441.7584                   22290437.0634
   1075836.45747    868275.32045  22922208.4384                   22922206.3164
 -15692526.08247 -12194786.89545  22722588.4924                   22722586.6954
 -21970208.18748 -17104631.28946  21107695.0944                   21107691.8874
 -13116402.58648 -10186947.50446  21941655.1954                   21941655.0124
   8503795.12946   6647472.78943  24620806.0474                   24620802.9264
 11  8 18  3  9  0.0000000  0  9G26G29G30G02G15G12G05G25G21
  -6174163.25047  -4786355.69545  22131608.1254                   22131606.2544
 -12413122.43448  -9645484.05946  21213939.3674                   21213936.7274
 -10197301.85547  -7911604.68445  22300580.6804                   22300579.5864
 -25583830.10947 -19900123.28145  22293250.9064                   22293246.7344
    950225.78547    770396.93045  22898305.0634                   22898303.3324
 -15634741.75847 -12149760.17645  22733584.2504                   22733582.3594
 -21937597.51248 -17079220.37546  21113900.5944                   21113897.6134
 -13100805.35548 -10174793.81646  21944623.1254                   21944623.8874
   8415565.36746   6578722.43443  24604016.2344                   24604013.5514
 11  8 18  3  9 30.0000000  0 10G26G18G29G30G02G15G12G05G25G21
  -6280225.83647  -4869001.83245  22111425.7194                   22111422.4694
  12424931.53156   9710813.96153  24587007.3984                   24587006.7894
 -12510787.55948  -9721586.75446  21195354.1644                   21195351.3554
 -10165198.14547  -7886588.83245  22306689.9924                   22306688.4414
 -25568963.40248 -19888538.85245  22296080.0554                   22296075.1884
    824745.63347    672620.22745  22874427.6564                   22874424.9654
 -15576782.32847 -12104596.97745  22744613.2274                   22744611.4144
 -21904657.68448 -17053552.98046  21120168.9304                   21120165.9844
 -13084762.87948 -10162293.19946  21947675.9454                   21947676.0594
   8327326.41846   6509964.92643  24587224.9844                   24587222.6564
 11  8 18  3 10  0.0000000  0 10G26G18G29G30G02G15G12G05G25G21
  -6385897.36347  -4951343.25445  22091316.4534                   22091313.8554
  12303684.12546   9616335.73043  24563933.9454                   24563933.5824
 -12608178.22748  -9797475.56246  21176821.2584                   21176818.8914
 -10132739.31247  -7861296.23845  22312867.1564                   22312865.3244
 -25554000.19547 -19876879.21145  22298927.6094                   22298922.9144
    699394.21547    574943.87145  22850573.4534                   22850571.3984
 -15518655.85247 -12059303.64145  22755674.8284                   22755672.6134
 -21871396.11348 -17027634.85946  21126498.1954                   21126495.4574
 -13068282.71148 -10149451.52046  21950812.1954                   21950812.3164
   8239072.70746   6441195.87943  24570430.5164                   24570427.9534
 11  8 18  3 10 30.0000000  0 10G26G18G29G30G02G15G12G05G25G21
  -6491170.98047  -5033374.62545  22071283.8524                   22071281.3444
  12182604.75446   9521988.41443  24540893.0634                   24540892.8134
 -12705288.90648  -9873146.21146  21158341.9924                   21158339.0514
 -10099925.21547  -7835726.83645  22319111.3984                   22319109.6134
 -25538937.11347 -19865141.77045  22301794.2194                   22301788.8164
    574177.87547    477372.73045  22826745.6254                   22826743.3014
 -15460362.68747 -12013880.40645  22766767.4224                   22766765.4804
 -21837812.20748 -17001465.57046  21132889.0084                   21132886.6764
 -13051364.10947 -10136268.22346  21954031.7194                   21954031.7854
   8150807.00046   6372417.49243  24553634.2034                   24553631.5984
 11  8 18  3 11  0.0000000  0 10G26G18G29G30G02G15G12G05G25G21
  -6596048.35247  -5115097.19945  22051326.2584                   22051323.7814
  12061689.61746   9427769.06643  24517883.7114                   24517882.7664
 -12802122.25448  -9948600.75846  21139915.0474                   21139912.8524
 -10066763.82047  -7809886.79345  22325421.7274                   22325420.1604
 -25523778.76248 -19853330.06645  22304679.3594                   22304674.1524
    449094.23047    379905.01645  22802942.6334                   22802940.6804
 -15401910.50447 -11968333.27045  22777890.7504                   22777888.8954
 -21803913.50448 -16975050.99646  21139339.7664                   21139337.2034
 -13034014.53148 -10122749.09446  21957333.1954                   21957333.1454
   8062523.41846   6303625.16843  24536834.2504                   24536831.2894
 11  8 18  3 11 30.0000000  0 10G26G18G29G30G02G15G12G05G25G21
  -6700526.03547  -5196508.34845  22031444.5864                   22031442.2274
  11940939.63746   9333678.37943  24494905.6094                   24494904.0354
 -12898676.08648 -10023837.49646  21121541.2894                   21121538.8164
 -10033258.56247  -7783778.81645  22331797.4534                   22331795.4774
 -25508524.87547 -19841443.95345  22307581.3984                   22307576.8954
    324146.24647    282542.99245  22779166.2034                   22779164.0664
 -15343302.60247 -11922664.78945  22789043.3204                   22789041.3444
 -21769702.61748 -16948393.14846  21145849.9304                   21145846.8834
 -13016236.79348 -10108896.33246  21960715.9774                   21960715.6484
   7974221.47746   6234818.54343  24520030.7974                   24520028.3674
 11  8 18  3 12  0.0000000  0 10G26G18G29G30G02G15G12G05G25G21
  -6804599.67247  -5277604.66445  22011639.4454                   22011637.5124
  11820357.37146   9239718.44143  24471959.7034                   24471958.1804
 -12994947.01248 -10098853.78946  21103221.7974                   21103219.3284
  -9999411.50047  -7757404.47345  22338238.3524                   22338236.6644
 -25493174.14848 -19829482.36345  22310503.0084                   22310497.7624
    199338.13747    185290.00045  22755415.8914                   22755413.9304
 -15284541.08647 -11876876.62145  22800225.4384                   22800223.4304
 -21735181.38348 -16921493.48446  21152419.0164                   21152416.1804
 -12998032.45348 -10094711.14846  21964180.0634                   21964179.9414
   7885901.49246   6165997.86743  24503224.3364                   24503221.7894
 11  8 18  3 12 30.0000000  0 10G26G18G29G30G02G15G12G05G25G21
  -6908265.34447  -5358383.07845  21991913.1254                   21991910.6454
  11699944.41446   9145890.34843  24449046.1254                   24449044.5314
 -13090932.26648 -10173647.48846  21084956.2504                   21084953.8754
  -9965225.16847  -7730765.79345  22344744.1254                   22344742.6334
 -25477725.92247 -19817444.81245  22313442.4384                   22313437.7624
     74673.55947     88148.80545  22731693.1884                   22731690.7384
 -15225628.39847 -11830970.64145  22811436.0554                   22811434.0354
 -21700351.39548 -16894353.23446  21159046.9454                   21159043.7424
 -12979403.43048 -10080195.05946  21967725.4844                   21967725.2424
   7797563.74646   6097163.31643  24486413.8984                   24486411.0124
 11  8 18  3 13  0.0000000  0 10G26G18G29G30G02G15G12G05G25G21
  -7011521.27347  -5438842.21545  21972264.0394                   21972262.1724
  11579700.21546   9052193.74643  24426163.9304                   24426162.4414
 -13186630.98048 -10248217.90246  21066745.3914                   21066742.6764
  -9930704.29747  -7703866.41045  22351313.0474                   22351311.1134
 -25462181.27747 -19805332.11745  22316400.4304                   22316395.0594
    -49846.42247     -8879.69545  22707997.6334                   22707995.0514
 -15166569.58647 -11784950.78145  22822674.8754                   22822672.4774
 -21665216.68748 -16866975.54746  21165733.0084                   21165730.1374
 -12960354.04348 -10065351.39146  21971350.2114                   21971350.2934
   7709206.00446   6028313.21543  24469599.6804                   24469597.6914
 11  8 18  3 13 30.0000000  0 10G26G18G29G30G02G15G12G05G25G21
  -7114349.47747  -5518968.04745  21952696.5004                   21952694.3164
  11459640.80946   8958641.20343  24403317.2194                   24403316.0354
 -13282026.38348 -10322551.96546  21048592.3134                   21048589.7584
  -9895837.45747  -7676697.45745  22357947.7814                   22357945.9734
 -25446525.38347 -19793132.73845  22319380.2194                   22319375.1804
   -174203.52347   -105781.29345  22684333.5554                   22684330.9964
 -15107352.81647 -11738807.88745  22833943.3674                   22833940.9844
 -21629765.29348 -16839351.08646  21172479.2114                   21172475.7584
 -12940872.24248 -10050170.79746  21975057.8134                   21975057.8164
   7620841.85246   5959458.12143  24452784.4454                   24452782.5634
 11  8 18  3 14  0.0000000  0 10G26G18G29G30G02G15G12G05G25G21
  -7216752.03947  -5598762.21945  21933209.8284                   21933207.6094
  11339761.60246   8865229.02342  24380504.5704                   24380503.3364
 -13377121.76248 -10396652.25446  21030496.2504                   21030494.2624
  -9860633.37547  -7649265.71545  22364646.9774                   22364644.7974
 -25430763.56247 -19780850.82845  22322379.0704                   22322374.4144
   -298400.72347   -202558.28545  22660699.0314                   22660696.9654
 -15047987.16847 -11692548.94945  22845240.4224                   22845238.2344
 -21594005.47748 -16811486.29346  21179283.7974                   21179280.4804
 -12920966.30948 -10034659.69546  21978845.7114                   21978845.7074
   7532465.50446   5890593.47743  24435967.2424                   24435964.8984
 11  8 18  3 14 30.0000000  0 10G26G18G29G30G02G15G12G05G25G21
  -7318730.86348  -5678226.21145  21913803.9144                   21913801.7664
  11220058.60946   8771954.19543  24357725.1254                   24357724.6564
 -13471920.45748 -10470521.35546  21012456.6804                   21012454.0664
  -9825100.71947  -7621577.94145  22371408.6254                   22371406.6914
 -25414901.12147 -19768490.51645  22325397.8984                   22325393.3444
   -422440.37147   -299212.52345  22637094.8914                   22637092.9614
 -14988481.19947 -11646180.69145  22856564.2664                   22856561.8094
 -21557945.24248 -16783387.40246  21186145.8834                   21186142.6604
 -12900644.28548 -10018824.36746  21982712.9614                   21982712.9734
   7444071.18446   5821714.87543  24419146.0944                   24419144.3364
 11  8 18  3 15  0.0000000  0 10G26G18G29G30G02G15G12G05G25G21
  -7420277.79347  -5757353.66445  21894480.4064                   21894478.2734
  11100537.87546   8678821.34442  24334980.6414                   24334979.9924
 -13566414.79348 -10544153.28546  20994475.0704                   20994472.1604
  -9789237.55547  -7593632.62945  22378233.0944                   22378231.2814
 -25398932.59047 -19756047.53145  22328436.2584                   22328432.2464
   -546314.19947   -395737.53145  22613522.9064                   22613520.6414
 -14928832.96147 -11599701.55945  22867914.6484                   22867912.2074
 -21521581.82448 -16755052.27046  21193065.5944                   21193062.7854
 -12879903.76248 -10002662.93746  21986659.5944                   21986660.1024
   7355663.09046   5752825.51243  24402323.0784                   24402320.0394
 11  8 18  3 15 30.0000000  0 10G26G18G29G30G02G15G12G05G25G21
  -5945972.79747  -4608544.56645  22175031.2584                   22175029.1254
  12556617.94546   9813429.35942  24612064.1564                   24612062.6884
 -12085186.37148  -9389949.31246  21276343.3984                   21276340.7504
  -8177635.05547  -6337838.50045  22684910.9144                   22684909.1524
 -23807444.85547 -18515927.24645  22631286.7424                   22631282.1604
    905398.07847    735466.89845  22889773.9224                   22889772.6684
 -13293634.26647 -10325520.77045  23179083.2584                   23179079.8204
 -19909506.13748 -15498889.39546  21499833.1804                   21499830.2894
 -11283335.03148  -8758583.43446  22290476.2114                   22290476.4694
   8842656.89846   6911522.03543  24685287.7274                   24685285.6914
 11  8 18  3 16  0.0000000  0 10G26G18G29G30G02G15G12G05G25G21
  -6046655.31647  -4686998.43745  22155871.4694                   22155869.5824
  12437455.62546   9720575.84843  24589388.3134                   24589386.8324
 -12179075.19548  -9463109.41846  21258477.0944                   21258474.4654
  -8141130.27747  -6309393.24245  22691857.5634                   22691855.7504
 -23791272.64147 -18503325.53545  22634363.8444                   22634359.8714
    781854.98447    639199.60245  22866264.8754                   22866262.5474
 -13233720.37947 -10278834.63745  23190483.7974                   23190481.4734
 -19872554.28148 -15470095.72346  21506865.1024                   21506862.3204
 -11261775.52048  -8741783.84046  22294579.2734                   22294579.0984
   8754210.27346   6842602.63343  24668457.3834                   24668454.4414
 11  8 18  3 16 30.0000000  0 10G26G18G29G30G02G15G12G05G25G21
  -6146901.68747  -4765112.46945  22136795.1804                   22136793.5784
  12318473.52746   9627862.70343  24566746.3444                   24566745.2074
 -12272658.69548  -9536031.61746  21240668.6954                   21240665.9144
  -8104310.24247  -6280702.32045  22698864.4534                   22698862.3164
 -23774999.01248 -18490644.84045  22637460.7734                   22637456.5594
    658481.00447    543064.07845  22842787.6024                   22842785.3164
 -13173679.27047 -10232049.37545  23201909.4224                   23201906.8244
 -19835312.64848 -15441076.27046  21513952.0394                   21513949.4804
 -11239811.32848  -8724668.90246  22298758.8284                   22298758.9454
   8665742.66446   6773666.86343  24651622.3674                   24651620.6724
 11  8 18  3 17  0.0000000  0 10G26G18G29G30G02G15G12G05G25G21
  -6246701.08647  -4842878.19145  22117804.1414                   22117802.3134
  12199679.89546   9535296.44943  24544140.8834                   24544139.3984
 -12365927.35248  -9608708.47346  21222920.1334                   21222917.4064
  -8067170.99648  -6251762.65645  22705931.5474                   22705930.0904
 -23758616.61347 -18477879.36345  22640578.7504                   22640573.7774
    535286.41447    447068.33645  22819345.0004                   22819342.6134
 -13113507.02047 -10185161.93045  23213359.6804                   23213357.3634
 -19797776.85248 -15411827.59046  21521094.8914                   21521091.5554
 -11217438.05147  -8707235.19146  22303016.0554                   22303016.2584
   8577260.80146   6704720.02743  24634783.9454                   24634782.7154
 11  8 18  3 17 30.0000000  0 10G26G18G29G30G02G15G12G05G25G21
  -6346058.44147  -4920299.47745  22098896.9224                   22098895.4384
  12081068.03946   9442871.82443  24521569.3204                   24521567.6644
 -12458886.55148  -9681144.19946  21205230.5004                   21205227.8164
  -8029723.71947  -6222582.97345  22713057.4694                   22713055.8954
 -23742133.34447 -18465035.29345  22643714.9454                   22643710.5704
    412266.25847    351208.52045  22795934.8284                   22795932.3364
 -13053214.37147 -10138180.65245  23224833.4454                   23224830.8954
 -19759957.44148 -15382357.91846  21528291.5234                   21528288.4804
 -11194666.32448  -8689491.01246  22307349.7274                   22307349.7274
   8488756.06646   6635755.34443  24617942.3054                   24617940.2854
 11  8 18  3 18  0.0000000  0 10G26G18G29G30G02G15G12G05G25G21
  -6444965.59047  -4997369.95745  22080075.7734                   22080073.8134
  11962643.44546   9350593.10243  24499033.9844                   24499031.8164
 -12551529.45348  -9753333.44946  21187601.4144                   21187598.5984
  -7991966.77347  -6193161.98845  22720242.6094                   22720240.9304
 -23725543.48047 -18452108.18445  22646871.9144                   22646867.3244
    289428.48047    255490.80945  22772559.0554                   22772557.3984
 -12992800.04747 -10091104.57045  23236329.7424                   23236327.0354
 -19721851.91048 -15352665.28946  21535542.7034                   21535539.6054
 -11171494.11348  -8671434.74645  22311759.1414                   22311759.3324
   8400232.80146   6566776.23843  24601097.6954                   24601095.2274
 11  8 18  3 18 30.0000000  0 10G26G18G29G30G02G15G12G05G25G21
  -6543409.74247  -5074079.66845  22061342.3834                   22061340.3874
  11844416.74646   9258468.60543  24476535.5634                   24476533.7704
 -12643844.50448  -9825267.23846  21170034.1334                   21170031.6414
  -7953894.13347  -6163495.00045  22727487.8524                   22727485.2344
 -23708837.83247 -18439090.82445  22650050.8674                   22650046.3524
    166785.13347    159924.60245  22749220.5554                   22749218.7544
 -12932257.56647 -10043928.62145  23247850.3134                   23247847.8914
 -19683453.35948 -15322744.34046  21542849.6644                   21542846.3754
 -11147914.98448  -8653061.41046  22316245.9224                   22316245.9144
   8311699.97346   6497789.67243  24584249.3364                   24584247.3834
